<?xml version="1.0" encoding="UTF-8" standalone="no" ?>
<gpx xmlns="http://www.topografix.com/GPX/1/1" xmlns:xsi="http://www.w3.org/2001/XMLSchema-instance" xsi:schemaLocation="http://www.topografix.com/GPX/1/1 http://www.topografix.com/GPX/1/1/gpx.xsd" version="1.1" creator="VisuGPX - https://www.visugpx.com">
  <metadata>
    <name>45 km Evoissons</name>
    <desc><![CDATA[reco trail des evoissons le 8 juin 2013]]></desc>
  </metadata>
  <trk>
    <name><![CDATA[2013-06-08 13:21:29]]></name>
    <trkseg>
      <trkpt lat="49.73684" lon="1.99403">
        <ele>94.52</ele>
        <time>2013-06-08T05:08:06Z</time>
      </trkpt>
      <trkpt lat="49.73684" lon="1.99403">
        <ele>94.36</ele>
        <time>2013-06-08T05:08:07Z</time>
      </trkpt>
      <trkpt lat="49.73686" lon="1.99405">
        <ele>94.31</ele>
        <time>2013-06-08T05:08:09Z</time>
      </trkpt>
      <trkpt lat="49.73697" lon="1.9943">
        <ele>94.1</ele>
        <time>2013-06-08T05:08:20Z</time>
      </trkpt>
      <trkpt lat="49.73722" lon="1.99449">
        <ele>94.5</ele>
        <time>2013-06-08T05:08:32Z</time>
      </trkpt>
      <trkpt lat="49.73746" lon="1.99491">
        <ele>94.24</ele>
        <time>2013-06-08T05:08:46Z</time>
      </trkpt>
      <trkpt lat="49.73757" lon="1.9953">
        <ele>93.94</ele>
        <time>2013-06-08T05:08:56Z</time>
      </trkpt>
      <trkpt lat="49.73768" lon="1.9957">
        <ele>93.86</ele>
        <time>2013-06-08T05:09:06Z</time>
      </trkpt>
      <trkpt lat="49.73778" lon="1.99616">
        <ele>94.14</ele>
        <time>2013-06-08T05:09:18Z</time>
      </trkpt>
      <trkpt lat="49.73788" lon="1.99665">
        <ele>93.49</ele>
        <time>2013-06-08T05:09:31Z</time>
      </trkpt>
      <trkpt lat="49.73789" lon="1.99675">
        <ele>94.17</ele>
        <time>2013-06-08T05:09:34Z</time>
      </trkpt>
      <trkpt lat="49.73792" lon="1.99726">
        <ele>93.49</ele>
        <time>2013-06-08T05:09:47Z</time>
      </trkpt>
      <trkpt lat="49.73792" lon="1.99773">
        <ele>93.23</ele>
        <time>2013-06-08T05:09:59Z</time>
      </trkpt>
      <trkpt lat="49.73806" lon="1.99803">
        <ele>93.84</ele>
        <time>2013-06-08T05:10:10Z</time>
      </trkpt>
      <trkpt lat="49.73823" lon="1.99828">
        <ele>93.43</ele>
        <time>2013-06-08T05:10:18Z</time>
      </trkpt>
      <trkpt lat="49.73836" lon="1.99846">
        <ele>93.44</ele>
        <time>2013-06-08T05:10:25Z</time>
      </trkpt>
      <trkpt lat="49.73853" lon="1.9988">
        <ele>94.25</ele>
        <time>2013-06-08T05:10:37Z</time>
      </trkpt>
      <trkpt lat="49.73862" lon="1.9991">
        <ele>95.77</ele>
        <time>2013-06-08T05:10:49Z</time>
      </trkpt>
      <trkpt lat="49.7387" lon="1.99956">
        <ele>97.56</ele>
        <time>2013-06-08T05:11:04Z</time>
      </trkpt>
      <trkpt lat="49.73884" lon="2.00007">
        <ele>98.17</ele>
        <time>2013-06-08T05:11:18Z</time>
      </trkpt>
      <trkpt lat="49.73904" lon="2.00041">
        <ele>99.72</ele>
        <time>2013-06-08T05:11:30Z</time>
      </trkpt>
      <trkpt lat="49.73928" lon="2.0008">
        <ele>102.52</ele>
        <time>2013-06-08T05:11:44Z</time>
      </trkpt>
      <trkpt lat="49.73937" lon="2.00104">
        <ele>104.38</ele>
        <time>2013-06-08T05:11:53Z</time>
      </trkpt>
      <trkpt lat="49.73954" lon="2.00145">
        <ele>106.81</ele>
        <time>2013-06-08T05:12:08Z</time>
      </trkpt>
      <trkpt lat="49.73965" lon="2.00178">
        <ele>107.58</ele>
        <time>2013-06-08T05:12:19Z</time>
      </trkpt>
      <trkpt lat="49.73983" lon="2.00209">
        <ele>109.69</ele>
        <time>2013-06-08T05:12:31Z</time>
      </trkpt>
      <trkpt lat="49.74001" lon="2.00253">
        <ele>112.05</ele>
        <time>2013-06-08T05:12:46Z</time>
      </trkpt>
      <trkpt lat="49.74014" lon="2.00286">
        <ele>112.58</ele>
        <time>2013-06-08T05:12:57Z</time>
      </trkpt>
      <trkpt lat="49.74028" lon="2.00327">
        <ele>112.77</ele>
        <time>2013-06-08T05:13:10Z</time>
      </trkpt>
      <trkpt lat="49.7404" lon="2.00367">
        <ele>113.56</ele>
        <time>2013-06-08T05:13:22Z</time>
      </trkpt>
      <trkpt lat="49.74058" lon="2.00414">
        <ele>113.65</ele>
        <time>2013-06-08T05:13:37Z</time>
      </trkpt>
      <trkpt lat="49.74074" lon="2.00467">
        <ele>114.26</ele>
        <time>2013-06-08T05:13:53Z</time>
      </trkpt>
      <trkpt lat="49.74092" lon="2.00506">
        <ele>115.42</ele>
        <time>2013-06-08T05:14:06Z</time>
      </trkpt>
      <trkpt lat="49.74108" lon="2.00553">
        <ele>116.65</ele>
        <time>2013-06-08T05:14:20Z</time>
      </trkpt>
      <trkpt lat="49.74115" lon="2.00572">
        <ele>116.96</ele>
        <time>2013-06-08T05:14:26Z</time>
      </trkpt>
      <trkpt lat="49.74123" lon="2.00593">
        <ele>117.42</ele>
        <time>2013-06-08T05:14:33Z</time>
      </trkpt>
      <trkpt lat="49.7415" lon="2.00617">
        <ele>118.83</ele>
        <time>2013-06-08T05:14:46Z</time>
      </trkpt>
      <trkpt lat="49.74178" lon="2.00643">
        <ele>120.79</ele>
        <time>2013-06-08T05:15:00Z</time>
      </trkpt>
      <trkpt lat="49.74202" lon="2.00677">
        <ele>120.82</ele>
        <time>2013-06-08T05:15:13Z</time>
      </trkpt>
      <trkpt lat="49.74224" lon="2.00712">
        <ele>121.28</ele>
        <time>2013-06-08T05:15:25Z</time>
      </trkpt>
      <trkpt lat="49.74249" lon="2.00752">
        <ele>119.38</ele>
        <time>2013-06-08T05:15:39Z</time>
      </trkpt>
      <trkpt lat="49.74269" lon="2.00799">
        <ele>117.31</ele>
        <time>2013-06-08T05:15:53Z</time>
      </trkpt>
      <trkpt lat="49.74273" lon="2.00809">
        <ele>117.1</ele>
        <time>2013-06-08T05:15:57Z</time>
      </trkpt>
      <trkpt lat="49.74268" lon="2.00787">
        <ele>117.91</ele>
        <time>2013-06-08T05:16:06Z</time>
      </trkpt>
      <trkpt lat="49.74255" lon="2.00746">
        <ele>120.35</ele>
        <time>2013-06-08T05:16:20Z</time>
      </trkpt>
      <trkpt lat="49.74249" lon="2.00707">
        <ele>123.35</ele>
        <time>2013-06-08T05:16:32Z</time>
      </trkpt>
      <trkpt lat="49.74253" lon="2.00661">
        <ele>125.35</ele>
        <time>2013-06-08T05:16:46Z</time>
      </trkpt>
      <trkpt lat="49.74256" lon="2.0062">
        <ele>127.34</ele>
        <time>2013-06-08T05:16:59Z</time>
      </trkpt>
      <trkpt lat="49.7426" lon="2.00581">
        <ele>129.36</ele>
        <time>2013-06-08T05:17:12Z</time>
      </trkpt>
      <trkpt lat="49.74263" lon="2.00538">
        <ele>131.45</ele>
        <time>2013-06-08T05:17:25Z</time>
      </trkpt>
      <trkpt lat="49.74264" lon="2.00484">
        <ele>134.73</ele>
        <time>2013-06-08T05:17:42Z</time>
      </trkpt>
      <trkpt lat="49.74259" lon="2.00449">
        <ele>136.99</ele>
        <time>2013-06-08T05:17:53Z</time>
      </trkpt>
      <trkpt lat="49.74252" lon="2.00409">
        <ele>138.78</ele>
        <time>2013-06-08T05:18:05Z</time>
      </trkpt>
      <trkpt lat="49.74248" lon="2.0036">
        <ele>141.69</ele>
        <time>2013-06-08T05:18:19Z</time>
      </trkpt>
      <trkpt lat="49.74241" lon="2.00311">
        <ele>144.38</ele>
        <time>2013-06-08T05:18:33Z</time>
      </trkpt>
      <trkpt lat="49.74232" lon="2.00269">
        <ele>146.38</ele>
        <time>2013-06-08T05:18:45Z</time>
      </trkpt>
      <trkpt lat="49.74225" lon="2.00236">
        <ele>146.99</ele>
        <time>2013-06-08T05:18:55Z</time>
      </trkpt>
      <trkpt lat="49.74215" lon="2.00187">
        <ele>148.69</ele>
        <time>2013-06-08T05:19:09Z</time>
      </trkpt>
      <trkpt lat="49.74206" lon="2.00129">
        <ele>148.5</ele>
        <time>2013-06-08T05:19:24Z</time>
      </trkpt>
      <trkpt lat="49.74196" lon="2.00076">
        <ele>147.71</ele>
        <time>2013-06-08T05:19:38Z</time>
      </trkpt>
      <trkpt lat="49.74184" lon="2.00033">
        <ele>146.62</ele>
        <time>2013-06-08T05:19:51Z</time>
      </trkpt>
      <trkpt lat="49.74169" lon="1.99982">
        <ele>145.84</ele>
        <time>2013-06-08T05:20:06Z</time>
      </trkpt>
      <trkpt lat="49.74152" lon="1.9993">
        <ele>145.01</ele>
        <time>2013-06-08T05:20:21Z</time>
      </trkpt>
      <trkpt lat="49.74133" lon="1.99882">
        <ele>144.7</ele>
        <time>2013-06-08T05:20:35Z</time>
      </trkpt>
      <trkpt lat="49.74117" lon="1.99839">
        <ele>144.85</ele>
        <time>2013-06-08T05:20:48Z</time>
      </trkpt>
      <trkpt lat="49.74113" lon="1.9983">
        <ele>144.78</ele>
        <time>2013-06-08T05:20:51Z</time>
      </trkpt>
      <trkpt lat="49.74098" lon="1.99794">
        <ele>145.13</ele>
        <time>2013-06-08T05:21:02Z</time>
      </trkpt>
      <trkpt lat="49.74118" lon="1.99772">
        <ele>144.71</ele>
        <time>2013-06-08T05:21:11Z</time>
      </trkpt>
      <trkpt lat="49.74147" lon="1.99766">
        <ele>141.29</ele>
        <time>2013-06-08T05:21:23Z</time>
      </trkpt>
      <trkpt lat="49.74157" lon="1.99769">
        <ele>139.61</ele>
        <time>2013-06-08T05:21:27Z</time>
      </trkpt>
      <trkpt lat="49.74177" lon="1.99784">
        <ele>136.39</ele>
        <time>2013-06-08T05:21:36Z</time>
      </trkpt>
      <trkpt lat="49.74196" lon="1.99793">
        <ele>133.07</ele>
        <time>2013-06-08T05:21:44Z</time>
      </trkpt>
      <trkpt lat="49.74216" lon="1.99789">
        <ele>130.05</ele>
        <time>2013-06-08T05:21:53Z</time>
      </trkpt>
      <trkpt lat="49.74239" lon="1.99782">
        <ele>126.81</ele>
        <time>2013-06-08T05:22:02Z</time>
      </trkpt>
      <trkpt lat="49.74267" lon="1.99778">
        <ele>123.65</ele>
        <time>2013-06-08T05:22:13Z</time>
      </trkpt>
      <trkpt lat="49.74298" lon="1.99812">
        <ele>120.64</ele>
        <time>2013-06-08T05:22:24Z</time>
      </trkpt>
      <trkpt lat="49.74306" lon="1.99827">
        <ele>119.82</ele>
        <time>2013-06-08T05:22:28Z</time>
      </trkpt>
      <trkpt lat="49.74331" lon="1.99869">
        <ele>117.73</ele>
        <time>2013-06-08T05:22:42Z</time>
      </trkpt>
      <trkpt lat="49.74352" lon="1.99886">
        <ele>116.28</ele>
        <time>2013-06-08T05:22:52Z</time>
      </trkpt>
      <trkpt lat="49.74384" lon="1.99898">
        <ele>116.11</ele>
        <time>2013-06-08T05:23:05Z</time>
      </trkpt>
      <trkpt lat="49.74415" lon="1.99926">
        <ele>117.24</ele>
        <time>2013-06-08T05:23:19Z</time>
      </trkpt>
      <trkpt lat="49.7445" lon="1.99933">
        <ele>118.16</ele>
        <time>2013-06-08T05:23:33Z</time>
      </trkpt>
      <trkpt lat="49.74482" lon="1.99922">
        <ele>119.26</ele>
        <time>2013-06-08T05:23:46Z</time>
      </trkpt>
      <trkpt lat="49.74511" lon="1.99905">
        <ele>122.26</ele>
        <time>2013-06-08T05:24:00Z</time>
      </trkpt>
      <trkpt lat="49.7453" lon="1.99895">
        <ele>125.28</ele>
        <time>2013-06-08T05:24:10Z</time>
      </trkpt>
      <trkpt lat="49.74556" lon="1.99911">
        <ele>127.14</ele>
        <time>2013-06-08T05:24:22Z</time>
      </trkpt>
      <trkpt lat="49.74577" lon="1.99947">
        <ele>127.62</ele>
        <time>2013-06-08T05:24:34Z</time>
      </trkpt>
      <trkpt lat="49.74598" lon="1.99974">
        <ele>128.67</ele>
        <time>2013-06-08T05:24:46Z</time>
      </trkpt>
      <trkpt lat="49.74623" lon="2.00016">
        <ele>129.46</ele>
        <time>2013-06-08T05:25:01Z</time>
      </trkpt>
      <trkpt lat="49.74639" lon="2.0004">
        <ele>130.01</ele>
        <time>2013-06-08T05:25:12Z</time>
      </trkpt>
      <trkpt lat="49.74644" lon="2.00059">
        <ele>130.41</ele>
        <time>2013-06-08T05:25:19Z</time>
      </trkpt>
      <trkpt lat="49.74649" lon="2.00067">
        <ele>130.45</ele>
        <time>2013-06-08T05:25:24Z</time>
      </trkpt>
      <trkpt lat="49.74659" lon="2.00104">
        <ele>131.03</ele>
        <time>2013-06-08T05:25:36Z</time>
      </trkpt>
      <trkpt lat="49.74672" lon="2.00117">
        <ele>134.07</ele>
        <time>2013-06-08T05:25:46Z</time>
      </trkpt>
      <trkpt lat="49.74683" lon="2.00125">
        <ele>137.18</ele>
        <time>2013-06-08T05:25:54Z</time>
      </trkpt>
      <trkpt lat="49.74685" lon="2.00129">
        <ele>137.73</ele>
        <time>2013-06-08T05:25:56Z</time>
      </trkpt>
      <trkpt lat="49.74691" lon="2.00131">
        <ele>139.04</ele>
        <time>2013-06-08T05:26:00Z</time>
      </trkpt>
      <trkpt lat="49.74697" lon="2.00135">
        <ele>140.13</ele>
        <time>2013-06-08T05:26:03Z</time>
      </trkpt>
      <trkpt lat="49.74701" lon="2.00152">
        <ele>141.37</ele>
        <time>2013-06-08T05:26:09Z</time>
      </trkpt>
      <trkpt lat="49.74704" lon="2.00161">
        <ele>141.43</ele>
        <time>2013-06-08T05:26:13Z</time>
      </trkpt>
      <trkpt lat="49.74727" lon="2.00163">
        <ele>144.83</ele>
        <time>2013-06-08T05:26:25Z</time>
      </trkpt>
      <trkpt lat="49.74745" lon="2.00162">
        <ele>148.09</ele>
        <time>2013-06-08T05:26:36Z</time>
      </trkpt>
      <trkpt lat="49.74759" lon="2.00162">
        <ele>150.95</ele>
        <time>2013-06-08T05:26:45Z</time>
      </trkpt>
      <trkpt lat="49.74762" lon="2.00163">
        <ele>151.61</ele>
        <time>2013-06-08T05:26:48Z</time>
      </trkpt>
      <trkpt lat="49.74768" lon="2.00195">
        <ele>152.39</ele>
        <time>2013-06-08T05:27:02Z</time>
      </trkpt>
      <trkpt lat="49.74774" lon="2.002">
        <ele>153.16</ele>
        <time>2013-06-08T05:27:09Z</time>
      </trkpt>
      <trkpt lat="49.74792" lon="2.002">
        <ele>156.7</ele>
        <time>2013-06-08T05:27:23Z</time>
      </trkpt>
      <trkpt lat="49.74809" lon="2.00195">
        <ele>159.7</ele>
        <time>2013-06-08T05:27:39Z</time>
      </trkpt>
      <trkpt lat="49.74813" lon="2.00201">
        <ele>160.98</ele>
        <time>2013-06-08T05:27:44Z</time>
      </trkpt>
      <trkpt lat="49.74816" lon="2.00208">
        <ele>161.23</ele>
        <time>2013-06-08T05:27:48Z</time>
      </trkpt>
      <trkpt lat="49.7482" lon="2.00239">
        <ele>160.71</ele>
        <time>2013-06-08T05:27:56Z</time>
      </trkpt>
      <trkpt lat="49.74818" lon="2.00306">
        <ele>159.96</ele>
        <time>2013-06-08T05:28:12Z</time>
      </trkpt>
      <trkpt lat="49.74814" lon="2.00361">
        <ele>158.96</ele>
        <time>2013-06-08T05:28:27Z</time>
      </trkpt>
      <trkpt lat="49.74813" lon="2.00398">
        <ele>158.61</ele>
        <time>2013-06-08T05:28:37Z</time>
      </trkpt>
      <trkpt lat="49.74812" lon="2.00451">
        <ele>158.16</ele>
        <time>2013-06-08T05:28:50Z</time>
      </trkpt>
      <trkpt lat="49.74811" lon="2.00493">
        <ele>158.05</ele>
        <time>2013-06-08T05:29:01Z</time>
      </trkpt>
      <trkpt lat="49.7481" lon="2.00503">
        <ele>158.33</ele>
        <time>2013-06-08T05:29:05Z</time>
      </trkpt>
      <trkpt lat="49.74795" lon="2.00502">
        <ele>155.15</ele>
        <time>2013-06-08T05:29:12Z</time>
      </trkpt>
      <trkpt lat="49.74791" lon="2.00504">
        <ele>153.84</ele>
        <time>2013-06-08T05:29:15Z</time>
      </trkpt>
      <trkpt lat="49.74783" lon="2.00514">
        <ele>152.44</ele>
        <time>2013-06-08T05:29:23Z</time>
      </trkpt>
      <trkpt lat="49.7477" lon="2.00522">
        <ele>150.02</ele>
        <time>2013-06-08T05:29:32Z</time>
      </trkpt>
      <trkpt lat="49.74759" lon="2.00558">
        <ele>148.78</ele>
        <time>2013-06-08T05:29:43Z</time>
      </trkpt>
      <trkpt lat="49.74752" lon="2.00603">
        <ele>148.87</ele>
        <time>2013-06-08T05:29:57Z</time>
      </trkpt>
      <trkpt lat="49.74748" lon="2.00654">
        <ele>147.09</ele>
        <time>2013-06-08T05:30:12Z</time>
      </trkpt>
      <trkpt lat="49.74749" lon="2.00676">
        <ele>148.54</ele>
        <time>2013-06-08T05:30:19Z</time>
      </trkpt>
      <trkpt lat="49.74751" lon="2.00678">
        <ele>149.28</ele>
        <time>2013-06-08T05:30:21Z</time>
      </trkpt>
      <trkpt lat="49.74756" lon="2.00699">
        <ele>150.52</ele>
        <time>2013-06-08T05:30:33Z</time>
      </trkpt>
      <trkpt lat="49.74762" lon="2.00722">
        <ele>151.07</ele>
        <time>2013-06-08T05:30:46Z</time>
      </trkpt>
      <trkpt lat="49.74765" lon="2.0073">
        <ele>151.61</ele>
        <time>2013-06-08T05:30:59Z</time>
      </trkpt>
      <trkpt lat="49.74767" lon="2.0073">
        <ele>151.86</ele>
        <time>2013-06-08T05:31:01Z</time>
      </trkpt>
      <trkpt lat="49.74789" lon="2.00724">
        <ele>155.1</ele>
        <time>2013-06-08T05:31:11Z</time>
      </trkpt>
      <trkpt lat="49.74807" lon="2.00723">
        <ele>158.13</ele>
        <time>2013-06-08T05:31:21Z</time>
      </trkpt>
      <trkpt lat="49.74809" lon="2.00723">
        <ele>158.33</ele>
        <time>2013-06-08T05:31:22Z</time>
      </trkpt>
      <trkpt lat="49.74808" lon="2.00736">
        <ele>158.7</ele>
        <time>2013-06-08T05:31:26Z</time>
      </trkpt>
      <trkpt lat="49.74812" lon="2.00787">
        <ele>157.92</ele>
        <time>2013-06-08T05:31:40Z</time>
      </trkpt>
      <trkpt lat="49.74809" lon="2.0084">
        <ele>156.67</ele>
        <time>2013-06-08T05:31:53Z</time>
      </trkpt>
      <trkpt lat="49.74805" lon="2.00894">
        <ele>155.31</ele>
        <time>2013-06-08T05:32:06Z</time>
      </trkpt>
      <trkpt lat="49.74794" lon="2.00951">
        <ele>153.18</ele>
        <time>2013-06-08T05:32:20Z</time>
      </trkpt>
      <trkpt lat="49.74787" lon="2.00996">
        <ele>151.69</ele>
        <time>2013-06-08T05:32:32Z</time>
      </trkpt>
      <trkpt lat="49.74781" lon="2.01053">
        <ele>150.8</ele>
        <time>2013-06-08T05:32:46Z</time>
      </trkpt>
      <trkpt lat="49.74776" lon="2.01106">
        <ele>150.09</ele>
        <time>2013-06-08T05:32:59Z</time>
      </trkpt>
      <trkpt lat="49.7479" lon="2.01152">
        <ele>149.64</ele>
        <time>2013-06-08T05:33:12Z</time>
      </trkpt>
      <trkpt lat="49.74795" lon="2.0119">
        <ele>149.3</ele>
        <time>2013-06-08T05:33:22Z</time>
      </trkpt>
      <trkpt lat="49.74799" lon="2.01236">
        <ele>148.32</ele>
        <time>2013-06-08T05:33:34Z</time>
      </trkpt>
      <trkpt lat="49.74809" lon="2.01295">
        <ele>146.65</ele>
        <time>2013-06-08T05:33:49Z</time>
      </trkpt>
      <trkpt lat="49.74823" lon="2.01343">
        <ele>145.94</ele>
        <time>2013-06-08T05:34:02Z</time>
      </trkpt>
      <trkpt lat="49.74844" lon="2.01389">
        <ele>145.92</ele>
        <time>2013-06-08T05:34:16Z</time>
      </trkpt>
      <trkpt lat="49.74852" lon="2.01399">
        <ele>146</ele>
        <time>2013-06-08T05:34:20Z</time>
      </trkpt>
      <trkpt lat="49.7486" lon="2.01404">
        <ele>146.26</ele>
        <time>2013-06-08T05:34:24Z</time>
      </trkpt>
      <trkpt lat="49.74871" lon="2.01389">
        <ele>148.16</ele>
        <time>2013-06-08T05:34:31Z</time>
      </trkpt>
      <trkpt lat="49.74887" lon="2.01358">
        <ele>151.7</ele>
        <time>2013-06-08T05:34:43Z</time>
      </trkpt>
      <trkpt lat="49.74893" lon="2.01347">
        <ele>153.59</ele>
        <time>2013-06-08T05:34:48Z</time>
      </trkpt>
      <trkpt lat="49.74915" lon="2.01327">
        <ele>156.31</ele>
        <time>2013-06-08T05:35:01Z</time>
      </trkpt>
      <trkpt lat="49.74932" lon="2.01307">
        <ele>159.64</ele>
        <time>2013-06-08T05:35:13Z</time>
      </trkpt>
      <trkpt lat="49.7495" lon="2.01287">
        <ele>162.89</ele>
        <time>2013-06-08T05:35:26Z</time>
      </trkpt>
      <trkpt lat="49.74965" lon="2.01258">
        <ele>165.48</ele>
        <time>2013-06-08T05:35:38Z</time>
      </trkpt>
      <trkpt lat="49.74955" lon="2.01224">
        <ele>166.8</ele>
        <time>2013-06-08T05:35:50Z</time>
      </trkpt>
      <trkpt lat="49.74942" lon="2.01193">
        <ele>166.61</ele>
        <time>2013-06-08T05:36:02Z</time>
      </trkpt>
      <trkpt lat="49.74932" lon="2.01161">
        <ele>166.69</ele>
        <time>2013-06-08T05:36:13Z</time>
      </trkpt>
      <trkpt lat="49.74919" lon="2.01117">
        <ele>166.97</ele>
        <time>2013-06-08T05:36:26Z</time>
      </trkpt>
      <trkpt lat="49.74915" lon="2.0106">
        <ele>168.49</ele>
        <time>2013-06-08T05:36:42Z</time>
      </trkpt>
      <trkpt lat="49.74943" lon="2.01038">
        <ele>171.27</ele>
        <time>2013-06-08T05:36:55Z</time>
      </trkpt>
      <trkpt lat="49.74974" lon="2.01027">
        <ele>172.69</ele>
        <time>2013-06-08T05:37:08Z</time>
      </trkpt>
      <trkpt lat="49.75006" lon="2.0102">
        <ele>173.56</ele>
        <time>2013-06-08T05:37:21Z</time>
      </trkpt>
      <trkpt lat="49.75038" lon="2.01001">
        <ele>174.63</ele>
        <time>2013-06-08T05:37:35Z</time>
      </trkpt>
      <trkpt lat="49.75073" lon="2.00989">
        <ele>174.2</ele>
        <time>2013-06-08T05:37:49Z</time>
      </trkpt>
      <trkpt lat="49.75101" lon="2.00976">
        <ele>174.34</ele>
        <time>2013-06-08T05:38:01Z</time>
      </trkpt>
      <trkpt lat="49.75129" lon="2.00963">
        <ele>174.19</ele>
        <time>2013-06-08T05:38:13Z</time>
      </trkpt>
      <trkpt lat="49.75162" lon="2.00952">
        <ele>174.05</ele>
        <time>2013-06-08T05:38:25Z</time>
      </trkpt>
      <trkpt lat="49.75201" lon="2.00933">
        <ele>173.21</ele>
        <time>2013-06-08T05:38:40Z</time>
      </trkpt>
      <trkpt lat="49.75238" lon="2.00917">
        <ele>172.49</ele>
        <time>2013-06-08T05:38:55Z</time>
      </trkpt>
      <trkpt lat="49.75273" lon="2.00902">
        <ele>172</ele>
        <time>2013-06-08T05:39:09Z</time>
      </trkpt>
      <trkpt lat="49.75315" lon="2.00887">
        <ele>170.38</ele>
        <time>2013-06-08T05:39:25Z</time>
      </trkpt>
      <trkpt lat="49.75351" lon="2.00876">
        <ele>169.74</ele>
        <time>2013-06-08T05:39:38Z</time>
      </trkpt>
      <trkpt lat="49.75381" lon="2.00862">
        <ele>167.57</ele>
        <time>2013-06-08T05:39:50Z</time>
      </trkpt>
      <trkpt lat="49.75417" lon="2.00853">
        <ele>166.74</ele>
        <time>2013-06-08T05:40:04Z</time>
      </trkpt>
      <trkpt lat="49.75425" lon="2.00868">
        <ele>167.14</ele>
        <time>2013-06-08T05:40:08Z</time>
      </trkpt>
      <trkpt lat="49.7544" lon="2.00923">
        <ele>164.01</ele>
        <time>2013-06-08T05:40:22Z</time>
      </trkpt>
      <trkpt lat="49.75447" lon="2.0096">
        <ele>162.7</ele>
        <time>2013-06-08T05:40:31Z</time>
      </trkpt>
      <trkpt lat="49.75449" lon="2.00977">
        <ele>161.39</ele>
        <time>2013-06-08T05:40:35Z</time>
      </trkpt>
      <trkpt lat="49.75455" lon="2.01035">
        <ele>158.36</ele>
        <time>2013-06-08T05:40:48Z</time>
      </trkpt>
      <trkpt lat="49.75461" lon="2.01069">
        <ele>155.93</ele>
        <time>2013-06-08T05:40:56Z</time>
      </trkpt>
      <trkpt lat="49.75468" lon="2.01129">
        <ele>153.18</ele>
        <time>2013-06-08T05:41:10Z</time>
      </trkpt>
      <trkpt lat="49.75471" lon="2.01179">
        <ele>152.5</ele>
        <time>2013-06-08T05:41:22Z</time>
      </trkpt>
      <trkpt lat="49.75464" lon="2.0123">
        <ele>149.44</ele>
        <time>2013-06-08T05:41:34Z</time>
      </trkpt>
      <trkpt lat="49.75455" lon="2.01296">
        <ele>146.52</ele>
        <time>2013-06-08T05:41:50Z</time>
      </trkpt>
      <trkpt lat="49.75445" lon="2.01345">
        <ele>144.33</ele>
        <time>2013-06-08T05:42:02Z</time>
      </trkpt>
      <trkpt lat="49.75438" lon="2.01386">
        <ele>142.35</ele>
        <time>2013-06-08T05:42:12Z</time>
      </trkpt>
      <trkpt lat="49.75433" lon="2.01429">
        <ele>140.66</ele>
        <time>2013-06-08T05:42:22Z</time>
      </trkpt>
      <trkpt lat="49.75431" lon="2.01485">
        <ele>138.55</ele>
        <time>2013-06-08T05:42:35Z</time>
      </trkpt>
      <trkpt lat="49.75422" lon="2.01537">
        <ele>136.05</ele>
        <time>2013-06-08T05:42:48Z</time>
      </trkpt>
      <trkpt lat="49.75417" lon="2.01582">
        <ele>133.07</ele>
        <time>2013-06-08T05:43:00Z</time>
      </trkpt>
      <trkpt lat="49.75408" lon="2.01626">
        <ele>130.83</ele>
        <time>2013-06-08T05:43:11Z</time>
      </trkpt>
      <trkpt lat="49.75397" lon="2.01671">
        <ele>129.09</ele>
        <time>2013-06-08T05:43:23Z</time>
      </trkpt>
      <trkpt lat="49.75391" lon="2.01714">
        <ele>128.41</ele>
        <time>2013-06-08T05:43:33Z</time>
      </trkpt>
      <trkpt lat="49.75382" lon="2.01755">
        <ele>126.79</ele>
        <time>2013-06-08T05:43:45Z</time>
      </trkpt>
      <trkpt lat="49.75375" lon="2.01809">
        <ele>125.69</ele>
        <time>2013-06-08T05:43:58Z</time>
      </trkpt>
      <trkpt lat="49.75365" lon="2.01884">
        <ele>123.79</ele>
        <time>2013-06-08T05:44:13Z</time>
      </trkpt>
      <trkpt lat="49.75356" lon="2.01936">
        <ele>122.7</ele>
        <time>2013-06-08T05:44:26Z</time>
      </trkpt>
      <trkpt lat="49.75334" lon="2.01972">
        <ele>119.75</ele>
        <time>2013-06-08T05:44:38Z</time>
      </trkpt>
      <trkpt lat="49.75313" lon="2.02003">
        <ele>116.7</ele>
        <time>2013-06-08T05:44:49Z</time>
      </trkpt>
      <trkpt lat="49.75297" lon="2.02041">
        <ele>113.55</ele>
        <time>2013-06-08T05:45:01Z</time>
      </trkpt>
      <trkpt lat="49.75285" lon="2.02077">
        <ele>110.32</ele>
        <time>2013-06-08T05:45:12Z</time>
      </trkpt>
      <trkpt lat="49.75276" lon="2.02117">
        <ele>107.66</ele>
        <time>2013-06-08T05:45:23Z</time>
      </trkpt>
      <trkpt lat="49.75261" lon="2.02164">
        <ele>104.32</ele>
        <time>2013-06-08T05:45:35Z</time>
      </trkpt>
      <trkpt lat="49.75251" lon="2.022">
        <ele>101.21</ele>
        <time>2013-06-08T05:45:45Z</time>
      </trkpt>
      <trkpt lat="49.75237" lon="2.02229">
        <ele>98.16</ele>
        <time>2013-06-08T05:45:54Z</time>
      </trkpt>
      <trkpt lat="49.75224" lon="2.0225">
        <ele>95.11</ele>
        <time>2013-06-08T05:46:01Z</time>
      </trkpt>
      <trkpt lat="49.75222" lon="2.02253">
        <ele>94.92</ele>
        <time>2013-06-08T05:46:02Z</time>
      </trkpt>
      <trkpt lat="49.75212" lon="2.02275">
        <ele>92.15</ele>
        <time>2013-06-08T05:46:09Z</time>
      </trkpt>
      <trkpt lat="49.75193" lon="2.02294">
        <ele>89.63</ele>
        <time>2013-06-08T05:46:19Z</time>
      </trkpt>
      <trkpt lat="49.75164" lon="2.02313">
        <ele>86.64</ele>
        <time>2013-06-08T05:46:31Z</time>
      </trkpt>
      <trkpt lat="49.75125" lon="2.02324">
        <ele>84.42</ele>
        <time>2013-06-08T05:46:44Z</time>
      </trkpt>
      <trkpt lat="49.75099" lon="2.02319">
        <ele>83.22</ele>
        <time>2013-06-08T05:46:56Z</time>
      </trkpt>
      <trkpt lat="49.7507" lon="2.02318">
        <ele>82.9</ele>
        <time>2013-06-08T05:47:08Z</time>
      </trkpt>
      <trkpt lat="49.7504" lon="2.02316">
        <ele>83.2</ele>
        <time>2013-06-08T05:47:20Z</time>
      </trkpt>
      <trkpt lat="49.75007" lon="2.02321">
        <ele>83.34</ele>
        <time>2013-06-08T05:47:31Z</time>
      </trkpt>
      <trkpt lat="49.74974" lon="2.0232">
        <ele>82.86</ele>
        <time>2013-06-08T05:47:43Z</time>
      </trkpt>
      <trkpt lat="49.74941" lon="2.02325">
        <ele>81.96</ele>
        <time>2013-06-08T05:47:57Z</time>
      </trkpt>
      <trkpt lat="49.7491" lon="2.02335">
        <ele>82.21</ele>
        <time>2013-06-08T05:48:09Z</time>
      </trkpt>
      <trkpt lat="49.74884" lon="2.02342">
        <ele>82.6</ele>
        <time>2013-06-08T05:48:20Z</time>
      </trkpt>
      <trkpt lat="49.74859" lon="2.02358">
        <ele>83.58</ele>
        <time>2013-06-08T05:48:31Z</time>
      </trkpt>
      <trkpt lat="49.74831" lon="2.02376">
        <ele>86.24</ele>
        <time>2013-06-08T05:48:44Z</time>
      </trkpt>
      <trkpt lat="49.74803" lon="2.02391">
        <ele>88.42</ele>
        <time>2013-06-08T05:48:56Z</time>
      </trkpt>
      <trkpt lat="49.74775" lon="2.02405">
        <ele>91.4</ele>
        <time>2013-06-08T05:49:08Z</time>
      </trkpt>
      <trkpt lat="49.74749" lon="2.02412">
        <ele>94.32</ele>
        <time>2013-06-08T05:49:19Z</time>
      </trkpt>
      <trkpt lat="49.74728" lon="2.02378">
        <ele>95.65</ele>
        <time>2013-06-08T05:49:32Z</time>
      </trkpt>
      <trkpt lat="49.7471" lon="2.02331">
        <ele>93.72</ele>
        <time>2013-06-08T05:49:46Z</time>
      </trkpt>
      <trkpt lat="49.74687" lon="2.02309">
        <ele>91.21</ele>
        <time>2013-06-08T05:49:57Z</time>
      </trkpt>
      <trkpt lat="49.74655" lon="2.02296">
        <ele>89.96</ele>
        <time>2013-06-08T05:50:10Z</time>
      </trkpt>
      <trkpt lat="49.74628" lon="2.02256">
        <ele>90.99</ele>
        <time>2013-06-08T05:50:24Z</time>
      </trkpt>
      <trkpt lat="49.7461" lon="2.02233">
        <ele>92.47</ele>
        <time>2013-06-08T05:50:34Z</time>
      </trkpt>
      <trkpt lat="49.74583" lon="2.02211">
        <ele>93.61</ele>
        <time>2013-06-08T05:50:47Z</time>
      </trkpt>
      <trkpt lat="49.74558" lon="2.02197">
        <ele>94.96</ele>
        <time>2013-06-08T05:51:00Z</time>
      </trkpt>
      <trkpt lat="49.74526" lon="2.02184">
        <ele>95.31</ele>
        <time>2013-06-08T05:51:13Z</time>
      </trkpt>
      <trkpt lat="49.74493" lon="2.02165">
        <ele>94.48</ele>
        <time>2013-06-08T05:51:27Z</time>
      </trkpt>
      <trkpt lat="49.74467" lon="2.02151">
        <ele>94.11</ele>
        <time>2013-06-08T05:51:40Z</time>
      </trkpt>
      <trkpt lat="49.74437" lon="2.02129">
        <ele>94.27</ele>
        <time>2013-06-08T05:51:54Z</time>
      </trkpt>
      <trkpt lat="49.74419" lon="2.02119">
        <ele>94.22</ele>
        <time>2013-06-08T05:52:03Z</time>
      </trkpt>
      <trkpt lat="49.74412" lon="2.02114">
        <ele>94.45</ele>
        <time>2013-06-08T05:52:06Z</time>
      </trkpt>
      <trkpt lat="49.7441" lon="2.02114">
        <ele>94.74</ele>
        <time>2013-06-08T05:52:07Z</time>
      </trkpt>
      <trkpt lat="49.74403" lon="2.02108">
        <ele>94.79</ele>
        <time>2013-06-08T05:52:11Z</time>
      </trkpt>
      <trkpt lat="49.74373" lon="2.02088">
        <ele>95.16</ele>
        <time>2013-06-08T05:52:22Z</time>
      </trkpt>
      <trkpt lat="49.74353" lon="2.02072">
        <ele>95.42</ele>
        <time>2013-06-08T05:52:31Z</time>
      </trkpt>
      <trkpt lat="49.74322" lon="2.02049">
        <ele>93.82</ele>
        <time>2013-06-08T05:52:45Z</time>
      </trkpt>
      <trkpt lat="49.74297" lon="2.02026">
        <ele>91.05</ele>
        <time>2013-06-08T05:52:57Z</time>
      </trkpt>
      <trkpt lat="49.74275" lon="2.01993">
        <ele>88.55</ele>
        <time>2013-06-08T05:53:09Z</time>
      </trkpt>
      <trkpt lat="49.74271" lon="2.01944">
        <ele>86.11</ele>
        <time>2013-06-08T05:53:19Z</time>
      </trkpt>
      <trkpt lat="49.7425" lon="2.01917">
        <ele>85.63</ele>
        <time>2013-06-08T05:53:29Z</time>
      </trkpt>
      <trkpt lat="49.74224" lon="2.01879">
        <ele>85.66</ele>
        <time>2013-06-08T05:53:43Z</time>
      </trkpt>
      <trkpt lat="49.74207" lon="2.01843">
        <ele>85.81</ele>
        <time>2013-06-08T05:53:54Z</time>
      </trkpt>
      <trkpt lat="49.74195" lon="2.01794">
        <ele>86.02</ele>
        <time>2013-06-08T05:54:06Z</time>
      </trkpt>
      <trkpt lat="49.74185" lon="2.01749">
        <ele>85.89</ele>
        <time>2013-06-08T05:54:18Z</time>
      </trkpt>
      <trkpt lat="49.74192" lon="2.01712">
        <ele>85.92</ele>
        <time>2013-06-08T05:54:29Z</time>
      </trkpt>
      <trkpt lat="49.74201" lon="2.01666">
        <ele>85.86</ele>
        <time>2013-06-08T05:54:42Z</time>
      </trkpt>
      <trkpt lat="49.7421" lon="2.01625">
        <ele>86.09</ele>
        <time>2013-06-08T05:54:54Z</time>
      </trkpt>
      <trkpt lat="49.74215" lon="2.01618">
        <ele>86.4</ele>
        <time>2013-06-08T05:54:57Z</time>
      </trkpt>
      <trkpt lat="49.7421" lon="2.01584">
        <ele>86.25</ele>
        <time>2013-06-08T05:55:08Z</time>
      </trkpt>
      <trkpt lat="49.74193" lon="2.01556">
        <ele>86.24</ele>
        <time>2013-06-08T05:55:18Z</time>
      </trkpt>
      <trkpt lat="49.74168" lon="2.01526">
        <ele>86.42</ele>
        <time>2013-06-08T05:55:30Z</time>
      </trkpt>
      <trkpt lat="49.74145" lon="2.01504">
        <ele>86.47</ele>
        <time>2013-06-08T05:55:41Z</time>
      </trkpt>
      <trkpt lat="49.74121" lon="2.01473">
        <ele>86.86</ele>
        <time>2013-06-08T05:55:54Z</time>
      </trkpt>
      <trkpt lat="49.74091" lon="2.01433">
        <ele>86.93</ele>
        <time>2013-06-08T05:56:11Z</time>
      </trkpt>
      <trkpt lat="49.74068" lon="2.014">
        <ele>86.88</ele>
        <time>2013-06-08T05:56:24Z</time>
      </trkpt>
      <trkpt lat="49.74043" lon="2.01358">
        <ele>87.62</ele>
        <time>2013-06-08T05:56:39Z</time>
      </trkpt>
      <trkpt lat="49.74019" lon="2.01324">
        <ele>87.18</ele>
        <time>2013-06-08T05:56:52Z</time>
      </trkpt>
      <trkpt lat="49.73996" lon="2.01287">
        <ele>87.03</ele>
        <time>2013-06-08T05:57:06Z</time>
      </trkpt>
      <trkpt lat="49.73983" lon="2.01274">
        <ele>87.88</ele>
        <time>2013-06-08T05:57:16Z</time>
      </trkpt>
      <trkpt lat="49.73972" lon="2.01266">
        <ele>87.79</ele>
        <time>2013-06-08T05:57:28Z</time>
      </trkpt>
      <trkpt lat="49.73963" lon="2.01214">
        <ele>88.26</ele>
        <time>2013-06-08T05:57:45Z</time>
      </trkpt>
      <trkpt lat="49.73964" lon="2.01211">
        <ele>88.23</ele>
        <time>2013-06-08T05:57:48Z</time>
      </trkpt>
      <trkpt lat="49.73964" lon="2.01193">
        <ele>88</ele>
        <time>2013-06-08T05:58:04Z</time>
      </trkpt>
      <trkpt lat="49.73962" lon="2.01189">
        <ele>88.13</ele>
        <time>2013-06-08T05:58:24Z</time>
      </trkpt>
      <trkpt lat="49.73948" lon="2.01156">
        <ele>88.21</ele>
        <time>2013-06-08T05:58:35Z</time>
      </trkpt>
      <trkpt lat="49.73944" lon="2.01148">
        <ele>88.13</ele>
        <time>2013-06-08T05:58:40Z</time>
      </trkpt>
      <trkpt lat="49.73936" lon="2.01138">
        <ele>88.5</ele>
        <time>2013-06-08T05:58:46Z</time>
      </trkpt>
      <trkpt lat="49.73928" lon="2.01125">
        <ele>88.42</ele>
        <time>2013-06-08T05:58:52Z</time>
      </trkpt>
      <trkpt lat="49.73924" lon="2.01117">
        <ele>88.42</ele>
        <time>2013-06-08T05:58:58Z</time>
      </trkpt>
      <trkpt lat="49.7392" lon="2.0111">
        <ele>88.38</ele>
        <time>2013-06-08T05:59:02Z</time>
      </trkpt>
      <trkpt lat="49.73909" lon="2.01092">
        <ele>88.57</ele>
        <time>2013-06-08T05:59:09Z</time>
      </trkpt>
      <trkpt lat="49.73905" lon="2.01079">
        <ele>88.5</ele>
        <time>2013-06-08T05:59:21Z</time>
      </trkpt>
      <trkpt lat="49.73894" lon="2.01052">
        <ele>88.71</ele>
        <time>2013-06-08T05:59:32Z</time>
      </trkpt>
      <trkpt lat="49.73888" lon="2.01025">
        <ele>88.5</ele>
        <time>2013-06-08T05:59:44Z</time>
      </trkpt>
      <trkpt lat="49.73886" lon="2.01018">
        <ele>88.64</ele>
        <time>2013-06-08T05:59:46Z</time>
      </trkpt>
      <trkpt lat="49.73879" lon="2.01005">
        <ele>88.59</ele>
        <time>2013-06-08T05:59:51Z</time>
      </trkpt>
      <trkpt lat="49.73872" lon="2.00973">
        <ele>88.45</ele>
        <time>2013-06-08T06:00:01Z</time>
      </trkpt>
      <trkpt lat="49.7387" lon="2.00957">
        <ele>88.54</ele>
        <time>2013-06-08T06:00:06Z</time>
      </trkpt>
      <trkpt lat="49.73865" lon="2.00909">
        <ele>88.81</ele>
        <time>2013-06-08T06:00:19Z</time>
      </trkpt>
      <trkpt lat="49.73874" lon="2.0086">
        <ele>89.7</ele>
        <time>2013-06-08T06:00:33Z</time>
      </trkpt>
      <trkpt lat="49.73898" lon="2.0082">
        <ele>89.23</ele>
        <time>2013-06-08T06:00:46Z</time>
      </trkpt>
      <trkpt lat="49.73901" lon="2.00808">
        <ele>89.25</ele>
        <time>2013-06-08T06:00:52Z</time>
      </trkpt>
      <trkpt lat="49.73901" lon="2.00799">
        <ele>89.22</ele>
        <time>2013-06-08T06:00:55Z</time>
      </trkpt>
      <trkpt lat="49.73901" lon="2.00785">
        <ele>89.5</ele>
        <time>2013-06-08T06:01:06Z</time>
      </trkpt>
      <trkpt lat="49.73901" lon="2.00774">
        <ele>89.92</ele>
        <time>2013-06-08T06:01:19Z</time>
      </trkpt>
      <trkpt lat="49.73894" lon="2.00747">
        <ele>89.46</ele>
        <time>2013-06-08T06:01:28Z</time>
      </trkpt>
      <trkpt lat="49.73893" lon="2.00743">
        <ele>89.58</ele>
        <time>2013-06-08T06:01:31Z</time>
      </trkpt>
      <trkpt lat="49.73894" lon="2.0073">
        <ele>89.37</ele>
        <time>2013-06-08T06:01:36Z</time>
      </trkpt>
      <trkpt lat="49.7388" lon="2.00697">
        <ele>89.65</ele>
        <time>2013-06-08T06:01:48Z</time>
      </trkpt>
      <trkpt lat="49.7388" lon="2.00695">
        <ele>89.64</ele>
        <time>2013-06-08T06:01:49Z</time>
      </trkpt>
      <trkpt lat="49.73868" lon="2.00669">
        <ele>89.65</ele>
        <time>2013-06-08T06:01:59Z</time>
      </trkpt>
      <trkpt lat="49.73846" lon="2.00639">
        <ele>90</ele>
        <time>2013-06-08T06:02:12Z</time>
      </trkpt>
      <trkpt lat="49.73834" lon="2.00617">
        <ele>89.9</ele>
        <time>2013-06-08T06:02:20Z</time>
      </trkpt>
      <trkpt lat="49.73833" lon="2.0061">
        <ele>90.17</ele>
        <time>2013-06-08T06:02:22Z</time>
      </trkpt>
      <trkpt lat="49.73813" lon="2.00589">
        <ele>90.12</ele>
        <time>2013-06-08T06:02:33Z</time>
      </trkpt>
      <trkpt lat="49.73796" lon="2.00561">
        <ele>89.85</ele>
        <time>2013-06-08T06:02:44Z</time>
      </trkpt>
      <trkpt lat="49.73789" lon="2.00532">
        <ele>90.23</ele>
        <time>2013-06-08T06:02:53Z</time>
      </trkpt>
      <trkpt lat="49.7379" lon="2.00512">
        <ele>90.37</ele>
        <time>2013-06-08T06:02:58Z</time>
      </trkpt>
      <trkpt lat="49.73785" lon="2.00456">
        <ele>90.56</ele>
        <time>2013-06-08T06:03:12Z</time>
      </trkpt>
      <trkpt lat="49.73775" lon="2.00408">
        <ele>90.77</ele>
        <time>2013-06-08T06:03:24Z</time>
      </trkpt>
      <trkpt lat="49.73764" lon="2.00369">
        <ele>90.86</ele>
        <time>2013-06-08T06:03:35Z</time>
      </trkpt>
      <trkpt lat="49.73753" lon="2.00346">
        <ele>91.36</ele>
        <time>2013-06-08T06:03:47Z</time>
      </trkpt>
      <trkpt lat="49.73745" lon="2.00346">
        <ele>92.49</ele>
        <time>2013-06-08T06:03:52Z</time>
      </trkpt>
      <trkpt lat="49.73724" lon="2.00318">
        <ele>91.16</ele>
        <time>2013-06-08T06:04:05Z</time>
      </trkpt>
      <trkpt lat="49.73716" lon="2.00286">
        <ele>91.21</ele>
        <time>2013-06-08T06:04:14Z</time>
      </trkpt>
      <trkpt lat="49.73721" lon="2.00224">
        <ele>91.29</ele>
        <time>2013-06-08T06:04:29Z</time>
      </trkpt>
      <trkpt lat="49.73722" lon="2.00165">
        <ele>91.6</ele>
        <time>2013-06-08T06:04:43Z</time>
      </trkpt>
      <trkpt lat="49.73714" lon="2.00111">
        <ele>91.59</ele>
        <time>2013-06-08T06:04:55Z</time>
      </trkpt>
      <trkpt lat="49.73703" lon="2.00068">
        <ele>92.03</ele>
        <time>2013-06-08T06:05:06Z</time>
      </trkpt>
      <trkpt lat="49.73691" lon="2.00009">
        <ele>92.41</ele>
        <time>2013-06-08T06:05:20Z</time>
      </trkpt>
      <trkpt lat="49.73678" lon="1.99959">
        <ele>92.19</ele>
        <time>2013-06-08T06:05:32Z</time>
      </trkpt>
      <trkpt lat="49.73674" lon="1.99941">
        <ele>92.29</ele>
        <time>2013-06-08T06:05:36Z</time>
      </trkpt>
      <trkpt lat="49.73673" lon="1.99905">
        <ele>92.55</ele>
        <time>2013-06-08T06:05:46Z</time>
      </trkpt>
      <trkpt lat="49.73669" lon="1.9986">
        <ele>93.14</ele>
        <time>2013-06-08T06:05:58Z</time>
      </trkpt>
      <trkpt lat="49.73661" lon="1.99806">
        <ele>93.81</ele>
        <time>2013-06-08T06:06:12Z</time>
      </trkpt>
      <trkpt lat="49.73654" lon="1.99764">
        <ele>94.04</ele>
        <time>2013-06-08T06:06:24Z</time>
      </trkpt>
      <trkpt lat="49.73646" lon="1.99713">
        <ele>94.32</ele>
        <time>2013-06-08T06:06:37Z</time>
      </trkpt>
      <trkpt lat="49.73632" lon="1.99684">
        <ele>94.81</ele>
        <time>2013-06-08T06:06:47Z</time>
      </trkpt>
      <trkpt lat="49.73612" lon="1.99663">
        <ele>95.42</ele>
        <time>2013-06-08T06:06:58Z</time>
      </trkpt>
      <trkpt lat="49.73581" lon="1.9965">
        <ele>96.65</ele>
        <time>2013-06-08T06:07:11Z</time>
      </trkpt>
      <trkpt lat="49.73556" lon="1.99632">
        <ele>97.99</ele>
        <time>2013-06-08T06:07:23Z</time>
      </trkpt>
      <trkpt lat="49.73539" lon="1.99591">
        <ele>99.89</ele>
        <time>2013-06-08T06:07:35Z</time>
      </trkpt>
      <trkpt lat="49.73527" lon="1.9954">
        <ele>100.47</ele>
        <time>2013-06-08T06:07:49Z</time>
      </trkpt>
      <trkpt lat="49.73511" lon="1.99492">
        <ele>99.47</ele>
        <time>2013-06-08T06:08:03Z</time>
      </trkpt>
      <trkpt lat="49.7349" lon="1.9945">
        <ele>99.13</ele>
        <time>2013-06-08T06:08:17Z</time>
      </trkpt>
      <trkpt lat="49.73474" lon="1.99417">
        <ele>98.79</ele>
        <time>2013-06-08T06:08:27Z</time>
      </trkpt>
      <trkpt lat="49.7345" lon="1.99379">
        <ele>98.44</ele>
        <time>2013-06-08T06:08:40Z</time>
      </trkpt>
      <trkpt lat="49.73425" lon="1.99345">
        <ele>98.69</ele>
        <time>2013-06-08T06:08:53Z</time>
      </trkpt>
      <trkpt lat="49.73396" lon="1.9933">
        <ele>99.49</ele>
        <time>2013-06-08T06:09:06Z</time>
      </trkpt>
      <trkpt lat="49.73367" lon="1.99325">
        <ele>101.7</ele>
        <time>2013-06-08T06:09:20Z</time>
      </trkpt>
      <trkpt lat="49.73345" lon="1.99338">
        <ele>104.85</ele>
        <time>2013-06-08T06:09:32Z</time>
      </trkpt>
      <trkpt lat="49.73326" lon="1.99341">
        <ele>107.5</ele>
        <time>2013-06-08T06:09:43Z</time>
      </trkpt>
      <trkpt lat="49.73304" lon="1.99346">
        <ele>109.88</ele>
        <time>2013-06-08T06:09:54Z</time>
      </trkpt>
      <trkpt lat="49.73291" lon="1.99363">
        <ele>113.08</ele>
        <time>2013-06-08T06:10:04Z</time>
      </trkpt>
      <trkpt lat="49.73291" lon="1.99403">
        <ele>116.14</ele>
        <time>2013-06-08T06:10:17Z</time>
      </trkpt>
      <trkpt lat="49.73289" lon="1.99428">
        <ele>117.72</ele>
        <time>2013-06-08T06:10:25Z</time>
      </trkpt>
      <trkpt lat="49.73263" lon="1.99436">
        <ele>120.8</ele>
        <time>2013-06-08T06:10:38Z</time>
      </trkpt>
      <trkpt lat="49.7324" lon="1.99436">
        <ele>123.86</ele>
        <time>2013-06-08T06:10:50Z</time>
      </trkpt>
      <trkpt lat="49.73211" lon="1.99442">
        <ele>126.56</ele>
        <time>2013-06-08T06:11:04Z</time>
      </trkpt>
      <trkpt lat="49.73182" lon="1.99448">
        <ele>128.14</ele>
        <time>2013-06-08T06:11:18Z</time>
      </trkpt>
      <trkpt lat="49.73151" lon="1.99458">
        <ele>130.37</ele>
        <time>2013-06-08T06:11:31Z</time>
      </trkpt>
      <trkpt lat="49.73122" lon="1.99466">
        <ele>131.91</ele>
        <time>2013-06-08T06:11:45Z</time>
      </trkpt>
      <trkpt lat="49.73089" lon="1.99466">
        <ele>133.88</ele>
        <time>2013-06-08T06:12:00Z</time>
      </trkpt>
      <trkpt lat="49.73073" lon="1.99458">
        <ele>135.13</ele>
        <time>2013-06-08T06:12:08Z</time>
      </trkpt>
      <trkpt lat="49.73068" lon="1.99453">
        <ele>135.63</ele>
        <time>2013-06-08T06:12:11Z</time>
      </trkpt>
      <trkpt lat="49.73046" lon="1.99434">
        <ele>137.32</ele>
        <time>2013-06-08T06:12:24Z</time>
      </trkpt>
      <trkpt lat="49.73028" lon="1.99422">
        <ele>139</ele>
        <time>2013-06-08T06:12:34Z</time>
      </trkpt>
      <trkpt lat="49.73004" lon="1.99409">
        <ele>141.21</ele>
        <time>2013-06-08T06:12:46Z</time>
      </trkpt>
      <trkpt lat="49.72979" lon="1.99402">
        <ele>144.44</ele>
        <time>2013-06-08T06:13:01Z</time>
      </trkpt>
      <trkpt lat="49.72957" lon="1.99413">
        <ele>147.49</ele>
        <time>2013-06-08T06:13:14Z</time>
      </trkpt>
      <trkpt lat="49.72935" lon="1.99433">
        <ele>150.65</ele>
        <time>2013-06-08T06:13:27Z</time>
      </trkpt>
      <trkpt lat="49.72926" lon="1.99443">
        <ele>153.99</ele>
        <time>2013-06-08T06:13:36Z</time>
      </trkpt>
      <trkpt lat="49.72916" lon="1.99452">
        <ele>156.87</ele>
        <time>2013-06-08T06:13:45Z</time>
      </trkpt>
      <trkpt lat="49.72906" lon="1.99455">
        <ele>158.2</ele>
        <time>2013-06-08T06:13:51Z</time>
      </trkpt>
      <trkpt lat="49.72902" lon="1.99456">
        <ele>158.78</ele>
        <time>2013-06-08T06:13:53Z</time>
      </trkpt>
      <trkpt lat="49.72863" lon="1.99439">
        <ele>161.29</ele>
        <time>2013-06-08T06:14:09Z</time>
      </trkpt>
      <trkpt lat="49.72835" lon="1.99416">
        <ele>162.43</ele>
        <time>2013-06-08T06:14:22Z</time>
      </trkpt>
      <trkpt lat="49.72809" lon="1.99392">
        <ele>163.33</ele>
        <time>2013-06-08T06:14:35Z</time>
      </trkpt>
      <trkpt lat="49.7279" lon="1.99361">
        <ele>163.68</ele>
        <time>2013-06-08T06:14:47Z</time>
      </trkpt>
      <trkpt lat="49.72768" lon="1.99333">
        <ele>164.23</ele>
        <time>2013-06-08T06:14:59Z</time>
      </trkpt>
      <trkpt lat="49.72747" lon="1.99312">
        <ele>166.07</ele>
        <time>2013-06-08T06:15:13Z</time>
      </trkpt>
      <trkpt lat="49.72737" lon="1.9931">
        <ele>168.1</ele>
        <time>2013-06-08T06:15:20Z</time>
      </trkpt>
      <trkpt lat="49.72707" lon="1.99313">
        <ele>170.97</ele>
        <time>2013-06-08T06:15:35Z</time>
      </trkpt>
      <trkpt lat="49.72681" lon="1.99319">
        <ele>173.55</ele>
        <time>2013-06-08T06:15:48Z</time>
      </trkpt>
      <trkpt lat="49.72648" lon="1.99326">
        <ele>175.72</ele>
        <time>2013-06-08T06:16:03Z</time>
      </trkpt>
      <trkpt lat="49.72619" lon="1.99341">
        <ele>177.23</ele>
        <time>2013-06-08T06:16:16Z</time>
      </trkpt>
      <trkpt lat="49.72586" lon="1.99354">
        <ele>178.39</ele>
        <time>2013-06-08T06:16:29Z</time>
      </trkpt>
      <trkpt lat="49.72574" lon="1.99353">
        <ele>178.07</ele>
        <time>2013-06-08T06:16:34Z</time>
      </trkpt>
      <trkpt lat="49.72565" lon="1.99338">
        <ele>178.24</ele>
        <time>2013-06-08T06:16:39Z</time>
      </trkpt>
      <trkpt lat="49.72552" lon="1.99293">
        <ele>178.49</ele>
        <time>2013-06-08T06:16:53Z</time>
      </trkpt>
      <trkpt lat="49.72543" lon="1.99246">
        <ele>177.92</ele>
        <time>2013-06-08T06:17:06Z</time>
      </trkpt>
      <trkpt lat="49.72528" lon="1.99202">
        <ele>177.3</ele>
        <time>2013-06-08T06:17:19Z</time>
      </trkpt>
      <trkpt lat="49.72524" lon="1.99178">
        <ele>177.6</ele>
        <time>2013-06-08T06:17:26Z</time>
      </trkpt>
      <trkpt lat="49.72518" lon="1.99167">
        <ele>176.98</ele>
        <time>2013-06-08T06:17:30Z</time>
      </trkpt>
      <trkpt lat="49.7249" lon="1.9912">
        <ele>175.99</ele>
        <time>2013-06-08T06:17:44Z</time>
      </trkpt>
      <trkpt lat="49.72473" lon="1.99081">
        <ele>174.9</ele>
        <time>2013-06-08T06:17:56Z</time>
      </trkpt>
      <trkpt lat="49.72457" lon="1.99045">
        <ele>175.01</ele>
        <time>2013-06-08T06:18:07Z</time>
      </trkpt>
      <trkpt lat="49.72435" lon="1.99023">
        <ele>174.97</ele>
        <time>2013-06-08T06:18:19Z</time>
      </trkpt>
      <trkpt lat="49.72427" lon="1.99012">
        <ele>175.22</ele>
        <time>2013-06-08T06:18:24Z</time>
      </trkpt>
      <trkpt lat="49.72405" lon="1.98974">
        <ele>174.13</ele>
        <time>2013-06-08T06:18:37Z</time>
      </trkpt>
      <trkpt lat="49.72388" lon="1.98936">
        <ele>173.21</ele>
        <time>2013-06-08T06:18:49Z</time>
      </trkpt>
      <trkpt lat="49.72382" lon="1.98927">
        <ele>172.65</ele>
        <time>2013-06-08T06:18:53Z</time>
      </trkpt>
      <trkpt lat="49.72381" lon="1.98925">
        <ele>172.65</ele>
        <time>2013-06-08T06:18:54Z</time>
      </trkpt>
      <trkpt lat="49.7236" lon="1.98893">
        <ele>172.74</ele>
        <time>2013-06-08T06:19:08Z</time>
      </trkpt>
      <trkpt lat="49.7233" lon="1.98847">
        <ele>172.25</ele>
        <time>2013-06-08T06:19:21Z</time>
      </trkpt>
      <trkpt lat="49.72303" lon="1.98811">
        <ele>171.25</ele>
        <time>2013-06-08T06:19:34Z</time>
      </trkpt>
      <trkpt lat="49.72268" lon="1.98779">
        <ele>172.38</ele>
        <time>2013-06-08T06:19:49Z</time>
      </trkpt>
      <trkpt lat="49.72242" lon="1.98757">
        <ele>172.92</ele>
        <time>2013-06-08T06:20:01Z</time>
      </trkpt>
      <trkpt lat="49.72219" lon="1.98728">
        <ele>173.01</ele>
        <time>2013-06-08T06:20:12Z</time>
      </trkpt>
      <trkpt lat="49.722" lon="1.98709">
        <ele>173.44</ele>
        <time>2013-06-08T06:20:23Z</time>
      </trkpt>
      <trkpt lat="49.72175" lon="1.98657">
        <ele>172.2</ele>
        <time>2013-06-08T06:20:37Z</time>
      </trkpt>
      <trkpt lat="49.72161" lon="1.98599">
        <ele>170.41</ele>
        <time>2013-06-08T06:20:50Z</time>
      </trkpt>
      <trkpt lat="49.72152" lon="1.98553">
        <ele>167.24</ele>
        <time>2013-06-08T06:21:03Z</time>
      </trkpt>
      <trkpt lat="49.7213" lon="1.98525">
        <ele>168.03</ele>
        <time>2013-06-08T06:21:13Z</time>
      </trkpt>
      <trkpt lat="49.72102" lon="1.98501">
        <ele>170.21</ele>
        <time>2013-06-08T06:21:28Z</time>
      </trkpt>
      <trkpt lat="49.72074" lon="1.98493">
        <ele>173.24</ele>
        <time>2013-06-08T06:21:41Z</time>
      </trkpt>
      <trkpt lat="49.72051" lon="1.98484">
        <ele>174.25</ele>
        <time>2013-06-08T06:21:49Z</time>
      </trkpt>
      <trkpt lat="49.72054" lon="1.98469">
        <ele>172.38</ele>
        <time>2013-06-08T06:22:00Z</time>
      </trkpt>
      <trkpt lat="49.72058" lon="1.98467">
        <ele>170.93</ele>
        <time>2013-06-08T06:22:04Z</time>
      </trkpt>
      <trkpt lat="49.72077" lon="1.98459">
        <ele>168.32</ele>
        <time>2013-06-08T06:22:18Z</time>
      </trkpt>
      <trkpt lat="49.72083" lon="1.98457">
        <ele>167.51</ele>
        <time>2013-06-08T06:22:21Z</time>
      </trkpt>
      <trkpt lat="49.72104" lon="1.98459">
        <ele>164.2</ele>
        <time>2013-06-08T06:22:33Z</time>
      </trkpt>
      <trkpt lat="49.72137" lon="1.98471">
        <ele>161.48</ele>
        <time>2013-06-08T06:22:47Z</time>
      </trkpt>
      <trkpt lat="49.72167" lon="1.98485">
        <ele>158.26</ele>
        <time>2013-06-08T06:22:59Z</time>
      </trkpt>
      <trkpt lat="49.72196" lon="1.98495">
        <ele>155.23</ele>
        <time>2013-06-08T06:23:11Z</time>
      </trkpt>
      <trkpt lat="49.7222" lon="1.98507">
        <ele>152.03</ele>
        <time>2013-06-08T06:23:20Z</time>
      </trkpt>
      <trkpt lat="49.7225" lon="1.98518">
        <ele>148.74</ele>
        <time>2013-06-08T06:23:31Z</time>
      </trkpt>
      <trkpt lat="49.7227" lon="1.98531">
        <ele>145.55</ele>
        <time>2013-06-08T06:23:41Z</time>
      </trkpt>
      <trkpt lat="49.72294" lon="1.98536">
        <ele>142.38</ele>
        <time>2013-06-08T06:23:53Z</time>
      </trkpt>
      <trkpt lat="49.72306" lon="1.98538">
        <ele>140.44</ele>
        <time>2013-06-08T06:23:58Z</time>
      </trkpt>
      <trkpt lat="49.72325" lon="1.98543">
        <ele>137.97</ele>
        <time>2013-06-08T06:24:06Z</time>
      </trkpt>
      <trkpt lat="49.72354" lon="1.98542">
        <ele>134.74</ele>
        <time>2013-06-08T06:24:18Z</time>
      </trkpt>
      <trkpt lat="49.72356" lon="1.9854">
        <ele>135.8</ele>
        <time>2013-06-08T06:24:24Z</time>
      </trkpt>
      <trkpt lat="49.72345" lon="1.98516">
        <ele>133.1</ele>
        <time>2013-06-08T06:24:40Z</time>
      </trkpt>
      <trkpt lat="49.72336" lon="1.98476">
        <ele>130.05</ele>
        <time>2013-06-08T06:24:50Z</time>
      </trkpt>
      <trkpt lat="49.72335" lon="1.98472">
        <ele>129.94</ele>
        <time>2013-06-08T06:24:51Z</time>
      </trkpt>
      <trkpt lat="49.72313" lon="1.98457">
        <ele>130.87</ele>
        <time>2013-06-08T06:25:03Z</time>
      </trkpt>
      <trkpt lat="49.72291" lon="1.98433">
        <ele>132.57</ele>
        <time>2013-06-08T06:25:15Z</time>
      </trkpt>
      <trkpt lat="49.72289" lon="1.98424">
        <ele>132.41</ele>
        <time>2013-06-08T06:25:17Z</time>
      </trkpt>
      <trkpt lat="49.7228" lon="1.98403">
        <ele>132.4</ele>
        <time>2013-06-08T06:25:23Z</time>
      </trkpt>
      <trkpt lat="49.72269" lon="1.9836">
        <ele>130.55</ele>
        <time>2013-06-08T06:25:37Z</time>
      </trkpt>
      <trkpt lat="49.72255" lon="1.9831">
        <ele>129.2</ele>
        <time>2013-06-08T06:25:50Z</time>
      </trkpt>
      <trkpt lat="49.72241" lon="1.98274">
        <ele>128.98</ele>
        <time>2013-06-08T06:26:02Z</time>
      </trkpt>
      <trkpt lat="49.72226" lon="1.98237">
        <ele>128.6</ele>
        <time>2013-06-08T06:26:15Z</time>
      </trkpt>
      <trkpt lat="49.72225" lon="1.98188">
        <ele>127.3</ele>
        <time>2013-06-08T06:26:27Z</time>
      </trkpt>
      <trkpt lat="49.72222" lon="1.9816">
        <ele>126.4</ele>
        <time>2013-06-08T06:26:34Z</time>
      </trkpt>
      <trkpt lat="49.72207" lon="1.98124">
        <ele>126.26</ele>
        <time>2013-06-08T06:26:45Z</time>
      </trkpt>
      <trkpt lat="49.72184" lon="1.98092">
        <ele>128.6</ele>
        <time>2013-06-08T06:26:58Z</time>
      </trkpt>
      <trkpt lat="49.72165" lon="1.9807">
        <ele>129.89</ele>
        <time>2013-06-08T06:27:09Z</time>
      </trkpt>
      <trkpt lat="49.72145" lon="1.98023">
        <ele>132.18</ele>
        <time>2013-06-08T06:27:25Z</time>
      </trkpt>
      <trkpt lat="49.72124" lon="1.97999">
        <ele>135.29</ele>
        <time>2013-06-08T06:27:38Z</time>
      </trkpt>
      <trkpt lat="49.72114" lon="1.97986">
        <ele>136.41</ele>
        <time>2013-06-08T06:27:44Z</time>
      </trkpt>
      <trkpt lat="49.72112" lon="1.97934">
        <ele>136.19</ele>
        <time>2013-06-08T06:27:58Z</time>
      </trkpt>
      <trkpt lat="49.72095" lon="1.97879">
        <ele>136.61</ele>
        <time>2013-06-08T06:28:14Z</time>
      </trkpt>
      <trkpt lat="49.7208" lon="1.97847">
        <ele>138.16</ele>
        <time>2013-06-08T06:28:25Z</time>
      </trkpt>
      <trkpt lat="49.72062" lon="1.97815">
        <ele>141.11</ele>
        <time>2013-06-08T06:28:38Z</time>
      </trkpt>
      <trkpt lat="49.72043" lon="1.97776">
        <ele>142.61</ele>
        <time>2013-06-08T06:28:52Z</time>
      </trkpt>
      <trkpt lat="49.72041" lon="1.97771">
        <ele>143.31</ele>
        <time>2013-06-08T06:28:54Z</time>
      </trkpt>
      <trkpt lat="49.72032" lon="1.97761">
        <ele>143.5</ele>
        <time>2013-06-08T06:28:59Z</time>
      </trkpt>
      <trkpt lat="49.72033" lon="1.97739">
        <ele>142.82</ele>
        <time>2013-06-08T06:29:05Z</time>
      </trkpt>
      <trkpt lat="49.72059" lon="1.97716">
        <ele>139.3</ele>
        <time>2013-06-08T06:29:18Z</time>
      </trkpt>
      <trkpt lat="49.72078" lon="1.97686">
        <ele>136.04</ele>
        <time>2013-06-08T06:29:29Z</time>
      </trkpt>
      <trkpt lat="49.72079" lon="1.97683">
        <ele>135.95</ele>
        <time>2013-06-08T06:29:30Z</time>
      </trkpt>
      <trkpt lat="49.72068" lon="1.97672">
        <ele>137.48</ele>
        <time>2013-06-08T06:29:41Z</time>
      </trkpt>
      <trkpt lat="49.72044" lon="1.97659">
        <ele>139.46</ele>
        <time>2013-06-08T06:29:54Z</time>
      </trkpt>
      <trkpt lat="49.72021" lon="1.9765">
        <ele>141.94</ele>
        <time>2013-06-08T06:30:06Z</time>
      </trkpt>
      <trkpt lat="49.71996" lon="1.97639">
        <ele>145.04</ele>
        <time>2013-06-08T06:30:19Z</time>
      </trkpt>
      <trkpt lat="49.71972" lon="1.97631">
        <ele>147.2</ele>
        <time>2013-06-08T06:30:32Z</time>
      </trkpt>
      <trkpt lat="49.7194" lon="1.97635">
        <ele>149.98</ele>
        <time>2013-06-08T06:30:47Z</time>
      </trkpt>
      <trkpt lat="49.71918" lon="1.97634">
        <ele>153.18</ele>
        <time>2013-06-08T06:31:00Z</time>
      </trkpt>
      <trkpt lat="49.71905" lon="1.97629">
        <ele>156.25</ele>
        <time>2013-06-08T06:31:10Z</time>
      </trkpt>
      <trkpt lat="49.71902" lon="1.97627">
        <ele>156.91</ele>
        <time>2013-06-08T06:31:12Z</time>
      </trkpt>
      <trkpt lat="49.71883" lon="1.97605">
        <ele>160</ele>
        <time>2013-06-08T06:31:24Z</time>
      </trkpt>
      <trkpt lat="49.71879" lon="1.97595">
        <ele>161.33</ele>
        <time>2013-06-08T06:31:27Z</time>
      </trkpt>
      <trkpt lat="49.71873" lon="1.97575">
        <ele>162.82</ele>
        <time>2013-06-08T06:31:32Z</time>
      </trkpt>
      <trkpt lat="49.71861" lon="1.97543">
        <ele>165.1</ele>
        <time>2013-06-08T06:31:44Z</time>
      </trkpt>
      <trkpt lat="49.7186" lon="1.97541">
        <ele>165.56</ele>
        <time>2013-06-08T06:31:45Z</time>
      </trkpt>
      <trkpt lat="49.71853" lon="1.97538">
        <ele>167.5</ele>
        <time>2013-06-08T06:31:50Z</time>
      </trkpt>
      <trkpt lat="49.71832" lon="1.97545">
        <ele>170.43</ele>
        <time>2013-06-08T06:32:03Z</time>
      </trkpt>
      <trkpt lat="49.71825" lon="1.97549">
        <ele>171.41</ele>
        <time>2013-06-08T06:32:07Z</time>
      </trkpt>
      <trkpt lat="49.71808" lon="1.97558">
        <ele>173.49</ele>
        <time>2013-06-08T06:32:16Z</time>
      </trkpt>
      <trkpt lat="49.71781" lon="1.97562">
        <ele>176.61</ele>
        <time>2013-06-08T06:32:30Z</time>
      </trkpt>
      <trkpt lat="49.71752" lon="1.97553">
        <ele>178.39</ele>
        <time>2013-06-08T06:32:43Z</time>
      </trkpt>
      <trkpt lat="49.71732" lon="1.97549">
        <ele>180.03</ele>
        <time>2013-06-08T06:32:54Z</time>
      </trkpt>
      <trkpt lat="49.71729" lon="1.97534">
        <ele>179.85</ele>
        <time>2013-06-08T06:33:07Z</time>
      </trkpt>
      <trkpt lat="49.71734" lon="1.97524">
        <ele>179.41</ele>
        <time>2013-06-08T06:33:18Z</time>
      </trkpt>
      <trkpt lat="49.71751" lon="1.97507">
        <ele>179.07</ele>
        <time>2013-06-08T06:33:38Z</time>
      </trkpt>
      <trkpt lat="49.71764" lon="1.97496">
        <ele>177.2</ele>
        <time>2013-06-08T06:33:54Z</time>
      </trkpt>
      <trkpt lat="49.71777" lon="1.97487">
        <ele>176.5</ele>
        <time>2013-06-08T06:34:04Z</time>
      </trkpt>
      <trkpt lat="49.71779" lon="1.97485">
        <ele>176.51</ele>
        <time>2013-06-08T06:34:06Z</time>
      </trkpt>
      <trkpt lat="49.71793" lon="1.97474">
        <ele>174.39</ele>
        <time>2013-06-08T06:34:18Z</time>
      </trkpt>
      <trkpt lat="49.71817" lon="1.9746">
        <ele>171.29</ele>
        <time>2013-06-08T06:34:31Z</time>
      </trkpt>
      <trkpt lat="49.71835" lon="1.9744">
        <ele>168.23</ele>
        <time>2013-06-08T06:34:40Z</time>
      </trkpt>
      <trkpt lat="49.71855" lon="1.97411">
        <ele>165.09</ele>
        <time>2013-06-08T06:34:52Z</time>
      </trkpt>
      <trkpt lat="49.71873" lon="1.97386">
        <ele>162.05</ele>
        <time>2013-06-08T06:35:01Z</time>
      </trkpt>
      <trkpt lat="49.71894" lon="1.97357">
        <ele>158.87</ele>
        <time>2013-06-08T06:35:11Z</time>
      </trkpt>
      <trkpt lat="49.71922" lon="1.97324">
        <ele>155.71</ele>
        <time>2013-06-08T06:35:25Z</time>
      </trkpt>
      <trkpt lat="49.71947" lon="1.97293">
        <ele>152.43</ele>
        <time>2013-06-08T06:35:37Z</time>
      </trkpt>
      <trkpt lat="49.71962" lon="1.97269">
        <ele>149.09</ele>
        <time>2013-06-08T06:35:45Z</time>
      </trkpt>
      <trkpt lat="49.71975" lon="1.97246">
        <ele>145.63</ele>
        <time>2013-06-08T06:35:52Z</time>
      </trkpt>
      <trkpt lat="49.71984" lon="1.97226">
        <ele>141.93</ele>
        <time>2013-06-08T06:35:58Z</time>
      </trkpt>
      <trkpt lat="49.71989" lon="1.97202">
        <ele>139.48</ele>
        <time>2013-06-08T06:36:04Z</time>
      </trkpt>
      <trkpt lat="49.71987" lon="1.97192">
        <ele>137.9</ele>
        <time>2013-06-08T06:36:08Z</time>
      </trkpt>
      <trkpt lat="49.71985" lon="1.97173">
        <ele>135.51</ele>
        <time>2013-06-08T06:36:14Z</time>
      </trkpt>
      <trkpt lat="49.72003" lon="1.97161">
        <ele>132.03</ele>
        <time>2013-06-08T06:36:22Z</time>
      </trkpt>
      <trkpt lat="49.72016" lon="1.97157">
        <ele>129.62</ele>
        <time>2013-06-08T06:36:28Z</time>
      </trkpt>
      <trkpt lat="49.72036" lon="1.97146">
        <ele>126.37</ele>
        <time>2013-06-08T06:36:37Z</time>
      </trkpt>
      <trkpt lat="49.72058" lon="1.97136">
        <ele>123.23</ele>
        <time>2013-06-08T06:36:46Z</time>
      </trkpt>
      <trkpt lat="49.72073" lon="1.97131">
        <ele>120.85</ele>
        <time>2013-06-08T06:36:52Z</time>
      </trkpt>
      <trkpt lat="49.72088" lon="1.97131">
        <ele>117.79</ele>
        <time>2013-06-08T06:36:58Z</time>
      </trkpt>
      <trkpt lat="49.72107" lon="1.97137">
        <ele>114.38</ele>
        <time>2013-06-08T06:37:05Z</time>
      </trkpt>
      <trkpt lat="49.72132" lon="1.97121">
        <ele>111.22</ele>
        <time>2013-06-08T06:37:16Z</time>
      </trkpt>
      <trkpt lat="49.72165" lon="1.97118">
        <ele>110.06</ele>
        <time>2013-06-08T06:37:28Z</time>
      </trkpt>
      <trkpt lat="49.72189" lon="1.9712">
        <ele>109.37</ele>
        <time>2013-06-08T06:37:37Z</time>
      </trkpt>
      <trkpt lat="49.72193" lon="1.97088">
        <ele>108.94</ele>
        <time>2013-06-08T06:37:47Z</time>
      </trkpt>
      <trkpt lat="49.72191" lon="1.97048">
        <ele>108.81</ele>
        <time>2013-06-08T06:37:58Z</time>
      </trkpt>
      <trkpt lat="49.72189" lon="1.97037">
        <ele>108.89</ele>
        <time>2013-06-08T06:38:02Z</time>
      </trkpt>
      <trkpt lat="49.72184" lon="1.97027">
        <ele>109.37</ele>
        <time>2013-06-08T06:38:07Z</time>
      </trkpt>
      <trkpt lat="49.72176" lon="1.97016">
        <ele>110.54</ele>
        <time>2013-06-08T06:38:13Z</time>
      </trkpt>
      <trkpt lat="49.72159" lon="1.96982">
        <ele>113.28</ele>
        <time>2013-06-08T06:38:27Z</time>
      </trkpt>
      <trkpt lat="49.72152" lon="1.96947">
        <ele>115.95</ele>
        <time>2013-06-08T06:38:39Z</time>
      </trkpt>
      <trkpt lat="49.72139" lon="1.96925">
        <ele>118.07</ele>
        <time>2013-06-08T06:38:49Z</time>
      </trkpt>
      <trkpt lat="49.72128" lon="1.96897">
        <ele>120.1</ele>
        <time>2013-06-08T06:39:01Z</time>
      </trkpt>
      <trkpt lat="49.72111" lon="1.96874">
        <ele>121.68</ele>
        <time>2013-06-08T06:39:13Z</time>
      </trkpt>
      <trkpt lat="49.72098" lon="1.96856">
        <ele>123.19</ele>
        <time>2013-06-08T06:39:22Z</time>
      </trkpt>
      <trkpt lat="49.72092" lon="1.96848">
        <ele>123.78</ele>
        <time>2013-06-08T06:39:26Z</time>
      </trkpt>
      <trkpt lat="49.72069" lon="1.96817">
        <ele>125.95</ele>
        <time>2013-06-08T06:39:40Z</time>
      </trkpt>
      <trkpt lat="49.72055" lon="1.96781">
        <ele>128.59</ele>
        <time>2013-06-08T06:39:55Z</time>
      </trkpt>
      <trkpt lat="49.72039" lon="1.96754">
        <ele>129.67</ele>
        <time>2013-06-08T06:40:08Z</time>
      </trkpt>
      <trkpt lat="49.7203" lon="1.96728">
        <ele>131.04</ele>
        <time>2013-06-08T06:40:20Z</time>
      </trkpt>
      <trkpt lat="49.72027" lon="1.96718">
        <ele>131.03</ele>
        <time>2013-06-08T06:40:23Z</time>
      </trkpt>
      <trkpt lat="49.72023" lon="1.96706">
        <ele>131.28</ele>
        <time>2013-06-08T06:40:27Z</time>
      </trkpt>
      <trkpt lat="49.72013" lon="1.96674">
        <ele>131.11</ele>
        <time>2013-06-08T06:40:37Z</time>
      </trkpt>
      <trkpt lat="49.71999" lon="1.9663">
        <ele>131.7</ele>
        <time>2013-06-08T06:40:50Z</time>
      </trkpt>
      <trkpt lat="49.71991" lon="1.96577">
        <ele>131.24</ele>
        <time>2013-06-08T06:41:02Z</time>
      </trkpt>
      <trkpt lat="49.7198" lon="1.96537">
        <ele>131.14</ele>
        <time>2013-06-08T06:41:14Z</time>
      </trkpt>
      <trkpt lat="49.71969" lon="1.96499">
        <ele>131.7</ele>
        <time>2013-06-08T06:41:25Z</time>
      </trkpt>
      <trkpt lat="49.71957" lon="1.96455">
        <ele>132.32</ele>
        <time>2013-06-08T06:41:38Z</time>
      </trkpt>
      <trkpt lat="49.71946" lon="1.96421">
        <ele>133.12</ele>
        <time>2013-06-08T06:41:49Z</time>
      </trkpt>
      <trkpt lat="49.71938" lon="1.96386">
        <ele>135.02</ele>
        <time>2013-06-08T06:42:01Z</time>
      </trkpt>
      <trkpt lat="49.71932" lon="1.96364">
        <ele>136.69</ele>
        <time>2013-06-08T06:42:08Z</time>
      </trkpt>
      <trkpt lat="49.71927" lon="1.96354">
        <ele>136.76</ele>
        <time>2013-06-08T06:42:12Z</time>
      </trkpt>
      <trkpt lat="49.71908" lon="1.96313">
        <ele>140.01</ele>
        <time>2013-06-08T06:42:28Z</time>
      </trkpt>
      <trkpt lat="49.71904" lon="1.96264">
        <ele>141.9</ele>
        <time>2013-06-08T06:42:41Z</time>
      </trkpt>
      <trkpt lat="49.71898" lon="1.96224">
        <ele>143.81</ele>
        <time>2013-06-08T06:42:52Z</time>
      </trkpt>
      <trkpt lat="49.71886" lon="1.9619">
        <ele>146.03</ele>
        <time>2013-06-08T06:43:04Z</time>
      </trkpt>
      <trkpt lat="49.71871" lon="1.96145">
        <ele>148.08</ele>
        <time>2013-06-08T06:43:19Z</time>
      </trkpt>
      <trkpt lat="49.7186" lon="1.96116">
        <ele>149.34</ele>
        <time>2013-06-08T06:43:29Z</time>
      </trkpt>
      <trkpt lat="49.71845" lon="1.96083">
        <ele>150.48</ele>
        <time>2013-06-08T06:43:40Z</time>
      </trkpt>
      <trkpt lat="49.71829" lon="1.96055">
        <ele>151.75</ele>
        <time>2013-06-08T06:43:51Z</time>
      </trkpt>
      <trkpt lat="49.71819" lon="1.96012">
        <ele>153.57</ele>
        <time>2013-06-08T06:44:04Z</time>
      </trkpt>
      <trkpt lat="49.7182" lon="1.95965">
        <ele>153.45</ele>
        <time>2013-06-08T06:44:17Z</time>
      </trkpt>
      <trkpt lat="49.71829" lon="1.95924">
        <ele>150.43</ele>
        <time>2013-06-08T06:44:29Z</time>
      </trkpt>
      <trkpt lat="49.71825" lon="1.95892">
        <ele>147.88</ele>
        <time>2013-06-08T06:44:39Z</time>
      </trkpt>
      <trkpt lat="49.71827" lon="1.95882">
        <ele>147.02</ele>
        <time>2013-06-08T06:44:43Z</time>
      </trkpt>
      <trkpt lat="49.71829" lon="1.95876">
        <ele>145.56</ele>
        <time>2013-06-08T06:44:47Z</time>
      </trkpt>
      <trkpt lat="49.71834" lon="1.9587">
        <ele>144</ele>
        <time>2013-06-08T06:44:54Z</time>
      </trkpt>
      <trkpt lat="49.71843" lon="1.95869">
        <ele>142.62</ele>
        <time>2013-06-08T06:45:03Z</time>
      </trkpt>
      <trkpt lat="49.71847" lon="1.95856">
        <ele>140.13</ele>
        <time>2013-06-08T06:45:06Z</time>
      </trkpt>
      <trkpt lat="49.71854" lon="1.9584">
        <ele>135.59</ele>
        <time>2013-06-08T06:45:11Z</time>
      </trkpt>
      <trkpt lat="49.71855" lon="1.95838">
        <ele>135.08</ele>
        <time>2013-06-08T06:45:13Z</time>
      </trkpt>
      <trkpt lat="49.71843" lon="1.95804">
        <ele>135.15</ele>
        <time>2013-06-08T06:45:25Z</time>
      </trkpt>
      <trkpt lat="49.71837" lon="1.95775">
        <ele>135.2</ele>
        <time>2013-06-08T06:45:36Z</time>
      </trkpt>
      <trkpt lat="49.71832" lon="1.95741">
        <ele>135.46</ele>
        <time>2013-06-08T06:45:45Z</time>
      </trkpt>
      <trkpt lat="49.71828" lon="1.95723">
        <ele>135.55</ele>
        <time>2013-06-08T06:45:50Z</time>
      </trkpt>
      <trkpt lat="49.71821" lon="1.95679">
        <ele>135.01</ele>
        <time>2013-06-08T06:46:02Z</time>
      </trkpt>
      <trkpt lat="49.71818" lon="1.95664">
        <ele>134.51</ele>
        <time>2013-06-08T06:46:06Z</time>
      </trkpt>
      <trkpt lat="49.71811" lon="1.95634">
        <ele>134.99</ele>
        <time>2013-06-08T06:46:15Z</time>
      </trkpt>
      <trkpt lat="49.71807" lon="1.9559">
        <ele>133.7</ele>
        <time>2013-06-08T06:46:27Z</time>
      </trkpt>
      <trkpt lat="49.71801" lon="1.95548">
        <ele>134.24</ele>
        <time>2013-06-08T06:46:41Z</time>
      </trkpt>
      <trkpt lat="49.7179" lon="1.95507">
        <ele>134</ele>
        <time>2013-06-08T06:46:53Z</time>
      </trkpt>
      <trkpt lat="49.71787" lon="1.95465">
        <ele>134.09</ele>
        <time>2013-06-08T06:47:05Z</time>
      </trkpt>
      <trkpt lat="49.71783" lon="1.95425">
        <ele>134.34</ele>
        <time>2013-06-08T06:47:17Z</time>
      </trkpt>
      <trkpt lat="49.71781" lon="1.95386">
        <ele>135.48</ele>
        <time>2013-06-08T06:47:31Z</time>
      </trkpt>
      <trkpt lat="49.71781" lon="1.9538">
        <ele>135.89</ele>
        <time>2013-06-08T06:47:33Z</time>
      </trkpt>
      <trkpt lat="49.71783" lon="1.95365">
        <ele>135.9</ele>
        <time>2013-06-08T06:47:37Z</time>
      </trkpt>
      <trkpt lat="49.71782" lon="1.95348">
        <ele>137.11</ele>
        <time>2013-06-08T06:47:42Z</time>
      </trkpt>
      <trkpt lat="49.71787" lon="1.95338">
        <ele>137.5</ele>
        <time>2013-06-08T06:47:46Z</time>
      </trkpt>
      <trkpt lat="49.71785" lon="1.95321">
        <ele>138.12</ele>
        <time>2013-06-08T06:47:54Z</time>
      </trkpt>
      <trkpt lat="49.718" lon="1.9528">
        <ele>138.03</ele>
        <time>2013-06-08T06:48:09Z</time>
      </trkpt>
      <trkpt lat="49.71801" lon="1.95274">
        <ele>137.79</ele>
        <time>2013-06-08T06:48:11Z</time>
      </trkpt>
      <trkpt lat="49.71801" lon="1.95241">
        <ele>138.02</ele>
        <time>2013-06-08T06:48:21Z</time>
      </trkpt>
      <trkpt lat="49.71802" lon="1.95229">
        <ele>138.46</ele>
        <time>2013-06-08T06:48:24Z</time>
      </trkpt>
      <trkpt lat="49.718" lon="1.95193">
        <ele>138.98</ele>
        <time>2013-06-08T06:48:34Z</time>
      </trkpt>
      <trkpt lat="49.71807" lon="1.95152">
        <ele>137.56</ele>
        <time>2013-06-08T06:48:46Z</time>
      </trkpt>
      <trkpt lat="49.71808" lon="1.9514">
        <ele>137.25</ele>
        <time>2013-06-08T06:48:49Z</time>
      </trkpt>
      <trkpt lat="49.71809" lon="1.95112">
        <ele>137.11</ele>
        <time>2013-06-08T06:48:56Z</time>
      </trkpt>
      <trkpt lat="49.71808" lon="1.95104">
        <ele>137.46</ele>
        <time>2013-06-08T06:48:59Z</time>
      </trkpt>
      <trkpt lat="49.71798" lon="1.9509">
        <ele>139.34</ele>
        <time>2013-06-08T06:49:07Z</time>
      </trkpt>
      <trkpt lat="49.71795" lon="1.95081">
        <ele>139.5</ele>
        <time>2013-06-08T06:49:10Z</time>
      </trkpt>
      <trkpt lat="49.71783" lon="1.95081">
        <ele>143</ele>
        <time>2013-06-08T06:49:21Z</time>
      </trkpt>
      <trkpt lat="49.71764" lon="1.95092">
        <ele>145.68</ele>
        <time>2013-06-08T06:49:34Z</time>
      </trkpt>
      <trkpt lat="49.71744" lon="1.951">
        <ele>148.74</ele>
        <time>2013-06-08T06:49:47Z</time>
      </trkpt>
      <trkpt lat="49.7173" lon="1.95105">
        <ele>151.88</ele>
        <time>2013-06-08T06:49:57Z</time>
      </trkpt>
      <trkpt lat="49.71715" lon="1.95115">
        <ele>155.17</ele>
        <time>2013-06-08T06:50:05Z</time>
      </trkpt>
      <trkpt lat="49.71714" lon="1.95116">
        <ele>155.47</ele>
        <time>2013-06-08T06:50:06Z</time>
      </trkpt>
      <trkpt lat="49.71708" lon="1.95117">
        <ele>156.59</ele>
        <time>2013-06-08T06:50:10Z</time>
      </trkpt>
      <trkpt lat="49.71698" lon="1.95126">
        <ele>159.74</ele>
        <time>2013-06-08T06:50:20Z</time>
      </trkpt>
      <trkpt lat="49.71678" lon="1.95141">
        <ele>163.11</ele>
        <time>2013-06-08T06:50:33Z</time>
      </trkpt>
      <trkpt lat="49.71655" lon="1.95156">
        <ele>166.04</ele>
        <time>2013-06-08T06:50:46Z</time>
      </trkpt>
      <trkpt lat="49.71636" lon="1.95174">
        <ele>168.31</ele>
        <time>2013-06-08T06:50:59Z</time>
      </trkpt>
      <trkpt lat="49.71628" lon="1.95181">
        <ele>169.94</ele>
        <time>2013-06-08T06:51:04Z</time>
      </trkpt>
      <trkpt lat="49.71602" lon="1.95201">
        <ele>172.1</ele>
        <time>2013-06-08T06:51:19Z</time>
      </trkpt>
      <trkpt lat="49.71591" lon="1.95208">
        <ele>172.94</ele>
        <time>2013-06-08T06:51:26Z</time>
      </trkpt>
      <trkpt lat="49.71583" lon="1.95212">
        <ele>173.32</ele>
        <time>2013-06-08T06:51:30Z</time>
      </trkpt>
      <trkpt lat="49.71564" lon="1.95227">
        <ele>174.16</ele>
        <time>2013-06-08T06:51:44Z</time>
      </trkpt>
      <trkpt lat="49.7155" lon="1.95244">
        <ele>174.64</ele>
        <time>2013-06-08T06:51:51Z</time>
      </trkpt>
      <trkpt lat="49.71542" lon="1.95284">
        <ele>174.15</ele>
        <time>2013-06-08T06:52:03Z</time>
      </trkpt>
      <trkpt lat="49.7152" lon="1.95306">
        <ele>173.62</ele>
        <time>2013-06-08T06:52:16Z</time>
      </trkpt>
      <trkpt lat="49.71511" lon="1.95314">
        <ele>173.11</ele>
        <time>2013-06-08T06:52:21Z</time>
      </trkpt>
      <trkpt lat="49.71507" lon="1.95329">
        <ele>172.15</ele>
        <time>2013-06-08T06:52:25Z</time>
      </trkpt>
      <trkpt lat="49.71485" lon="1.9535">
        <ele>170.12</ele>
        <time>2013-06-08T06:52:37Z</time>
      </trkpt>
      <trkpt lat="49.71484" lon="1.95351">
        <ele>169.61</ele>
        <time>2013-06-08T06:52:38Z</time>
      </trkpt>
      <trkpt lat="49.71477" lon="1.95359">
        <ele>168.83</ele>
        <time>2013-06-08T06:52:43Z</time>
      </trkpt>
      <trkpt lat="49.71459" lon="1.95377">
        <ele>166.32</ele>
        <time>2013-06-08T06:52:52Z</time>
      </trkpt>
      <trkpt lat="49.7145" lon="1.95389">
        <ele>165.24</ele>
        <time>2013-06-08T06:52:56Z</time>
      </trkpt>
      <trkpt lat="49.71446" lon="1.95395">
        <ele>164.25</ele>
        <time>2013-06-08T06:52:59Z</time>
      </trkpt>
      <trkpt lat="49.71429" lon="1.95417">
        <ele>161.06</ele>
        <time>2013-06-08T06:53:08Z</time>
      </trkpt>
      <trkpt lat="49.71423" lon="1.95424">
        <ele>158.04</ele>
        <time>2013-06-08T06:53:12Z</time>
      </trkpt>
      <trkpt lat="49.71419" lon="1.9543">
        <ele>157.21</ele>
        <time>2013-06-08T06:53:14Z</time>
      </trkpt>
      <trkpt lat="49.71411" lon="1.95448">
        <ele>154.19</ele>
        <time>2013-06-08T06:53:18Z</time>
      </trkpt>
      <trkpt lat="49.714" lon="1.95459">
        <ele>150.38</ele>
        <time>2013-06-08T06:53:22Z</time>
      </trkpt>
      <trkpt lat="49.71395" lon="1.95465">
        <ele>148.82</ele>
        <time>2013-06-08T06:53:24Z</time>
      </trkpt>
      <trkpt lat="49.71391" lon="1.95467">
        <ele>148.7</ele>
        <time>2013-06-08T06:53:25Z</time>
      </trkpt>
      <trkpt lat="49.71379" lon="1.95479">
        <ele>145.34</ele>
        <time>2013-06-08T06:53:29Z</time>
      </trkpt>
      <trkpt lat="49.71371" lon="1.95494">
        <ele>141.82</ele>
        <time>2013-06-08T06:53:33Z</time>
      </trkpt>
      <trkpt lat="49.7136" lon="1.95503">
        <ele>138.5</ele>
        <time>2013-06-08T06:53:38Z</time>
      </trkpt>
      <trkpt lat="49.7135" lon="1.95517">
        <ele>135.42</ele>
        <time>2013-06-08T06:53:43Z</time>
      </trkpt>
      <trkpt lat="49.71329" lon="1.95532">
        <ele>134.13</ele>
        <time>2013-06-08T06:53:54Z</time>
      </trkpt>
      <trkpt lat="49.71307" lon="1.95548">
        <ele>135.72</ele>
        <time>2013-06-08T06:54:05Z</time>
      </trkpt>
      <trkpt lat="49.713" lon="1.95552">
        <ele>136.44</ele>
        <time>2013-06-08T06:54:08Z</time>
      </trkpt>
      <trkpt lat="49.71277" lon="1.95576">
        <ele>139.82</ele>
        <time>2013-06-08T06:54:21Z</time>
      </trkpt>
      <trkpt lat="49.71258" lon="1.95592">
        <ele>142.83</ele>
        <time>2013-06-08T06:54:33Z</time>
      </trkpt>
      <trkpt lat="49.71253" lon="1.95595">
        <ele>143.57</ele>
        <time>2013-06-08T06:54:36Z</time>
      </trkpt>
      <trkpt lat="49.71245" lon="1.956">
        <ele>145.6</ele>
        <time>2013-06-08T06:54:43Z</time>
      </trkpt>
      <trkpt lat="49.71233" lon="1.9561">
        <ele>149.07</ele>
        <time>2013-06-08T06:54:53Z</time>
      </trkpt>
      <trkpt lat="49.71225" lon="1.95619">
        <ele>152.19</ele>
        <time>2013-06-08T06:55:01Z</time>
      </trkpt>
      <trkpt lat="49.71221" lon="1.95623">
        <ele>154.96</ele>
        <time>2013-06-08T06:55:08Z</time>
      </trkpt>
      <trkpt lat="49.71214" lon="1.95632">
        <ele>158.14</ele>
        <time>2013-06-08T06:55:17Z</time>
      </trkpt>
      <trkpt lat="49.71204" lon="1.9564">
        <ele>161.21</ele>
        <time>2013-06-08T06:55:25Z</time>
      </trkpt>
      <trkpt lat="49.71193" lon="1.95647">
        <ele>164.35</ele>
        <time>2013-06-08T06:55:35Z</time>
      </trkpt>
      <trkpt lat="49.71191" lon="1.9565">
        <ele>165.09</ele>
        <time>2013-06-08T06:55:37Z</time>
      </trkpt>
      <trkpt lat="49.71179" lon="1.9566">
        <ele>166.76</ele>
        <time>2013-06-08T06:55:47Z</time>
      </trkpt>
      <trkpt lat="49.71167" lon="1.95683">
        <ele>168.69</ele>
        <time>2013-06-08T06:56:00Z</time>
      </trkpt>
      <trkpt lat="49.71166" lon="1.95687">
        <ele>169</ele>
        <time>2013-06-08T06:56:02Z</time>
      </trkpt>
      <trkpt lat="49.71152" lon="1.95676">
        <ele>169.54</ele>
        <time>2013-06-08T06:56:15Z</time>
      </trkpt>
      <trkpt lat="49.71137" lon="1.95655">
        <ele>170.89</ele>
        <time>2013-06-08T06:56:37Z</time>
      </trkpt>
      <trkpt lat="49.71136" lon="1.95647">
        <ele>171.24</ele>
        <time>2013-06-08T06:56:42Z</time>
      </trkpt>
      <trkpt lat="49.71114" lon="1.95612">
        <ele>172.77</ele>
        <time>2013-06-08T06:57:07Z</time>
      </trkpt>
      <trkpt lat="49.71108" lon="1.9559">
        <ele>173.24</ele>
        <time>2013-06-08T06:57:21Z</time>
      </trkpt>
      <trkpt lat="49.71088" lon="1.95541">
        <ele>173.86</ele>
        <time>2013-06-08T06:57:49Z</time>
      </trkpt>
      <trkpt lat="49.71069" lon="1.95496">
        <ele>174.49</ele>
        <time>2013-06-08T06:58:07Z</time>
      </trkpt>
      <trkpt lat="49.7105" lon="1.95452">
        <ele>175.1</ele>
        <time>2013-06-08T06:58:22Z</time>
      </trkpt>
      <trkpt lat="49.71027" lon="1.95407">
        <ele>175.35</ele>
        <time>2013-06-08T06:58:36Z</time>
      </trkpt>
      <trkpt lat="49.71006" lon="1.95364">
        <ele>176.12</ele>
        <time>2013-06-08T06:58:50Z</time>
      </trkpt>
      <trkpt lat="49.70993" lon="1.95324">
        <ele>176.32</ele>
        <time>2013-06-08T06:59:03Z</time>
      </trkpt>
      <trkpt lat="49.70971" lon="1.95284">
        <ele>176.91</ele>
        <time>2013-06-08T06:59:16Z</time>
      </trkpt>
      <trkpt lat="49.70958" lon="1.95253">
        <ele>177.19</ele>
        <time>2013-06-08T06:59:27Z</time>
      </trkpt>
      <trkpt lat="49.70935" lon="1.95212">
        <ele>177.24</ele>
        <time>2013-06-08T06:59:42Z</time>
      </trkpt>
      <trkpt lat="49.70921" lon="1.95169">
        <ele>177.49</ele>
        <time>2013-06-08T06:59:54Z</time>
      </trkpt>
      <trkpt lat="49.70923" lon="1.95162">
        <ele>177.32</ele>
        <time>2013-06-08T06:59:56Z</time>
      </trkpt>
      <trkpt lat="49.7092" lon="1.9515">
        <ele>177.26</ele>
        <time>2013-06-08T07:00:00Z</time>
      </trkpt>
      <trkpt lat="49.70901" lon="1.95106">
        <ele>177.36</ele>
        <time>2013-06-08T07:00:14Z</time>
      </trkpt>
      <trkpt lat="49.70883" lon="1.95066">
        <ele>176.68</ele>
        <time>2013-06-08T07:00:28Z</time>
      </trkpt>
      <trkpt lat="49.70865" lon="1.95029">
        <ele>176.33</ele>
        <time>2013-06-08T07:00:41Z</time>
      </trkpt>
      <trkpt lat="49.70849" lon="1.94994">
        <ele>176.55</ele>
        <time>2013-06-08T07:00:52Z</time>
      </trkpt>
      <trkpt lat="49.70837" lon="1.94964">
        <ele>176.21</ele>
        <time>2013-06-08T07:01:02Z</time>
      </trkpt>
      <trkpt lat="49.70817" lon="1.94929">
        <ele>176.06</ele>
        <time>2013-06-08T07:01:15Z</time>
      </trkpt>
      <trkpt lat="49.7081" lon="1.94919">
        <ele>176.67</ele>
        <time>2013-06-08T07:01:19Z</time>
      </trkpt>
      <trkpt lat="49.70797" lon="1.94879">
        <ele>177.17</ele>
        <time>2013-06-08T07:01:32Z</time>
      </trkpt>
      <trkpt lat="49.70779" lon="1.94834">
        <ele>177.68</ele>
        <time>2013-06-08T07:01:46Z</time>
      </trkpt>
      <trkpt lat="49.70771" lon="1.94802">
        <ele>177.65</ele>
        <time>2013-06-08T07:01:57Z</time>
      </trkpt>
      <trkpt lat="49.70776" lon="1.94797">
        <ele>177.43</ele>
        <time>2013-06-08T07:02:17Z</time>
      </trkpt>
      <trkpt lat="49.70786" lon="1.94786">
        <ele>177.4</ele>
        <time>2013-06-08T07:02:44Z</time>
      </trkpt>
      <trkpt lat="49.70789" lon="1.94781">
        <ele>176.96</ele>
        <time>2013-06-08T07:02:48Z</time>
      </trkpt>
      <trkpt lat="49.70818" lon="1.94749">
        <ele>173.41</ele>
        <time>2013-06-08T07:03:03Z</time>
      </trkpt>
      <trkpt lat="49.7083" lon="1.94735">
        <ele>171.45</ele>
        <time>2013-06-08T07:03:09Z</time>
      </trkpt>
      <trkpt lat="49.70843" lon="1.94715">
        <ele>167.95</ele>
        <time>2013-06-08T07:03:17Z</time>
      </trkpt>
      <trkpt lat="49.70844" lon="1.94713">
        <ele>167.82</ele>
        <time>2013-06-08T07:03:18Z</time>
      </trkpt>
      <trkpt lat="49.70853" lon="1.94702">
        <ele>164.75</ele>
        <time>2013-06-08T07:03:22Z</time>
      </trkpt>
      <trkpt lat="49.70857" lon="1.94693">
        <ele>160.58</ele>
        <time>2013-06-08T07:03:25Z</time>
      </trkpt>
      <trkpt lat="49.70863" lon="1.94685">
        <ele>157.47</ele>
        <time>2013-06-08T07:03:29Z</time>
      </trkpt>
      <trkpt lat="49.70869" lon="1.94674">
        <ele>153.71</ele>
        <time>2013-06-08T07:03:33Z</time>
      </trkpt>
      <trkpt lat="49.70871" lon="1.94672">
        <ele>153.14</ele>
        <time>2013-06-08T07:03:34Z</time>
      </trkpt>
      <trkpt lat="49.70884" lon="1.94662">
        <ele>150.76</ele>
        <time>2013-06-08T07:03:38Z</time>
      </trkpt>
      <trkpt lat="49.70912" lon="1.9465">
        <ele>149.84</ele>
        <time>2013-06-08T07:03:51Z</time>
      </trkpt>
      <trkpt lat="49.70921" lon="1.94638">
        <ele>152.28</ele>
        <time>2013-06-08T07:04:03Z</time>
      </trkpt>
      <trkpt lat="49.70928" lon="1.94625">
        <ele>155.44</ele>
        <time>2013-06-08T07:04:12Z</time>
      </trkpt>
      <trkpt lat="49.70938" lon="1.94598">
        <ele>158.53</ele>
        <time>2013-06-08T07:04:21Z</time>
      </trkpt>
      <trkpt lat="49.70944" lon="1.9459">
        <ele>161.07</ele>
        <time>2013-06-08T07:04:28Z</time>
      </trkpt>
      <trkpt lat="49.70955" lon="1.94578">
        <ele>164.15</ele>
        <time>2013-06-08T07:04:39Z</time>
      </trkpt>
      <trkpt lat="49.70961" lon="1.94567">
        <ele>167.01</ele>
        <time>2013-06-08T07:04:51Z</time>
      </trkpt>
      <trkpt lat="49.70976" lon="1.94551">
        <ele>170.24</ele>
        <time>2013-06-08T07:05:02Z</time>
      </trkpt>
      <trkpt lat="49.70995" lon="1.94527">
        <ele>173.21</ele>
        <time>2013-06-08T07:05:16Z</time>
      </trkpt>
      <trkpt lat="49.71015" lon="1.94512">
        <ele>175.3</ele>
        <time>2013-06-08T07:05:26Z</time>
      </trkpt>
      <trkpt lat="49.71028" lon="1.9453">
        <ele>175.87</ele>
        <time>2013-06-08T07:05:38Z</time>
      </trkpt>
      <trkpt lat="49.71038" lon="1.94556">
        <ele>175.5</ele>
        <time>2013-06-08T07:05:50Z</time>
      </trkpt>
      <trkpt lat="49.71045" lon="1.94567">
        <ele>175.62</ele>
        <time>2013-06-08T07:05:55Z</time>
      </trkpt>
      <trkpt lat="49.71042" lon="1.9458">
        <ele>175.65</ele>
        <time>2013-06-08T07:05:59Z</time>
      </trkpt>
      <trkpt lat="49.71043" lon="1.94591">
        <ele>175.82</ele>
        <time>2013-06-08T07:06:03Z</time>
      </trkpt>
      <trkpt lat="49.71048" lon="1.94598">
        <ele>175.39</ele>
        <time>2013-06-08T07:06:07Z</time>
      </trkpt>
      <trkpt lat="49.71066" lon="1.94614">
        <ele>175.37</ele>
        <time>2013-06-08T07:06:16Z</time>
      </trkpt>
      <trkpt lat="49.71077" lon="1.94619">
        <ele>175.97</ele>
        <time>2013-06-08T07:06:23Z</time>
      </trkpt>
      <trkpt lat="49.71093" lon="1.94649">
        <ele>175.82</ele>
        <time>2013-06-08T07:06:33Z</time>
      </trkpt>
      <trkpt lat="49.71113" lon="1.94681">
        <ele>175.7</ele>
        <time>2013-06-08T07:06:44Z</time>
      </trkpt>
      <trkpt lat="49.71123" lon="1.94711">
        <ele>175.97</ele>
        <time>2013-06-08T07:06:53Z</time>
      </trkpt>
      <trkpt lat="49.71142" lon="1.94737">
        <ele>175.51</ele>
        <time>2013-06-08T07:07:06Z</time>
      </trkpt>
      <trkpt lat="49.71162" lon="1.9476">
        <ele>175.54</ele>
        <time>2013-06-08T07:07:16Z</time>
      </trkpt>
      <trkpt lat="49.71175" lon="1.94789">
        <ele>175.1</ele>
        <time>2013-06-08T07:07:26Z</time>
      </trkpt>
      <trkpt lat="49.71188" lon="1.9482">
        <ele>175.2</ele>
        <time>2013-06-08T07:07:38Z</time>
      </trkpt>
      <trkpt lat="49.71192" lon="1.94824">
        <ele>174.91</ele>
        <time>2013-06-08T07:07:40Z</time>
      </trkpt>
      <trkpt lat="49.71201" lon="1.94823">
        <ele>174.77</ele>
        <time>2013-06-08T07:07:44Z</time>
      </trkpt>
      <trkpt lat="49.71227" lon="1.94812">
        <ele>177.4</ele>
        <time>2013-06-08T07:07:57Z</time>
      </trkpt>
      <trkpt lat="49.71251" lon="1.94796">
        <ele>177.82</ele>
        <time>2013-06-08T07:08:09Z</time>
      </trkpt>
      <trkpt lat="49.71281" lon="1.94779">
        <ele>178.82</ele>
        <time>2013-06-08T07:08:22Z</time>
      </trkpt>
      <trkpt lat="49.71284" lon="1.94779">
        <ele>178.77</ele>
        <time>2013-06-08T07:08:23Z</time>
      </trkpt>
      <trkpt lat="49.71312" lon="1.9476">
        <ele>179.09</ele>
        <time>2013-06-08T07:08:36Z</time>
      </trkpt>
      <trkpt lat="49.71337" lon="1.94751">
        <ele>179.14</ele>
        <time>2013-06-08T07:08:46Z</time>
      </trkpt>
      <trkpt lat="49.71363" lon="1.94734">
        <ele>179.07</ele>
        <time>2013-06-08T07:08:58Z</time>
      </trkpt>
      <trkpt lat="49.71373" lon="1.94728">
        <ele>178.94</ele>
        <time>2013-06-08T07:09:03Z</time>
      </trkpt>
      <trkpt lat="49.71376" lon="1.94729">
        <ele>178.8</ele>
        <time>2013-06-08T07:09:04Z</time>
      </trkpt>
      <trkpt lat="49.71385" lon="1.94727">
        <ele>178.51</ele>
        <time>2013-06-08T07:09:08Z</time>
      </trkpt>
      <trkpt lat="49.71393" lon="1.94718">
        <ele>178.5</ele>
        <time>2013-06-08T07:09:12Z</time>
      </trkpt>
      <trkpt lat="49.71424" lon="1.94699">
        <ele>177.4</ele>
        <time>2013-06-08T07:09:26Z</time>
      </trkpt>
      <trkpt lat="49.71458" lon="1.94678">
        <ele>175.71</ele>
        <time>2013-06-08T07:09:41Z</time>
      </trkpt>
      <trkpt lat="49.71493" lon="1.94662">
        <ele>172.86</ele>
        <time>2013-06-08T07:09:54Z</time>
      </trkpt>
      <trkpt lat="49.71522" lon="1.94651">
        <ele>170.37</ele>
        <time>2013-06-08T07:10:04Z</time>
      </trkpt>
      <trkpt lat="49.71527" lon="1.94642">
        <ele>169.69</ele>
        <time>2013-06-08T07:10:07Z</time>
      </trkpt>
      <trkpt lat="49.71527" lon="1.94634">
        <ele>168.02</ele>
        <time>2013-06-08T07:10:10Z</time>
      </trkpt>
      <trkpt lat="49.71526" lon="1.94619">
        <ele>166.58</ele>
        <time>2013-06-08T07:10:15Z</time>
      </trkpt>
      <trkpt lat="49.71525" lon="1.94598">
        <ele>166.3</ele>
        <time>2013-06-08T07:10:22Z</time>
      </trkpt>
      <trkpt lat="49.71534" lon="1.94593">
        <ele>165.55</ele>
        <time>2013-06-08T07:10:26Z</time>
      </trkpt>
      <trkpt lat="49.7156" lon="1.94603">
        <ele>162.22</ele>
        <time>2013-06-08T07:10:38Z</time>
      </trkpt>
      <trkpt lat="49.71588" lon="1.94618">
        <ele>158.83</ele>
        <time>2013-06-08T07:10:51Z</time>
      </trkpt>
      <trkpt lat="49.71603" lon="1.94635">
        <ele>155.65</ele>
        <time>2013-06-08T07:10:59Z</time>
      </trkpt>
      <trkpt lat="49.7162" lon="1.94649">
        <ele>152.47</ele>
        <time>2013-06-08T07:11:08Z</time>
      </trkpt>
      <trkpt lat="49.71649" lon="1.94657">
        <ele>149.13</ele>
        <time>2013-06-08T07:11:20Z</time>
      </trkpt>
      <trkpt lat="49.7167" lon="1.94657">
        <ele>146.03</ele>
        <time>2013-06-08T07:11:29Z</time>
      </trkpt>
      <trkpt lat="49.71693" lon="1.9466">
        <ele>142.71</ele>
        <time>2013-06-08T07:11:38Z</time>
      </trkpt>
      <trkpt lat="49.71701" lon="1.94663">
        <ele>141.8</ele>
        <time>2013-06-08T07:11:41Z</time>
      </trkpt>
      <trkpt lat="49.7171" lon="1.9466">
        <ele>141.03</ele>
        <time>2013-06-08T07:11:45Z</time>
      </trkpt>
      <trkpt lat="49.71715" lon="1.9465">
        <ele>140.28</ele>
        <time>2013-06-08T07:11:49Z</time>
      </trkpt>
      <trkpt lat="49.71715" lon="1.94613">
        <ele>139.55</ele>
        <time>2013-06-08T07:12:01Z</time>
      </trkpt>
      <trkpt lat="49.71722" lon="1.94573">
        <ele>138.65</ele>
        <time>2013-06-08T07:12:14Z</time>
      </trkpt>
      <trkpt lat="49.71712" lon="1.9453">
        <ele>138.62</ele>
        <time>2013-06-08T07:12:26Z</time>
      </trkpt>
      <trkpt lat="49.71698" lon="1.94511">
        <ele>140.62</ele>
        <time>2013-06-08T07:12:38Z</time>
      </trkpt>
      <trkpt lat="49.71693" lon="1.94513">
        <ele>142.82</ele>
        <time>2013-06-08T07:12:47Z</time>
      </trkpt>
      <trkpt lat="49.71682" lon="1.94514">
        <ele>146.31</ele>
        <time>2013-06-08T07:12:57Z</time>
      </trkpt>
      <trkpt lat="49.71673" lon="1.94514">
        <ele>149.31</ele>
        <time>2013-06-08T07:13:05Z</time>
      </trkpt>
      <trkpt lat="49.71664" lon="1.94515">
        <ele>152.48</ele>
        <time>2013-06-08T07:13:14Z</time>
      </trkpt>
      <trkpt lat="49.71657" lon="1.94513">
        <ele>155.55</ele>
        <time>2013-06-08T07:13:22Z</time>
      </trkpt>
      <trkpt lat="49.71652" lon="1.94515">
        <ele>158.85</ele>
        <time>2013-06-08T07:13:31Z</time>
      </trkpt>
      <trkpt lat="49.71641" lon="1.94518">
        <ele>161.9</ele>
        <time>2013-06-08T07:13:41Z</time>
      </trkpt>
      <trkpt lat="49.71634" lon="1.94521">
        <ele>164.71</ele>
        <time>2013-06-08T07:13:52Z</time>
      </trkpt>
      <trkpt lat="49.71624" lon="1.94529">
        <ele>165.75</ele>
        <time>2013-06-08T07:14:01Z</time>
      </trkpt>
      <trkpt lat="49.71599" lon="1.94538">
        <ele>169.06</ele>
        <time>2013-06-08T07:14:15Z</time>
      </trkpt>
      <trkpt lat="49.71568" lon="1.94546">
        <ele>170.42</ele>
        <time>2013-06-08T07:14:28Z</time>
      </trkpt>
      <trkpt lat="49.71544" lon="1.94554">
        <ele>169.82</ele>
        <time>2013-06-08T07:14:38Z</time>
      </trkpt>
      <trkpt lat="49.71535" lon="1.94515">
        <ele>171.93</ele>
        <time>2013-06-08T07:14:49Z</time>
      </trkpt>
      <trkpt lat="49.71526" lon="1.94464">
        <ele>173.3</ele>
        <time>2013-06-08T07:15:03Z</time>
      </trkpt>
      <trkpt lat="49.71524" lon="1.94425">
        <ele>174.23</ele>
        <time>2013-06-08T07:15:14Z</time>
      </trkpt>
      <trkpt lat="49.71524" lon="1.94388">
        <ele>174.86</ele>
        <time>2013-06-08T07:15:25Z</time>
      </trkpt>
      <trkpt lat="49.71524" lon="1.94346">
        <ele>175.3</ele>
        <time>2013-06-08T07:15:36Z</time>
      </trkpt>
      <trkpt lat="49.71519" lon="1.94312">
        <ele>175.46</ele>
        <time>2013-06-08T07:15:47Z</time>
      </trkpt>
      <trkpt lat="49.71505" lon="1.9426">
        <ele>175.73</ele>
        <time>2013-06-08T07:16:00Z</time>
      </trkpt>
      <trkpt lat="49.71497" lon="1.94234">
        <ele>176.24</ele>
        <time>2013-06-08T07:16:07Z</time>
      </trkpt>
      <trkpt lat="49.71494" lon="1.94212">
        <ele>176.28</ele>
        <time>2013-06-08T07:16:14Z</time>
      </trkpt>
      <trkpt lat="49.7149" lon="1.94191">
        <ele>176.28</ele>
        <time>2013-06-08T07:16:20Z</time>
      </trkpt>
      <trkpt lat="49.71482" lon="1.9416">
        <ele>176.49</ele>
        <time>2013-06-08T07:16:31Z</time>
      </trkpt>
      <trkpt lat="49.71473" lon="1.94119">
        <ele>177.46</ele>
        <time>2013-06-08T07:16:43Z</time>
      </trkpt>
      <trkpt lat="49.71467" lon="1.94078">
        <ele>177.41</ele>
        <time>2013-06-08T07:16:55Z</time>
      </trkpt>
      <trkpt lat="49.71463" lon="1.9404">
        <ele>177.26</ele>
        <time>2013-06-08T07:17:05Z</time>
      </trkpt>
      <trkpt lat="49.71461" lon="1.93997">
        <ele>177.41</ele>
        <time>2013-06-08T07:17:16Z</time>
      </trkpt>
      <trkpt lat="49.71453" lon="1.93954">
        <ele>176.81</ele>
        <time>2013-06-08T07:17:28Z</time>
      </trkpt>
      <trkpt lat="49.71446" lon="1.93911">
        <ele>177.15</ele>
        <time>2013-06-08T07:17:41Z</time>
      </trkpt>
      <trkpt lat="49.71442" lon="1.9386">
        <ele>176.6</ele>
        <time>2013-06-08T07:17:54Z</time>
      </trkpt>
      <trkpt lat="49.71436" lon="1.93807">
        <ele>176.13</ele>
        <time>2013-06-08T07:18:08Z</time>
      </trkpt>
      <trkpt lat="49.71431" lon="1.93753">
        <ele>175.93</ele>
        <time>2013-06-08T07:18:21Z</time>
      </trkpt>
      <trkpt lat="49.71431" lon="1.93716">
        <ele>176.23</ele>
        <time>2013-06-08T07:18:32Z</time>
      </trkpt>
      <trkpt lat="49.71433" lon="1.93703">
        <ele>176.35</ele>
        <time>2013-06-08T07:18:36Z</time>
      </trkpt>
      <trkpt lat="49.71444" lon="1.93693">
        <ele>175.48</ele>
        <time>2013-06-08T07:18:42Z</time>
      </trkpt>
      <trkpt lat="49.71447" lon="1.9369">
        <ele>174.72</ele>
        <time>2013-06-08T07:18:46Z</time>
      </trkpt>
      <trkpt lat="49.71455" lon="1.93682">
        <ele>174.28</ele>
        <time>2013-06-08T07:18:50Z</time>
      </trkpt>
      <trkpt lat="49.71471" lon="1.93674">
        <ele>171.48</ele>
        <time>2013-06-08T07:18:58Z</time>
      </trkpt>
      <trkpt lat="49.7148" lon="1.93665">
        <ele>169.72</ele>
        <time>2013-06-08T07:19:03Z</time>
      </trkpt>
      <trkpt lat="49.71486" lon="1.9366">
        <ele>168.35</ele>
        <time>2013-06-08T07:19:06Z</time>
      </trkpt>
      <trkpt lat="49.71488" lon="1.93659">
        <ele>167.58</ele>
        <time>2013-06-08T07:19:07Z</time>
      </trkpt>
      <trkpt lat="49.71505" lon="1.93646">
        <ele>164.07</ele>
        <time>2013-06-08T07:19:15Z</time>
      </trkpt>
      <trkpt lat="49.71515" lon="1.93638">
        <ele>161.94</ele>
        <time>2013-06-08T07:19:19Z</time>
      </trkpt>
      <trkpt lat="49.71521" lon="1.93636">
        <ele>160.56</ele>
        <time>2013-06-08T07:19:21Z</time>
      </trkpt>
      <trkpt lat="49.71538" lon="1.93625">
        <ele>156.61</ele>
        <time>2013-06-08T07:19:27Z</time>
      </trkpt>
      <trkpt lat="49.71551" lon="1.9362">
        <ele>153.48</ele>
        <time>2013-06-08T07:19:32Z</time>
      </trkpt>
      <trkpt lat="49.71571" lon="1.93607">
        <ele>150.43</ele>
        <time>2013-06-08T07:19:38Z</time>
      </trkpt>
      <trkpt lat="49.71592" lon="1.93599">
        <ele>147.09</ele>
        <time>2013-06-08T07:19:46Z</time>
      </trkpt>
      <trkpt lat="49.7162" lon="1.9359">
        <ele>145.11</ele>
        <time>2013-06-08T07:19:56Z</time>
      </trkpt>
      <trkpt lat="49.71638" lon="1.93589">
        <ele>143.27</ele>
        <time>2013-06-08T07:20:03Z</time>
      </trkpt>
      <trkpt lat="49.71665" lon="1.93578">
        <ele>140.01</ele>
        <time>2013-06-08T07:20:13Z</time>
      </trkpt>
      <trkpt lat="49.71678" lon="1.93578">
        <ele>137.44</ele>
        <time>2013-06-08T07:20:18Z</time>
      </trkpt>
      <trkpt lat="49.71692" lon="1.93575">
        <ele>134.42</ele>
        <time>2013-06-08T07:20:23Z</time>
      </trkpt>
      <trkpt lat="49.71706" lon="1.93575">
        <ele>131.05</ele>
        <time>2013-06-08T07:20:29Z</time>
      </trkpt>
      <trkpt lat="49.71716" lon="1.93581">
        <ele>129.08</ele>
        <time>2013-06-08T07:20:35Z</time>
      </trkpt>
      <trkpt lat="49.71726" lon="1.93571">
        <ele>129.49</ele>
        <time>2013-06-08T07:20:47Z</time>
      </trkpt>
      <trkpt lat="49.7173" lon="1.93563">
        <ele>130.35</ele>
        <time>2013-06-08T07:21:03Z</time>
      </trkpt>
      <trkpt lat="49.71735" lon="1.93553">
        <ele>131.7</ele>
        <time>2013-06-08T07:21:19Z</time>
      </trkpt>
      <trkpt lat="49.71734" lon="1.93552">
        <ele>131.77</ele>
        <time>2013-06-08T07:21:20Z</time>
      </trkpt>
      <trkpt lat="49.7173" lon="1.93543">
        <ele>133.09</ele>
        <time>2013-06-08T07:21:32Z</time>
      </trkpt>
      <trkpt lat="49.71725" lon="1.9354">
        <ele>133.96</ele>
        <time>2013-06-08T07:21:39Z</time>
      </trkpt>
      <trkpt lat="49.7172" lon="1.93529">
        <ele>134.76</ele>
        <time>2013-06-08T07:21:44Z</time>
      </trkpt>
      <trkpt lat="49.71704" lon="1.93515">
        <ele>137.73</ele>
        <time>2013-06-08T07:22:01Z</time>
      </trkpt>
      <trkpt lat="49.71698" lon="1.93508">
        <ele>139.94</ele>
        <time>2013-06-08T07:22:13Z</time>
      </trkpt>
      <trkpt lat="49.71676" lon="1.93496">
        <ele>141.84</ele>
        <time>2013-06-08T07:22:27Z</time>
      </trkpt>
      <trkpt lat="49.71667" lon="1.93487">
        <ele>143.42</ele>
        <time>2013-06-08T07:22:40Z</time>
      </trkpt>
      <trkpt lat="49.71655" lon="1.93476">
        <ele>144.95</ele>
        <time>2013-06-08T07:22:53Z</time>
      </trkpt>
      <trkpt lat="49.71653" lon="1.93476">
        <ele>145.37</ele>
        <time>2013-06-08T07:22:57Z</time>
      </trkpt>
      <trkpt lat="49.71632" lon="1.93455">
        <ele>147.62</ele>
        <time>2013-06-08T07:23:14Z</time>
      </trkpt>
      <trkpt lat="49.71622" lon="1.93424">
        <ele>150.05</ele>
        <time>2013-06-08T07:23:33Z</time>
      </trkpt>
      <trkpt lat="49.71603" lon="1.93379">
        <ele>151.84</ele>
        <time>2013-06-08T07:23:54Z</time>
      </trkpt>
      <trkpt lat="49.71596" lon="1.93367">
        <ele>152.27</ele>
        <time>2013-06-08T07:23:59Z</time>
      </trkpt>
      <trkpt lat="49.71586" lon="1.93348">
        <ele>152.82</ele>
        <time>2013-06-08T07:24:05Z</time>
      </trkpt>
      <trkpt lat="49.71569" lon="1.9333">
        <ele>153.82</ele>
        <time>2013-06-08T07:24:12Z</time>
      </trkpt>
      <trkpt lat="49.71544" lon="1.93316">
        <ele>154.69</ele>
        <time>2013-06-08T07:24:24Z</time>
      </trkpt>
      <trkpt lat="49.71524" lon="1.93297">
        <ele>156.24</ele>
        <time>2013-06-08T07:24:33Z</time>
      </trkpt>
      <trkpt lat="49.71497" lon="1.93284">
        <ele>156.96</ele>
        <time>2013-06-08T07:24:44Z</time>
      </trkpt>
      <trkpt lat="49.71471" lon="1.93264">
        <ele>158.04</ele>
        <time>2013-06-08T07:24:56Z</time>
      </trkpt>
      <trkpt lat="49.71452" lon="1.93244">
        <ele>158.93</ele>
        <time>2013-06-08T07:25:07Z</time>
      </trkpt>
      <trkpt lat="49.71424" lon="1.93229">
        <ele>160.52</ele>
        <time>2013-06-08T07:25:17Z</time>
      </trkpt>
      <trkpt lat="49.71395" lon="1.9321">
        <ele>161.51</ele>
        <time>2013-06-08T07:25:29Z</time>
      </trkpt>
      <trkpt lat="49.71373" lon="1.93195">
        <ele>161.99</ele>
        <time>2013-06-08T07:25:41Z</time>
      </trkpt>
      <trkpt lat="49.71366" lon="1.93189">
        <ele>162.07</ele>
        <time>2013-06-08T07:25:44Z</time>
      </trkpt>
      <trkpt lat="49.71349" lon="1.93178">
        <ele>162.22</ele>
        <time>2013-06-08T07:25:51Z</time>
      </trkpt>
      <trkpt lat="49.71319" lon="1.93148">
        <ele>163.24</ele>
        <time>2013-06-08T07:26:04Z</time>
      </trkpt>
      <trkpt lat="49.713" lon="1.93124">
        <ele>164.25</ele>
        <time>2013-06-08T07:26:14Z</time>
      </trkpt>
      <trkpt lat="49.71273" lon="1.93095">
        <ele>164.92</ele>
        <time>2013-06-08T07:26:26Z</time>
      </trkpt>
      <trkpt lat="49.71251" lon="1.93074">
        <ele>166.18</ele>
        <time>2013-06-08T07:26:38Z</time>
      </trkpt>
      <trkpt lat="49.71225" lon="1.93047">
        <ele>167.54</ele>
        <time>2013-06-08T07:26:52Z</time>
      </trkpt>
      <trkpt lat="49.71225" lon="1.93045">
        <ele>167.39</ele>
        <time>2013-06-08T07:26:53Z</time>
      </trkpt>
      <trkpt lat="49.71207" lon="1.93011">
        <ele>166.99</ele>
        <time>2013-06-08T07:27:07Z</time>
      </trkpt>
      <trkpt lat="49.71185" lon="1.92974">
        <ele>167</ele>
        <time>2013-06-08T07:27:19Z</time>
      </trkpt>
      <trkpt lat="49.71166" lon="1.92938">
        <ele>168.38</ele>
        <time>2013-06-08T07:27:31Z</time>
      </trkpt>
      <trkpt lat="49.71136" lon="1.92913">
        <ele>170.94</ele>
        <time>2013-06-08T07:27:46Z</time>
      </trkpt>
      <trkpt lat="49.71111" lon="1.92887">
        <ele>173.21</ele>
        <time>2013-06-08T07:27:59Z</time>
      </trkpt>
      <trkpt lat="49.71094" lon="1.92849">
        <ele>174.73</ele>
        <time>2013-06-08T07:28:13Z</time>
      </trkpt>
      <trkpt lat="49.71073" lon="1.92818">
        <ele>176.85</ele>
        <time>2013-06-08T07:28:26Z</time>
      </trkpt>
      <trkpt lat="49.71063" lon="1.92795">
        <ele>177.71</ele>
        <time>2013-06-08T07:28:29Z</time>
      </trkpt>
      <trkpt lat="49.71042" lon="1.92744">
        <ele>178.49</ele>
        <time>2013-06-08T07:28:42Z</time>
      </trkpt>
      <trkpt lat="49.71042" lon="1.92739">
        <ele>178.07</ele>
        <time>2013-06-08T07:29:03Z</time>
      </trkpt>
      <trkpt lat="49.71044" lon="1.92742">
        <ele>178.03</ele>
        <time>2013-06-08T07:29:22Z</time>
      </trkpt>
      <trkpt lat="49.71044" lon="1.92741">
        <ele>177.92</ele>
        <time>2013-06-08T07:29:43Z</time>
      </trkpt>
      <trkpt lat="49.71042" lon="1.92736">
        <ele>178.22</ele>
        <time>2013-06-08T07:30:03Z</time>
      </trkpt>
      <trkpt lat="49.71029" lon="1.92715">
        <ele>178.48</ele>
        <time>2013-06-08T07:30:14Z</time>
      </trkpt>
      <trkpt lat="49.71012" lon="1.92695">
        <ele>178.57</ele>
        <time>2013-06-08T07:30:23Z</time>
      </trkpt>
      <trkpt lat="49.70996" lon="1.92678">
        <ele>178.86</ele>
        <time>2013-06-08T07:30:32Z</time>
      </trkpt>
      <trkpt lat="49.70976" lon="1.92644">
        <ele>179.8</ele>
        <time>2013-06-08T07:30:46Z</time>
      </trkpt>
      <trkpt lat="49.70973" lon="1.92628">
        <ele>179.48</ele>
        <time>2013-06-08T07:30:56Z</time>
      </trkpt>
      <trkpt lat="49.70979" lon="1.92618">
        <ele>179.38</ele>
        <time>2013-06-08T07:31:18Z</time>
      </trkpt>
      <trkpt lat="49.70974" lon="1.92594">
        <ele>176.9</ele>
        <time>2013-06-08T07:31:35Z</time>
      </trkpt>
      <trkpt lat="49.70976" lon="1.92589">
        <ele>176.41</ele>
        <time>2013-06-08T07:31:38Z</time>
      </trkpt>
      <trkpt lat="49.70981" lon="1.92584">
        <ele>175.86</ele>
        <time>2013-06-08T07:31:43Z</time>
      </trkpt>
      <trkpt lat="49.70989" lon="1.92578">
        <ele>175.3</ele>
        <time>2013-06-08T07:31:50Z</time>
      </trkpt>
      <trkpt lat="49.70996" lon="1.92536">
        <ele>172.16</ele>
        <time>2013-06-08T07:32:04Z</time>
      </trkpt>
      <trkpt lat="49.70996" lon="1.92522">
        <ele>171.12</ele>
        <time>2013-06-08T07:32:08Z</time>
      </trkpt>
      <trkpt lat="49.70996" lon="1.92508">
        <ele>169.52</ele>
        <time>2013-06-08T07:32:16Z</time>
      </trkpt>
      <trkpt lat="49.70992" lon="1.92474">
        <ele>166.79</ele>
        <time>2013-06-08T07:32:27Z</time>
      </trkpt>
      <trkpt lat="49.70978" lon="1.92437">
        <ele>163.91</ele>
        <time>2013-06-08T07:32:37Z</time>
      </trkpt>
      <trkpt lat="49.70963" lon="1.92421">
        <ele>160.68</ele>
        <time>2013-06-08T07:32:44Z</time>
      </trkpt>
      <trkpt lat="49.70942" lon="1.92403">
        <ele>157.33</ele>
        <time>2013-06-08T07:32:53Z</time>
      </trkpt>
      <trkpt lat="49.70939" lon="1.92402">
        <ele>157.18</ele>
        <time>2013-06-08T07:32:54Z</time>
      </trkpt>
      <trkpt lat="49.70916" lon="1.92383">
        <ele>154.15</ele>
        <time>2013-06-08T07:33:03Z</time>
      </trkpt>
      <trkpt lat="49.70897" lon="1.92365">
        <ele>151.05</ele>
        <time>2013-06-08T07:33:11Z</time>
      </trkpt>
      <trkpt lat="49.70873" lon="1.92339">
        <ele>147.77</ele>
        <time>2013-06-08T07:33:21Z</time>
      </trkpt>
      <trkpt lat="49.70851" lon="1.9231">
        <ele>144.51</ele>
        <time>2013-06-08T07:33:31Z</time>
      </trkpt>
      <trkpt lat="49.70824" lon="1.92271">
        <ele>141.65</ele>
        <time>2013-06-08T07:33:44Z</time>
      </trkpt>
      <trkpt lat="49.70819" lon="1.92257">
        <ele>140.2</ele>
        <time>2013-06-08T07:33:49Z</time>
      </trkpt>
      <trkpt lat="49.70858" lon="1.92261">
        <ele>138.69</ele>
        <time>2013-06-08T07:34:01Z</time>
      </trkpt>
      <trkpt lat="49.70892" lon="1.92266">
        <ele>137.68</ele>
        <time>2013-06-08T07:34:13Z</time>
      </trkpt>
      <trkpt lat="49.70927" lon="1.9227">
        <ele>136.56</ele>
        <time>2013-06-08T07:34:25Z</time>
      </trkpt>
      <trkpt lat="49.70955" lon="1.92256">
        <ele>135.34</ele>
        <time>2013-06-08T07:34:37Z</time>
      </trkpt>
      <trkpt lat="49.70961" lon="1.92249">
        <ele>134.8</ele>
        <time>2013-06-08T07:34:48Z</time>
      </trkpt>
      <trkpt lat="49.70965" lon="1.92251">
        <ele>134.89</ele>
        <time>2013-06-08T07:34:51Z</time>
      </trkpt>
      <trkpt lat="49.70971" lon="1.92247">
        <ele>134.82</ele>
        <time>2013-06-08T07:35:00Z</time>
      </trkpt>
      <trkpt lat="49.70976" lon="1.92256">
        <ele>135.71</ele>
        <time>2013-06-08T07:35:06Z</time>
      </trkpt>
      <trkpt lat="49.71004" lon="1.92257">
        <ele>135.41</ele>
        <time>2013-06-08T07:35:19Z</time>
      </trkpt>
      <trkpt lat="49.71028" lon="1.92261">
        <ele>134.92</ele>
        <time>2013-06-08T07:35:29Z</time>
      </trkpt>
      <trkpt lat="49.71049" lon="1.92262">
        <ele>135.62</ele>
        <time>2013-06-08T07:35:40Z</time>
      </trkpt>
      <trkpt lat="49.71073" lon="1.92266">
        <ele>135.64</ele>
        <time>2013-06-08T07:35:51Z</time>
      </trkpt>
      <trkpt lat="49.71083" lon="1.92276">
        <ele>135.93</ele>
        <time>2013-06-08T07:35:57Z</time>
      </trkpt>
      <trkpt lat="49.71085" lon="1.92272">
        <ele>135.53</ele>
        <time>2013-06-08T07:36:00Z</time>
      </trkpt>
      <trkpt lat="49.71098" lon="1.9229">
        <ele>135.57</ele>
        <time>2013-06-08T07:36:09Z</time>
      </trkpt>
      <trkpt lat="49.71101" lon="1.92293">
        <ele>135.66</ele>
        <time>2013-06-08T07:36:11Z</time>
      </trkpt>
      <trkpt lat="49.71118" lon="1.92316">
        <ele>136.69</ele>
        <time>2013-06-08T07:36:21Z</time>
      </trkpt>
      <trkpt lat="49.71128" lon="1.92353">
        <ele>137.88</ele>
        <time>2013-06-08T07:36:32Z</time>
      </trkpt>
      <trkpt lat="49.71129" lon="1.92363">
        <ele>139.62</ele>
        <time>2013-06-08T07:36:37Z</time>
      </trkpt>
      <trkpt lat="49.71128" lon="1.92366">
        <ele>139.94</ele>
        <time>2013-06-08T07:36:39Z</time>
      </trkpt>
      <trkpt lat="49.71126" lon="1.92377">
        <ele>141.42</ele>
        <time>2013-06-08T07:36:44Z</time>
      </trkpt>
      <trkpt lat="49.71115" lon="1.92401">
        <ele>144.68</ele>
        <time>2013-06-08T07:36:56Z</time>
      </trkpt>
      <trkpt lat="49.71115" lon="1.92404">
        <ele>145.06</ele>
        <time>2013-06-08T07:36:57Z</time>
      </trkpt>
      <trkpt lat="49.71116" lon="1.92411">
        <ele>146.15</ele>
        <time>2013-06-08T07:37:00Z</time>
      </trkpt>
      <trkpt lat="49.7111" lon="1.92448">
        <ele>149.65</ele>
        <time>2013-06-08T07:37:11Z</time>
      </trkpt>
      <trkpt lat="49.71109" lon="1.92451">
        <ele>149.94</ele>
        <time>2013-06-08T07:37:12Z</time>
      </trkpt>
      <trkpt lat="49.71106" lon="1.92485">
        <ele>152.89</ele>
        <time>2013-06-08T07:37:25Z</time>
      </trkpt>
      <trkpt lat="49.71103" lon="1.92499">
        <ele>156.07</ele>
        <time>2013-06-08T07:37:34Z</time>
      </trkpt>
      <trkpt lat="49.71102" lon="1.92505">
        <ele>156.91</ele>
        <time>2013-06-08T07:37:37Z</time>
      </trkpt>
      <trkpt lat="49.71101" lon="1.92517">
        <ele>158.49</ele>
        <time>2013-06-08T07:37:44Z</time>
      </trkpt>
      <trkpt lat="49.71102" lon="1.92527">
        <ele>157.09</ele>
        <time>2013-06-08T07:37:50Z</time>
      </trkpt>
      <trkpt lat="49.71115" lon="1.92548">
        <ele>153.83</ele>
        <time>2013-06-08T07:38:00Z</time>
      </trkpt>
      <trkpt lat="49.71131" lon="1.92568">
        <ele>150.29</ele>
        <time>2013-06-08T07:38:09Z</time>
      </trkpt>
      <trkpt lat="49.71138" lon="1.9258">
        <ele>148.1</ele>
        <time>2013-06-08T07:38:14Z</time>
      </trkpt>
      <trkpt lat="49.71151" lon="1.92618">
        <ele>144.37</ele>
        <time>2013-06-08T07:38:24Z</time>
      </trkpt>
      <trkpt lat="49.71177" lon="1.92639">
        <ele>141.28</ele>
        <time>2013-06-08T07:38:33Z</time>
      </trkpt>
      <trkpt lat="49.71193" lon="1.92656">
        <ele>137.94</ele>
        <time>2013-06-08T07:38:43Z</time>
      </trkpt>
      <trkpt lat="49.71211" lon="1.9267">
        <ele>134.87</ele>
        <time>2013-06-08T07:38:52Z</time>
      </trkpt>
      <trkpt lat="49.71227" lon="1.92663">
        <ele>132.97</ele>
        <time>2013-06-08T07:38:59Z</time>
      </trkpt>
      <trkpt lat="49.7124" lon="1.92658">
        <ele>132.22</ele>
        <time>2013-06-08T07:39:04Z</time>
      </trkpt>
      <trkpt lat="49.71263" lon="1.92649">
        <ele>131.6</ele>
        <time>2013-06-08T07:39:14Z</time>
      </trkpt>
      <trkpt lat="49.71266" lon="1.92647">
        <ele>131.53</ele>
        <time>2013-06-08T07:39:18Z</time>
      </trkpt>
      <trkpt lat="49.71292" lon="1.92631">
        <ele>131.87</ele>
        <time>2013-06-08T07:39:30Z</time>
      </trkpt>
      <trkpt lat="49.71321" lon="1.92655">
        <ele>132.75</ele>
        <time>2013-06-08T07:39:41Z</time>
      </trkpt>
      <trkpt lat="49.71343" lon="1.9267">
        <ele>133.42</ele>
        <time>2013-06-08T07:39:52Z</time>
      </trkpt>
      <trkpt lat="49.71371" lon="1.92703">
        <ele>134.6</ele>
        <time>2013-06-08T07:40:06Z</time>
      </trkpt>
      <trkpt lat="49.71396" lon="1.92724">
        <ele>135.75</ele>
        <time>2013-06-08T07:40:18Z</time>
      </trkpt>
      <trkpt lat="49.71425" lon="1.9273">
        <ele>137.65</ele>
        <time>2013-06-08T07:40:31Z</time>
      </trkpt>
      <trkpt lat="49.71452" lon="1.92742">
        <ele>140.17</ele>
        <time>2013-06-08T07:40:45Z</time>
      </trkpt>
      <trkpt lat="49.71473" lon="1.92748">
        <ele>142.6</ele>
        <time>2013-06-08T07:40:57Z</time>
      </trkpt>
      <trkpt lat="49.71499" lon="1.92754">
        <ele>145.17</ele>
        <time>2013-06-08T07:41:09Z</time>
      </trkpt>
      <trkpt lat="49.71528" lon="1.92757">
        <ele>147.02</ele>
        <time>2013-06-08T07:41:21Z</time>
      </trkpt>
      <trkpt lat="49.71552" lon="1.92758">
        <ele>148.23</ele>
        <time>2013-06-08T07:41:31Z</time>
      </trkpt>
      <trkpt lat="49.71578" lon="1.92758">
        <ele>149.31</ele>
        <time>2013-06-08T07:41:45Z</time>
      </trkpt>
      <trkpt lat="49.71594" lon="1.92756">
        <ele>151.21</ele>
        <time>2013-06-08T07:41:54Z</time>
      </trkpt>
      <trkpt lat="49.71597" lon="1.92749">
        <ele>152.68</ele>
        <time>2013-06-08T07:41:58Z</time>
      </trkpt>
      <trkpt lat="49.7158" lon="1.92715">
        <ele>154.19</ele>
        <time>2013-06-08T07:42:12Z</time>
      </trkpt>
      <trkpt lat="49.71557" lon="1.92681">
        <ele>155.07</ele>
        <time>2013-06-08T07:42:26Z</time>
      </trkpt>
      <trkpt lat="49.71539" lon="1.92646">
        <ele>155.37</ele>
        <time>2013-06-08T07:42:38Z</time>
      </trkpt>
      <trkpt lat="49.71551" lon="1.92612">
        <ele>157.54</ele>
        <time>2013-06-08T07:42:49Z</time>
      </trkpt>
      <trkpt lat="49.71569" lon="1.92591">
        <ele>160.07</ele>
        <time>2013-06-08T07:43:01Z</time>
      </trkpt>
      <trkpt lat="49.71593" lon="1.92579">
        <ele>162.55</ele>
        <time>2013-06-08T07:43:13Z</time>
      </trkpt>
      <trkpt lat="49.71614" lon="1.92566">
        <ele>164.96</ele>
        <time>2013-06-08T07:43:25Z</time>
      </trkpt>
      <trkpt lat="49.71626" lon="1.92555">
        <ele>167.96</ele>
        <time>2013-06-08T07:43:33Z</time>
      </trkpt>
      <trkpt lat="49.71655" lon="1.92522">
        <ele>169.59</ele>
        <time>2013-06-08T07:43:46Z</time>
      </trkpt>
      <trkpt lat="49.71673" lon="1.92474">
        <ele>172.89</ele>
        <time>2013-06-08T07:44:01Z</time>
      </trkpt>
      <trkpt lat="49.71692" lon="1.92439">
        <ele>175.18</ele>
        <time>2013-06-08T07:44:14Z</time>
      </trkpt>
      <trkpt lat="49.71715" lon="1.924">
        <ele>177.22</ele>
        <time>2013-06-08T07:44:29Z</time>
      </trkpt>
      <trkpt lat="49.71733" lon="1.92359">
        <ele>178.41</ele>
        <time>2013-06-08T07:44:43Z</time>
      </trkpt>
      <trkpt lat="49.71756" lon="1.9232">
        <ele>179.32</ele>
        <time>2013-06-08T07:44:57Z</time>
      </trkpt>
      <trkpt lat="49.71781" lon="1.92283">
        <ele>180.66</ele>
        <time>2013-06-08T07:45:12Z</time>
      </trkpt>
      <trkpt lat="49.71803" lon="1.92244">
        <ele>180.52</ele>
        <time>2013-06-08T07:45:26Z</time>
      </trkpt>
      <trkpt lat="49.71805" lon="1.92243">
        <ele>179.85</ele>
        <time>2013-06-08T07:45:36Z</time>
      </trkpt>
      <trkpt lat="49.71802" lon="1.92238">
        <ele>179.83</ele>
        <time>2013-06-08T07:45:39Z</time>
      </trkpt>
      <trkpt lat="49.71792" lon="1.92219">
        <ele>180.17</ele>
        <time>2013-06-08T07:45:47Z</time>
      </trkpt>
      <trkpt lat="49.71774" lon="1.92182">
        <ele>179.77</ele>
        <time>2013-06-08T07:46:00Z</time>
      </trkpt>
      <trkpt lat="49.71757" lon="1.92141">
        <ele>179.56</ele>
        <time>2013-06-08T07:46:13Z</time>
      </trkpt>
      <trkpt lat="49.71739" lon="1.92105">
        <ele>179.41</ele>
        <time>2013-06-08T07:46:25Z</time>
      </trkpt>
      <trkpt lat="49.71718" lon="1.9206">
        <ele>179.01</ele>
        <time>2013-06-08T07:46:39Z</time>
      </trkpt>
      <trkpt lat="49.71699" lon="1.92023">
        <ele>179.3</ele>
        <time>2013-06-08T07:46:51Z</time>
      </trkpt>
      <trkpt lat="49.7168" lon="1.91981">
        <ele>179.28</ele>
        <time>2013-06-08T07:47:04Z</time>
      </trkpt>
      <trkpt lat="49.71656" lon="1.91942">
        <ele>179.11</ele>
        <time>2013-06-08T07:47:18Z</time>
      </trkpt>
      <trkpt lat="49.71651" lon="1.91934">
        <ele>179</ele>
        <time>2013-06-08T07:47:21Z</time>
      </trkpt>
      <trkpt lat="49.7166" lon="1.91915">
        <ele>178.98</ele>
        <time>2013-06-08T07:47:27Z</time>
      </trkpt>
      <trkpt lat="49.71685" lon="1.91908">
        <ele>178.92</ele>
        <time>2013-06-08T07:47:38Z</time>
      </trkpt>
      <trkpt lat="49.71707" lon="1.91903">
        <ele>178.4</ele>
        <time>2013-06-08T07:47:50Z</time>
      </trkpt>
      <trkpt lat="49.71708" lon="1.91901">
        <ele>178.42</ele>
        <time>2013-06-08T07:47:51Z</time>
      </trkpt>
      <trkpt lat="49.71709" lon="1.91895">
        <ele>177.88</ele>
        <time>2013-06-08T07:47:54Z</time>
      </trkpt>
      <trkpt lat="49.71701" lon="1.91876">
        <ele>178.15</ele>
        <time>2013-06-08T07:48:01Z</time>
      </trkpt>
      <trkpt lat="49.71698" lon="1.91867">
        <ele>178.21</ele>
        <time>2013-06-08T07:48:04Z</time>
      </trkpt>
      <trkpt lat="49.71697" lon="1.91855">
        <ele>177.64</ele>
        <time>2013-06-08T07:48:09Z</time>
      </trkpt>
      <trkpt lat="49.71692" lon="1.91816">
        <ele>177.45</ele>
        <time>2013-06-08T07:48:23Z</time>
      </trkpt>
      <trkpt lat="49.71679" lon="1.91773">
        <ele>177.54</ele>
        <time>2013-06-08T07:48:36Z</time>
      </trkpt>
      <trkpt lat="49.71672" lon="1.91732">
        <ele>177.52</ele>
        <time>2013-06-08T07:48:48Z</time>
      </trkpt>
      <trkpt lat="49.71662" lon="1.91689">
        <ele>177.79</ele>
        <time>2013-06-08T07:48:59Z</time>
      </trkpt>
      <trkpt lat="49.71653" lon="1.91656">
        <ele>177.88</ele>
        <time>2013-06-08T07:49:07Z</time>
      </trkpt>
      <trkpt lat="49.71646" lon="1.91615">
        <ele>178.28</ele>
        <time>2013-06-08T07:49:18Z</time>
      </trkpt>
      <trkpt lat="49.71637" lon="1.91573">
        <ele>178.75</ele>
        <time>2013-06-08T07:49:29Z</time>
      </trkpt>
      <trkpt lat="49.71627" lon="1.9153">
        <ele>178.93</ele>
        <time>2013-06-08T07:49:41Z</time>
      </trkpt>
      <trkpt lat="49.71619" lon="1.91482">
        <ele>179.57</ele>
        <time>2013-06-08T07:49:54Z</time>
      </trkpt>
      <trkpt lat="49.71606" lon="1.9144">
        <ele>179.75</ele>
        <time>2013-06-08T07:50:05Z</time>
      </trkpt>
      <trkpt lat="49.71597" lon="1.91397">
        <ele>179.79</ele>
        <time>2013-06-08T07:50:17Z</time>
      </trkpt>
      <trkpt lat="49.71589" lon="1.9135">
        <ele>180.3</ele>
        <time>2013-06-08T07:50:31Z</time>
      </trkpt>
      <trkpt lat="49.71578" lon="1.91296">
        <ele>179.93</ele>
        <time>2013-06-08T07:50:45Z</time>
      </trkpt>
      <trkpt lat="49.71567" lon="1.9124">
        <ele>180.01</ele>
        <time>2013-06-08T07:50:59Z</time>
      </trkpt>
      <trkpt lat="49.71556" lon="1.91204">
        <ele>180.42</ele>
        <time>2013-06-08T07:51:09Z</time>
      </trkpt>
      <trkpt lat="49.71542" lon="1.91153">
        <ele>179.92</ele>
        <time>2013-06-08T07:51:22Z</time>
      </trkpt>
      <trkpt lat="49.71522" lon="1.9112">
        <ele>180.67</ele>
        <time>2013-06-08T07:51:32Z</time>
      </trkpt>
      <trkpt lat="49.71499" lon="1.91086">
        <ele>180.05</ele>
        <time>2013-06-08T07:51:44Z</time>
      </trkpt>
      <trkpt lat="49.71497" lon="1.91085">
        <ele>180.22</ele>
        <time>2013-06-08T07:51:45Z</time>
      </trkpt>
      <trkpt lat="49.71469" lon="1.91061">
        <ele>180.74</ele>
        <time>2013-06-08T07:51:58Z</time>
      </trkpt>
      <trkpt lat="49.71451" lon="1.91045">
        <ele>182.18</ele>
        <time>2013-06-08T07:52:07Z</time>
      </trkpt>
      <trkpt lat="49.71445" lon="1.91039">
        <ele>181.13</ele>
        <time>2013-06-08T07:52:11Z</time>
      </trkpt>
      <trkpt lat="49.71437" lon="1.91037">
        <ele>181.89</ele>
        <time>2013-06-08T07:52:24Z</time>
      </trkpt>
      <trkpt lat="49.71432" lon="1.91027">
        <ele>181.33</ele>
        <time>2013-06-08T07:52:36Z</time>
      </trkpt>
      <trkpt lat="49.71431" lon="1.91022">
        <ele>181.26</ele>
        <time>2013-06-08T07:52:38Z</time>
      </trkpt>
      <trkpt lat="49.71429" lon="1.90997">
        <ele>178.93</ele>
        <time>2013-06-08T07:52:51Z</time>
      </trkpt>
      <trkpt lat="49.71429" lon="1.90971">
        <ele>177.82</ele>
        <time>2013-06-08T07:53:02Z</time>
      </trkpt>
      <trkpt lat="49.71428" lon="1.90943">
        <ele>176.02</ele>
        <time>2013-06-08T07:53:17Z</time>
      </trkpt>
      <trkpt lat="49.71426" lon="1.90937">
        <ele>175.7</ele>
        <time>2013-06-08T07:53:20Z</time>
      </trkpt>
      <trkpt lat="49.71425" lon="1.90928">
        <ele>175.26</ele>
        <time>2013-06-08T07:53:25Z</time>
      </trkpt>
      <trkpt lat="49.71422" lon="1.90915">
        <ele>174.24</ele>
        <time>2013-06-08T07:53:32Z</time>
      </trkpt>
      <trkpt lat="49.71418" lon="1.90889">
        <ele>172.32</ele>
        <time>2013-06-08T07:53:46Z</time>
      </trkpt>
      <trkpt lat="49.71417" lon="1.90872">
        <ele>170.89</ele>
        <time>2013-06-08T07:53:59Z</time>
      </trkpt>
      <trkpt lat="49.71414" lon="1.90855">
        <ele>169.08</ele>
        <time>2013-06-08T07:54:13Z</time>
      </trkpt>
      <trkpt lat="49.71404" lon="1.90828">
        <ele>166.82</ele>
        <time>2013-06-08T07:54:29Z</time>
      </trkpt>
      <trkpt lat="49.71397" lon="1.90805">
        <ele>163.6</ele>
        <time>2013-06-08T07:54:42Z</time>
      </trkpt>
      <trkpt lat="49.71395" lon="1.90786">
        <ele>160.43</ele>
        <time>2013-06-08T07:54:53Z</time>
      </trkpt>
      <trkpt lat="49.71397" lon="1.90773">
        <ele>159.75</ele>
        <time>2013-06-08T07:55:02Z</time>
      </trkpt>
      <trkpt lat="49.71383" lon="1.90744">
        <ele>156.82</ele>
        <time>2013-06-08T07:55:17Z</time>
      </trkpt>
      <trkpt lat="49.71375" lon="1.90725">
        <ele>154.84</ele>
        <time>2013-06-08T07:55:30Z</time>
      </trkpt>
      <trkpt lat="49.71371" lon="1.90714">
        <ele>153.84</ele>
        <time>2013-06-08T07:55:36Z</time>
      </trkpt>
      <trkpt lat="49.71371" lon="1.90699">
        <ele>152.77</ele>
        <time>2013-06-08T07:55:41Z</time>
      </trkpt>
      <trkpt lat="49.71373" lon="1.90694">
        <ele>152.59</ele>
        <time>2013-06-08T07:55:45Z</time>
      </trkpt>
      <trkpt lat="49.71387" lon="1.90698">
        <ele>151.32</ele>
        <time>2013-06-08T07:55:53Z</time>
      </trkpt>
      <trkpt lat="49.71413" lon="1.90697">
        <ele>147.88</ele>
        <time>2013-06-08T07:56:04Z</time>
      </trkpt>
      <trkpt lat="49.7142" lon="1.90697">
        <ele>146.51</ele>
        <time>2013-06-08T07:56:07Z</time>
      </trkpt>
      <trkpt lat="49.71445" lon="1.9068">
        <ele>143.41</ele>
        <time>2013-06-08T07:56:18Z</time>
      </trkpt>
      <trkpt lat="49.71458" lon="1.9065">
        <ele>142.33</ele>
        <time>2013-06-08T07:56:27Z</time>
      </trkpt>
      <trkpt lat="49.71465" lon="1.90613">
        <ele>142.1</ele>
        <time>2013-06-08T07:56:38Z</time>
      </trkpt>
      <trkpt lat="49.71462" lon="1.90566">
        <ele>142.47</ele>
        <time>2013-06-08T07:56:52Z</time>
      </trkpt>
      <trkpt lat="49.71461" lon="1.90528">
        <ele>141.22</ele>
        <time>2013-06-08T07:57:02Z</time>
      </trkpt>
      <trkpt lat="49.7146" lon="1.90485">
        <ele>142.83</ele>
        <time>2013-06-08T07:57:15Z</time>
      </trkpt>
      <trkpt lat="49.71457" lon="1.90469">
        <ele>144.1</ele>
        <time>2013-06-08T07:57:21Z</time>
      </trkpt>
      <trkpt lat="49.71447" lon="1.90445">
        <ele>147.12</ele>
        <time>2013-06-08T07:57:32Z</time>
      </trkpt>
      <trkpt lat="49.71441" lon="1.90436">
        <ele>148.78</ele>
        <time>2013-06-08T07:57:36Z</time>
      </trkpt>
      <trkpt lat="49.71433" lon="1.90404">
        <ele>151.73</ele>
        <time>2013-06-08T07:57:48Z</time>
      </trkpt>
      <trkpt lat="49.7143" lon="1.90391">
        <ele>153.12</ele>
        <time>2013-06-08T07:57:54Z</time>
      </trkpt>
      <trkpt lat="49.71428" lon="1.90375">
        <ele>154.9</ele>
        <time>2013-06-08T07:58:01Z</time>
      </trkpt>
      <trkpt lat="49.71413" lon="1.90346">
        <ele>158.36</ele>
        <time>2013-06-08T07:58:14Z</time>
      </trkpt>
      <trkpt lat="49.71396" lon="1.90314">
        <ele>160.68</ele>
        <time>2013-06-08T07:58:28Z</time>
      </trkpt>
      <trkpt lat="49.71381" lon="1.90295">
        <ele>163.59</ele>
        <time>2013-06-08T07:58:40Z</time>
      </trkpt>
      <trkpt lat="49.71369" lon="1.90284">
        <ele>165.87</ele>
        <time>2013-06-08T07:58:52Z</time>
      </trkpt>
      <trkpt lat="49.71356" lon="1.90282">
        <ele>169.49</ele>
        <time>2013-06-08T07:59:02Z</time>
      </trkpt>
      <trkpt lat="49.71353" lon="1.90288">
        <ele>171.54</ele>
        <time>2013-06-08T07:59:07Z</time>
      </trkpt>
      <trkpt lat="49.71352" lon="1.90297">
        <ele>172.44</ele>
        <time>2013-06-08T07:59:11Z</time>
      </trkpt>
      <trkpt lat="49.71341" lon="1.90297">
        <ele>174.5</ele>
        <time>2013-06-08T07:59:21Z</time>
      </trkpt>
      <trkpt lat="49.71326" lon="1.90266">
        <ele>174.59</ele>
        <time>2013-06-08T07:59:35Z</time>
      </trkpt>
      <trkpt lat="49.71323" lon="1.90258">
        <ele>174.62</ele>
        <time>2013-06-08T07:59:38Z</time>
      </trkpt>
      <trkpt lat="49.71303" lon="1.90242">
        <ele>176.45</ele>
        <time>2013-06-08T07:59:49Z</time>
      </trkpt>
      <trkpt lat="49.7129" lon="1.90205">
        <ele>177.67</ele>
        <time>2013-06-08T08:00:01Z</time>
      </trkpt>
      <trkpt lat="49.71273" lon="1.90164">
        <ele>178.66</ele>
        <time>2013-06-08T08:00:14Z</time>
      </trkpt>
      <trkpt lat="49.71259" lon="1.90129">
        <ele>179.96</ele>
        <time>2013-06-08T08:00:26Z</time>
      </trkpt>
      <trkpt lat="49.71254" lon="1.9011">
        <ele>179.9</ele>
        <time>2013-06-08T08:00:31Z</time>
      </trkpt>
      <trkpt lat="49.71253" lon="1.90095">
        <ele>179.98</ele>
        <time>2013-06-08T08:00:36Z</time>
      </trkpt>
      <trkpt lat="49.71243" lon="1.90062">
        <ele>180.46</ele>
        <time>2013-06-08T08:00:45Z</time>
      </trkpt>
      <trkpt lat="49.71233" lon="1.90024">
        <ele>180.62</ele>
        <time>2013-06-08T08:00:56Z</time>
      </trkpt>
      <trkpt lat="49.71219" lon="1.89991">
        <ele>181.67</ele>
        <time>2013-06-08T08:01:07Z</time>
      </trkpt>
      <trkpt lat="49.712" lon="1.89946">
        <ele>182.89</ele>
        <time>2013-06-08T08:01:22Z</time>
      </trkpt>
      <trkpt lat="49.71188" lon="1.89911">
        <ele>183.67</ele>
        <time>2013-06-08T08:01:33Z</time>
      </trkpt>
      <trkpt lat="49.71186" lon="1.89885">
        <ele>184.14</ele>
        <time>2013-06-08T08:01:44Z</time>
      </trkpt>
      <trkpt lat="49.71188" lon="1.89874">
        <ele>183.77</ele>
        <time>2013-06-08T08:01:49Z</time>
      </trkpt>
      <trkpt lat="49.71187" lon="1.89852">
        <ele>183.39</ele>
        <time>2013-06-08T08:02:00Z</time>
      </trkpt>
      <trkpt lat="49.71186" lon="1.89849">
        <ele>183.22</ele>
        <time>2013-06-08T08:02:02Z</time>
      </trkpt>
      <trkpt lat="49.71184" lon="1.89844">
        <ele>182.96</ele>
        <time>2013-06-08T08:02:06Z</time>
      </trkpt>
      <trkpt lat="49.7118" lon="1.89836">
        <ele>183.71</ele>
        <time>2013-06-08T08:02:12Z</time>
      </trkpt>
      <trkpt lat="49.71179" lon="1.89833">
        <ele>184.23</ele>
        <time>2013-06-08T08:02:14Z</time>
      </trkpt>
      <trkpt lat="49.71166" lon="1.89811">
        <ele>184.98</ele>
        <time>2013-06-08T08:02:28Z</time>
      </trkpt>
      <trkpt lat="49.71155" lon="1.89789">
        <ele>185.26</ele>
        <time>2013-06-08T08:02:40Z</time>
      </trkpt>
      <trkpt lat="49.71145" lon="1.8977">
        <ele>185.33</ele>
        <time>2013-06-08T08:02:52Z</time>
      </trkpt>
      <trkpt lat="49.71134" lon="1.89745">
        <ele>185.87</ele>
        <time>2013-06-08T08:03:05Z</time>
      </trkpt>
      <trkpt lat="49.71128" lon="1.89716">
        <ele>186.13</ele>
        <time>2013-06-08T08:03:18Z</time>
      </trkpt>
      <trkpt lat="49.71125" lon="1.89684">
        <ele>185.77</ele>
        <time>2013-06-08T08:03:28Z</time>
      </trkpt>
      <trkpt lat="49.71117" lon="1.89642">
        <ele>185.55</ele>
        <time>2013-06-08T08:03:40Z</time>
      </trkpt>
      <trkpt lat="49.71116" lon="1.89633">
        <ele>185.89</ele>
        <time>2013-06-08T08:03:43Z</time>
      </trkpt>
      <trkpt lat="49.71114" lon="1.89595">
        <ele>185.78</ele>
        <time>2013-06-08T08:03:54Z</time>
      </trkpt>
      <trkpt lat="49.71123" lon="1.89549">
        <ele>184.65</ele>
        <time>2013-06-08T08:04:06Z</time>
      </trkpt>
      <trkpt lat="49.71133" lon="1.89503">
        <ele>183.99</ele>
        <time>2013-06-08T08:04:19Z</time>
      </trkpt>
      <trkpt lat="49.71135" lon="1.89493">
        <ele>183.54</ele>
        <time>2013-06-08T08:04:23Z</time>
      </trkpt>
      <trkpt lat="49.71144" lon="1.89443">
        <ele>182.54</ele>
        <time>2013-06-08T08:04:36Z</time>
      </trkpt>
      <trkpt lat="49.71136" lon="1.89407">
        <ele>182.55</ele>
        <time>2013-06-08T08:04:46Z</time>
      </trkpt>
      <trkpt lat="49.71123" lon="1.89353">
        <ele>182.69</ele>
        <time>2013-06-08T08:04:59Z</time>
      </trkpt>
      <trkpt lat="49.71111" lon="1.89314">
        <ele>183.09</ele>
        <time>2013-06-08T08:05:09Z</time>
      </trkpt>
      <trkpt lat="49.71093" lon="1.89274">
        <ele>183.14</ele>
        <time>2013-06-08T08:05:21Z</time>
      </trkpt>
      <trkpt lat="49.71072" lon="1.8924">
        <ele>183</ele>
        <time>2013-06-08T08:05:34Z</time>
      </trkpt>
      <trkpt lat="49.71065" lon="1.89227">
        <ele>183.11</ele>
        <time>2013-06-08T08:05:39Z</time>
      </trkpt>
      <trkpt lat="49.71059" lon="1.89212">
        <ele>183.5</ele>
        <time>2013-06-08T08:05:43Z</time>
      </trkpt>
      <trkpt lat="49.71039" lon="1.89162">
        <ele>184.3</ele>
        <time>2013-06-08T08:05:57Z</time>
      </trkpt>
      <trkpt lat="49.71023" lon="1.89112">
        <ele>184.4</ele>
        <time>2013-06-08T08:06:11Z</time>
      </trkpt>
      <trkpt lat="49.71023" lon="1.89109">
        <ele>184.4</ele>
        <time>2013-06-08T08:06:12Z</time>
      </trkpt>
      <trkpt lat="49.71006" lon="1.89067">
        <ele>185.15</ele>
        <time>2013-06-08T08:06:24Z</time>
      </trkpt>
      <trkpt lat="49.70995" lon="1.89031">
        <ele>184.89</ele>
        <time>2013-06-08T08:06:35Z</time>
      </trkpt>
      <trkpt lat="49.70977" lon="1.88995">
        <ele>185.03</ele>
        <time>2013-06-08T08:06:45Z</time>
      </trkpt>
      <trkpt lat="49.7096" lon="1.88958">
        <ele>184.8</ele>
        <time>2013-06-08T08:06:56Z</time>
      </trkpt>
      <trkpt lat="49.70954" lon="1.88909">
        <ele>184.01</ele>
        <time>2013-06-08T08:07:08Z</time>
      </trkpt>
      <trkpt lat="49.70952" lon="1.88898">
        <ele>183.81</ele>
        <time>2013-06-08T08:07:11Z</time>
      </trkpt>
      <trkpt lat="49.70937" lon="1.88874">
        <ele>183.67</ele>
        <time>2013-06-08T08:07:18Z</time>
      </trkpt>
      <trkpt lat="49.70919" lon="1.88841">
        <ele>183.43</ele>
        <time>2013-06-08T08:07:29Z</time>
      </trkpt>
      <trkpt lat="49.70892" lon="1.888">
        <ele>182.99</ele>
        <time>2013-06-08T08:07:43Z</time>
      </trkpt>
      <trkpt lat="49.7087" lon="1.88771">
        <ele>182.62</ele>
        <time>2013-06-08T08:07:54Z</time>
      </trkpt>
      <trkpt lat="49.70841" lon="1.88744">
        <ele>183.11</ele>
        <time>2013-06-08T08:08:07Z</time>
      </trkpt>
      <trkpt lat="49.70822" lon="1.88721">
        <ele>183.49</ele>
        <time>2013-06-08T08:08:16Z</time>
      </trkpt>
      <trkpt lat="49.70821" lon="1.88701">
        <ele>182.56</ele>
        <time>2013-06-08T08:08:24Z</time>
      </trkpt>
      <trkpt lat="49.70818" lon="1.88683">
        <ele>182.19</ele>
        <time>2013-06-08T08:08:31Z</time>
      </trkpt>
      <trkpt lat="49.70818" lon="1.88667">
        <ele>182.17</ele>
        <time>2013-06-08T08:08:39Z</time>
      </trkpt>
      <trkpt lat="49.70798" lon="1.88627">
        <ele>182.54</ele>
        <time>2013-06-08T08:08:53Z</time>
      </trkpt>
      <trkpt lat="49.70793" lon="1.88619">
        <ele>182.83</ele>
        <time>2013-06-08T08:08:57Z</time>
      </trkpt>
      <trkpt lat="49.70782" lon="1.88578">
        <ele>181.95</ele>
        <time>2013-06-08T08:09:12Z</time>
      </trkpt>
      <trkpt lat="49.70772" lon="1.88542">
        <ele>181.52</ele>
        <time>2013-06-08T08:09:24Z</time>
      </trkpt>
      <trkpt lat="49.70759" lon="1.88511">
        <ele>181.19</ele>
        <time>2013-06-08T08:09:33Z</time>
      </trkpt>
      <trkpt lat="49.70748" lon="1.88491">
        <ele>181.15</ele>
        <time>2013-06-08T08:09:40Z</time>
      </trkpt>
      <trkpt lat="49.7074" lon="1.88472">
        <ele>180.49</ele>
        <time>2013-06-08T08:09:46Z</time>
      </trkpt>
      <trkpt lat="49.70718" lon="1.88432">
        <ele>180.59</ele>
        <time>2013-06-08T08:09:58Z</time>
      </trkpt>
      <trkpt lat="49.70697" lon="1.88396">
        <ele>180.76</ele>
        <time>2013-06-08T08:10:10Z</time>
      </trkpt>
      <trkpt lat="49.70685" lon="1.88363">
        <ele>179.74</ele>
        <time>2013-06-08T08:10:21Z</time>
      </trkpt>
      <trkpt lat="49.70682" lon="1.88332">
        <ele>180.09</ele>
        <time>2013-06-08T08:10:31Z</time>
      </trkpt>
      <trkpt lat="49.70673" lon="1.88291">
        <ele>181.6</ele>
        <time>2013-06-08T08:10:43Z</time>
      </trkpt>
      <trkpt lat="49.70672" lon="1.88285">
        <ele>181.73</ele>
        <time>2013-06-08T08:10:45Z</time>
      </trkpt>
      <trkpt lat="49.70647" lon="1.88237">
        <ele>182.44</ele>
        <time>2013-06-08T08:10:58Z</time>
      </trkpt>
      <trkpt lat="49.7063" lon="1.88201">
        <ele>183.07</ele>
        <time>2013-06-08T08:11:09Z</time>
      </trkpt>
      <trkpt lat="49.70603" lon="1.88166">
        <ele>184.27</ele>
        <time>2013-06-08T08:11:23Z</time>
      </trkpt>
      <trkpt lat="49.70583" lon="1.8812">
        <ele>182.73</ele>
        <time>2013-06-08T08:11:34Z</time>
      </trkpt>
      <trkpt lat="49.70557" lon="1.88094">
        <ele>181.49</ele>
        <time>2013-06-08T08:11:48Z</time>
      </trkpt>
      <trkpt lat="49.70536" lon="1.88061">
        <ele>181.44</ele>
        <time>2013-06-08T08:12:00Z</time>
      </trkpt>
      <trkpt lat="49.70528" lon="1.88055">
        <ele>181.82</ele>
        <time>2013-06-08T08:12:05Z</time>
      </trkpt>
      <trkpt lat="49.7052" lon="1.88052">
        <ele>183.52</ele>
        <time>2013-06-08T08:12:10Z</time>
      </trkpt>
      <trkpt lat="49.70491" lon="1.88047">
        <ele>185.55</ele>
        <time>2013-06-08T08:12:26Z</time>
      </trkpt>
      <trkpt lat="49.70485" lon="1.88046">
        <ele>185.31</ele>
        <time>2013-06-08T08:12:34Z</time>
      </trkpt>
      <trkpt lat="49.70467" lon="1.88045">
        <ele>185.45</ele>
        <time>2013-06-08T08:12:49Z</time>
      </trkpt>
      <trkpt lat="49.70464" lon="1.88044">
        <ele>185.72</ele>
        <time>2013-06-08T08:13:01Z</time>
      </trkpt>
      <trkpt lat="49.70462" lon="1.88035">
        <ele>185.48</ele>
        <time>2013-06-08T08:13:06Z</time>
      </trkpt>
      <trkpt lat="49.70464" lon="1.88002">
        <ele>182.41</ele>
        <time>2013-06-08T08:13:19Z</time>
      </trkpt>
      <trkpt lat="49.70462" lon="1.87993">
        <ele>181.49</ele>
        <time>2013-06-08T08:13:35Z</time>
      </trkpt>
      <trkpt lat="49.70463" lon="1.87992">
        <ele>181.3</ele>
        <time>2013-06-08T08:13:52Z</time>
      </trkpt>
      <trkpt lat="49.70462" lon="1.87994">
        <ele>181.66</ele>
        <time>2013-06-08T08:14:09Z</time>
      </trkpt>
      <trkpt lat="49.70462" lon="1.87982">
        <ele>181.33</ele>
        <time>2013-06-08T08:14:24Z</time>
      </trkpt>
      <trkpt lat="49.70466" lon="1.8797">
        <ele>177.96</ele>
        <time>2013-06-08T08:14:36Z</time>
      </trkpt>
      <trkpt lat="49.70468" lon="1.8797">
        <ele>177.26</ele>
        <time>2013-06-08T08:14:38Z</time>
      </trkpt>
      <trkpt lat="49.70472" lon="1.87969">
        <ele>175.38</ele>
        <time>2013-06-08T08:14:42Z</time>
      </trkpt>
      <trkpt lat="49.70475" lon="1.87966">
        <ele>172.58</ele>
        <time>2013-06-08T08:14:50Z</time>
      </trkpt>
      <trkpt lat="49.70484" lon="1.87957">
        <ele>169.31</ele>
        <time>2013-06-08T08:14:58Z</time>
      </trkpt>
      <trkpt lat="49.70485" lon="1.87953">
        <ele>168.23</ele>
        <time>2013-06-08T08:15:14Z</time>
      </trkpt>
      <trkpt lat="49.7049" lon="1.87947">
        <ele>167.34</ele>
        <time>2013-06-08T08:15:29Z</time>
      </trkpt>
      <trkpt lat="49.70497" lon="1.87941">
        <ele>167.49</ele>
        <time>2013-06-08T08:15:39Z</time>
      </trkpt>
      <trkpt lat="49.705" lon="1.87937">
        <ele>166.98</ele>
        <time>2013-06-08T08:15:42Z</time>
      </trkpt>
      <trkpt lat="49.70499" lon="1.87934">
        <ele>166.96</ele>
        <time>2013-06-08T08:15:44Z</time>
      </trkpt>
      <trkpt lat="49.70498" lon="1.87932">
        <ele>166.57</ele>
        <time>2013-06-08T08:15:46Z</time>
      </trkpt>
      <trkpt lat="49.705" lon="1.87906">
        <ele>165.42</ele>
        <time>2013-06-08T08:15:57Z</time>
      </trkpt>
      <trkpt lat="49.70505" lon="1.87895">
        <ele>164.32</ele>
        <time>2013-06-08T08:16:09Z</time>
      </trkpt>
      <trkpt lat="49.70506" lon="1.87893">
        <ele>164.01</ele>
        <time>2013-06-08T08:16:11Z</time>
      </trkpt>
      <trkpt lat="49.70516" lon="1.87881">
        <ele>162.38</ele>
        <time>2013-06-08T08:16:23Z</time>
      </trkpt>
      <trkpt lat="49.7054" lon="1.8788">
        <ele>161.62</ele>
        <time>2013-06-08T08:16:35Z</time>
      </trkpt>
      <trkpt lat="49.70571" lon="1.87898">
        <ele>161.23</ele>
        <time>2013-06-08T08:16:48Z</time>
      </trkpt>
      <trkpt lat="49.70596" lon="1.87912">
        <ele>160.35</ele>
        <time>2013-06-08T08:16:59Z</time>
      </trkpt>
      <trkpt lat="49.70623" lon="1.87924">
        <ele>160.05</ele>
        <time>2013-06-08T08:17:12Z</time>
      </trkpt>
      <trkpt lat="49.70647" lon="1.87922">
        <ele>160.09</ele>
        <time>2013-06-08T08:17:26Z</time>
      </trkpt>
      <trkpt lat="49.70651" lon="1.87921">
        <ele>160.25</ele>
        <time>2013-06-08T08:17:27Z</time>
      </trkpt>
      <trkpt lat="49.70691" lon="1.87961">
        <ele>158.87</ele>
        <time>2013-06-08T08:17:40Z</time>
      </trkpt>
      <trkpt lat="49.70721" lon="1.87996">
        <ele>158.21</ele>
        <time>2013-06-08T08:17:52Z</time>
      </trkpt>
      <trkpt lat="49.70735" lon="1.88026">
        <ele>157.49</ele>
        <time>2013-06-08T08:18:02Z</time>
      </trkpt>
      <trkpt lat="49.70754" lon="1.88061">
        <ele>157.02</ele>
        <time>2013-06-08T08:18:12Z</time>
      </trkpt>
      <trkpt lat="49.70775" lon="1.88104">
        <ele>156.25</ele>
        <time>2013-06-08T08:18:24Z</time>
      </trkpt>
      <trkpt lat="49.70792" lon="1.88134">
        <ele>155.72</ele>
        <time>2013-06-08T08:18:34Z</time>
      </trkpt>
      <trkpt lat="49.70815" lon="1.8817">
        <ele>155.64</ele>
        <time>2013-06-08T08:18:45Z</time>
      </trkpt>
      <trkpt lat="49.70831" lon="1.88206">
        <ele>155.59</ele>
        <time>2013-06-08T08:18:56Z</time>
      </trkpt>
      <trkpt lat="49.70847" lon="1.88237">
        <ele>155.14</ele>
        <time>2013-06-08T08:19:06Z</time>
      </trkpt>
      <trkpt lat="49.70854" lon="1.88256">
        <ele>154.8</ele>
        <time>2013-06-08T08:19:11Z</time>
      </trkpt>
      <trkpt lat="49.70875" lon="1.88299">
        <ele>155.08</ele>
        <time>2013-06-08T08:19:24Z</time>
      </trkpt>
      <trkpt lat="49.70893" lon="1.88326">
        <ele>154.49</ele>
        <time>2013-06-08T08:19:33Z</time>
      </trkpt>
      <trkpt lat="49.70909" lon="1.88362">
        <ele>154.66</ele>
        <time>2013-06-08T08:19:45Z</time>
      </trkpt>
      <trkpt lat="49.70932" lon="1.88386">
        <ele>154.51</ele>
        <time>2013-06-08T08:19:56Z</time>
      </trkpt>
      <trkpt lat="49.70961" lon="1.88417">
        <ele>153.94</ele>
        <time>2013-06-08T08:20:10Z</time>
      </trkpt>
      <trkpt lat="49.70986" lon="1.88446">
        <ele>154.49</ele>
        <time>2013-06-08T08:20:21Z</time>
      </trkpt>
      <trkpt lat="49.71011" lon="1.88482">
        <ele>154.09</ele>
        <time>2013-06-08T08:20:33Z</time>
      </trkpt>
      <trkpt lat="49.71038" lon="1.88513">
        <ele>153.47</ele>
        <time>2013-06-08T08:20:45Z</time>
      </trkpt>
      <trkpt lat="49.71058" lon="1.88539">
        <ele>153.8</ele>
        <time>2013-06-08T08:20:56Z</time>
      </trkpt>
      <trkpt lat="49.71079" lon="1.88578">
        <ele>154.26</ele>
        <time>2013-06-08T08:21:09Z</time>
      </trkpt>
      <trkpt lat="49.71103" lon="1.88602">
        <ele>154.12</ele>
        <time>2013-06-08T08:21:22Z</time>
      </trkpt>
      <trkpt lat="49.7113" lon="1.88617">
        <ele>154.29</ele>
        <time>2013-06-08T08:21:35Z</time>
      </trkpt>
      <trkpt lat="49.71164" lon="1.88637">
        <ele>155.62</ele>
        <time>2013-06-08T08:21:49Z</time>
      </trkpt>
      <trkpt lat="49.71166" lon="1.88639">
        <ele>155.65</ele>
        <time>2013-06-08T08:21:50Z</time>
      </trkpt>
      <trkpt lat="49.71184" lon="1.88644">
        <ele>156.84</ele>
        <time>2013-06-08T08:21:58Z</time>
      </trkpt>
      <trkpt lat="49.71201" lon="1.88682">
        <ele>157.25</ele>
        <time>2013-06-08T08:22:14Z</time>
      </trkpt>
      <trkpt lat="49.71208" lon="1.88696">
        <ele>157.46</ele>
        <time>2013-06-08T08:22:21Z</time>
      </trkpt>
      <trkpt lat="49.71215" lon="1.88677">
        <ele>160.6</ele>
        <time>2013-06-08T08:22:31Z</time>
      </trkpt>
      <trkpt lat="49.71216" lon="1.88674">
        <ele>161.45</ele>
        <time>2013-06-08T08:22:33Z</time>
      </trkpt>
      <trkpt lat="49.71218" lon="1.88669">
        <ele>163.2</ele>
        <time>2013-06-08T08:22:37Z</time>
      </trkpt>
      <trkpt lat="49.71224" lon="1.88662">
        <ele>166.25</ele>
        <time>2013-06-08T08:22:47Z</time>
      </trkpt>
      <trkpt lat="49.71224" lon="1.88648">
        <ele>169.71</ele>
        <time>2013-06-08T08:23:01Z</time>
      </trkpt>
      <trkpt lat="49.71224" lon="1.88646">
        <ele>170.2</ele>
        <time>2013-06-08T08:23:02Z</time>
      </trkpt>
      <trkpt lat="49.71224" lon="1.88627">
        <ele>172.12</ele>
        <time>2013-06-08T08:23:20Z</time>
      </trkpt>
      <trkpt lat="49.71224" lon="1.88616">
        <ele>172.55</ele>
        <time>2013-06-08T08:23:27Z</time>
      </trkpt>
      <trkpt lat="49.71232" lon="1.88598">
        <ele>173.91</ele>
        <time>2013-06-08T08:23:39Z</time>
      </trkpt>
      <trkpt lat="49.71245" lon="1.88581">
        <ele>175.84</ele>
        <time>2013-06-08T08:23:54Z</time>
      </trkpt>
      <trkpt lat="49.71253" lon="1.88562">
        <ele>176.94</ele>
        <time>2013-06-08T08:24:07Z</time>
      </trkpt>
      <trkpt lat="49.71258" lon="1.88552">
        <ele>177.15</ele>
        <time>2013-06-08T08:24:16Z</time>
      </trkpt>
      <trkpt lat="49.71267" lon="1.88547">
        <ele>176.57</ele>
        <time>2013-06-08T08:24:24Z</time>
      </trkpt>
      <trkpt lat="49.71277" lon="1.8853">
        <ele>175.31</ele>
        <time>2013-06-08T08:24:33Z</time>
      </trkpt>
      <trkpt lat="49.71284" lon="1.8853">
        <ele>175.31</ele>
        <time>2013-06-08T08:24:42Z</time>
      </trkpt>
      <trkpt lat="49.71283" lon="1.88537">
        <ele>175.19</ele>
        <time>2013-06-08T08:24:47Z</time>
      </trkpt>
      <trkpt lat="49.71283" lon="1.88539">
        <ele>174.9</ele>
        <time>2013-06-08T08:24:49Z</time>
      </trkpt>
      <trkpt lat="49.71295" lon="1.88536">
        <ele>172.52</ele>
        <time>2013-06-08T08:25:02Z</time>
      </trkpt>
      <trkpt lat="49.71306" lon="1.88533">
        <ele>169.12</ele>
        <time>2013-06-08T08:25:09Z</time>
      </trkpt>
      <trkpt lat="49.71312" lon="1.88536">
        <ele>166.1</ele>
        <time>2013-06-08T08:25:15Z</time>
      </trkpt>
      <trkpt lat="49.71321" lon="1.88532">
        <ele>162.96</ele>
        <time>2013-06-08T08:25:24Z</time>
      </trkpt>
      <trkpt lat="49.71332" lon="1.88531">
        <ele>159.83</ele>
        <time>2013-06-08T08:25:39Z</time>
      </trkpt>
      <trkpt lat="49.71346" lon="1.88532">
        <ele>157.04</ele>
        <time>2013-06-08T08:25:54Z</time>
      </trkpt>
      <trkpt lat="49.71356" lon="1.88565">
        <ele>155.16</ele>
        <time>2013-06-08T08:26:05Z</time>
      </trkpt>
      <trkpt lat="49.71356" lon="1.88607">
        <ele>155.27</ele>
        <time>2013-06-08T08:26:18Z</time>
      </trkpt>
      <trkpt lat="49.71373" lon="1.88644">
        <ele>154.64</ele>
        <time>2013-06-08T08:26:31Z</time>
      </trkpt>
      <trkpt lat="49.71373" lon="1.88645">
        <ele>154.64</ele>
        <time>2013-06-08T08:26:32Z</time>
      </trkpt>
      <trkpt lat="49.71375" lon="1.88657">
        <ele>154.14</ele>
        <time>2013-06-08T08:26:37Z</time>
      </trkpt>
      <trkpt lat="49.7138" lon="1.88692">
        <ele>153.55</ele>
        <time>2013-06-08T08:26:48Z</time>
      </trkpt>
      <trkpt lat="49.71386" lon="1.88736">
        <ele>154.02</ele>
        <time>2013-06-08T08:27:00Z</time>
      </trkpt>
      <trkpt lat="49.71387" lon="1.88762">
        <ele>153.27</ele>
        <time>2013-06-08T08:27:07Z</time>
      </trkpt>
      <trkpt lat="49.71396" lon="1.88775">
        <ele>152.75</ele>
        <time>2013-06-08T08:27:14Z</time>
      </trkpt>
      <trkpt lat="49.714" lon="1.88778">
        <ele>151.8</ele>
        <time>2013-06-08T08:27:16Z</time>
      </trkpt>
      <trkpt lat="49.71427" lon="1.88758">
        <ele>151.33</ele>
        <time>2013-06-08T08:27:28Z</time>
      </trkpt>
      <trkpt lat="49.71441" lon="1.8873">
        <ele>151.74</ele>
        <time>2013-06-08T08:27:39Z</time>
      </trkpt>
      <trkpt lat="49.71448" lon="1.88685">
        <ele>153.05</ele>
        <time>2013-06-08T08:27:51Z</time>
      </trkpt>
      <trkpt lat="49.71456" lon="1.88653">
        <ele>154.93</ele>
        <time>2013-06-08T08:28:04Z</time>
      </trkpt>
      <trkpt lat="49.71458" lon="1.88653">
        <ele>155.49</ele>
        <time>2013-06-08T08:28:06Z</time>
      </trkpt>
      <trkpt lat="49.71469" lon="1.88662">
        <ele>157.39</ele>
        <time>2013-06-08T08:28:13Z</time>
      </trkpt>
      <trkpt lat="49.7148" lon="1.88669">
        <ele>160.55</ele>
        <time>2013-06-08T08:28:23Z</time>
      </trkpt>
      <trkpt lat="49.71486" lon="1.88671">
        <ele>162.67</ele>
        <time>2013-06-08T08:28:27Z</time>
      </trkpt>
      <trkpt lat="49.71495" lon="1.88686">
        <ele>163.82</ele>
        <time>2013-06-08T08:28:32Z</time>
      </trkpt>
      <trkpt lat="49.71522" lon="1.88727">
        <ele>165.9</ele>
        <time>2013-06-08T08:28:46Z</time>
      </trkpt>
      <trkpt lat="49.71534" lon="1.8873">
        <ele>167.66</ele>
        <time>2013-06-08T08:28:53Z</time>
      </trkpt>
      <trkpt lat="49.71559" lon="1.88729">
        <ele>170</ele>
        <time>2013-06-08T08:29:05Z</time>
      </trkpt>
      <trkpt lat="49.71576" lon="1.88729">
        <ele>172.97</ele>
        <time>2013-06-08T08:29:16Z</time>
      </trkpt>
      <trkpt lat="49.71602" lon="1.88749">
        <ele>175.48</ele>
        <time>2013-06-08T08:29:29Z</time>
      </trkpt>
      <trkpt lat="49.71625" lon="1.8877">
        <ele>177.11</ele>
        <time>2013-06-08T08:29:41Z</time>
      </trkpt>
      <trkpt lat="49.71646" lon="1.88798">
        <ele>177.79</ele>
        <time>2013-06-08T08:29:52Z</time>
      </trkpt>
      <trkpt lat="49.71651" lon="1.88802">
        <ele>177.65</ele>
        <time>2013-06-08T08:29:54Z</time>
      </trkpt>
      <trkpt lat="49.71659" lon="1.88804">
        <ele>179.38</ele>
        <time>2013-06-08T08:29:58Z</time>
      </trkpt>
      <trkpt lat="49.71679" lon="1.88798">
        <ele>180.75</ele>
        <time>2013-06-08T08:30:07Z</time>
      </trkpt>
      <trkpt lat="49.71706" lon="1.88782">
        <ele>181.75</ele>
        <time>2013-06-08T08:30:20Z</time>
      </trkpt>
      <trkpt lat="49.71737" lon="1.88777">
        <ele>182.91</ele>
        <time>2013-06-08T08:30:33Z</time>
      </trkpt>
      <trkpt lat="49.71742" lon="1.88776">
        <ele>183.15</ele>
        <time>2013-06-08T08:30:35Z</time>
      </trkpt>
      <trkpt lat="49.71764" lon="1.88788">
        <ele>183.45</ele>
        <time>2013-06-08T08:30:48Z</time>
      </trkpt>
      <trkpt lat="49.71785" lon="1.88789">
        <ele>182.43</ele>
        <time>2013-06-08T08:31:09Z</time>
      </trkpt>
      <trkpt lat="49.71799" lon="1.88793">
        <ele>182.1</ele>
        <time>2013-06-08T08:31:26Z</time>
      </trkpt>
      <trkpt lat="49.71813" lon="1.88805">
        <ele>182.82</ele>
        <time>2013-06-08T08:31:41Z</time>
      </trkpt>
      <trkpt lat="49.71833" lon="1.88842">
        <ele>182.86</ele>
        <time>2013-06-08T08:31:55Z</time>
      </trkpt>
      <trkpt lat="49.71856" lon="1.88881">
        <ele>184.46</ele>
        <time>2013-06-08T08:32:08Z</time>
      </trkpt>
      <trkpt lat="49.71856" lon="1.88882">
        <ele>184.37</ele>
        <time>2013-06-08T08:32:17Z</time>
      </trkpt>
      <trkpt lat="49.7186" lon="1.88887">
        <ele>184.89</ele>
        <time>2013-06-08T08:32:38Z</time>
      </trkpt>
      <trkpt lat="49.71872" lon="1.88918">
        <ele>184.23</ele>
        <time>2013-06-08T08:32:58Z</time>
      </trkpt>
      <trkpt lat="49.71889" lon="1.88952">
        <ele>185.79</ele>
        <time>2013-06-08T08:33:10Z</time>
      </trkpt>
      <trkpt lat="49.7191" lon="1.88995">
        <ele>186.48</ele>
        <time>2013-06-08T08:33:24Z</time>
      </trkpt>
      <trkpt lat="49.71928" lon="1.89037">
        <ele>186.59</ele>
        <time>2013-06-08T08:33:36Z</time>
      </trkpt>
      <trkpt lat="49.71956" lon="1.89064">
        <ele>187.1</ele>
        <time>2013-06-08T08:33:49Z</time>
      </trkpt>
      <trkpt lat="49.71988" lon="1.89099">
        <ele>185.93</ele>
        <time>2013-06-08T08:34:03Z</time>
      </trkpt>
      <trkpt lat="49.72006" lon="1.8913">
        <ele>184.2</ele>
        <time>2013-06-08T08:34:13Z</time>
      </trkpt>
      <trkpt lat="49.72032" lon="1.89172">
        <ele>181.23</ele>
        <time>2013-06-08T08:34:27Z</time>
      </trkpt>
      <trkpt lat="49.7205" lon="1.89198">
        <ele>178.03</ele>
        <time>2013-06-08T08:34:37Z</time>
      </trkpt>
      <trkpt lat="49.72072" lon="1.89217">
        <ele>175.91</ele>
        <time>2013-06-08T08:34:47Z</time>
      </trkpt>
      <trkpt lat="49.72098" lon="1.89226">
        <ele>175.44</ele>
        <time>2013-06-08T08:34:58Z</time>
      </trkpt>
      <trkpt lat="49.72102" lon="1.89225">
        <ele>175.06</ele>
        <time>2013-06-08T08:35:00Z</time>
      </trkpt>
      <trkpt lat="49.72105" lon="1.89246">
        <ele>173.39</ele>
        <time>2013-06-08T08:35:06Z</time>
      </trkpt>
      <trkpt lat="49.72094" lon="1.893">
        <ele>170.83</ele>
        <time>2013-06-08T08:35:20Z</time>
      </trkpt>
      <trkpt lat="49.72074" lon="1.89332">
        <ele>170.15</ele>
        <time>2013-06-08T08:35:34Z</time>
      </trkpt>
      <trkpt lat="49.72059" lon="1.89364">
        <ele>169.7</ele>
        <time>2013-06-08T08:35:47Z</time>
      </trkpt>
      <trkpt lat="49.72039" lon="1.89409">
        <ele>168.62</ele>
        <time>2013-06-08T08:36:00Z</time>
      </trkpt>
      <trkpt lat="49.72031" lon="1.89438">
        <ele>168.25</ele>
        <time>2013-06-08T08:36:08Z</time>
      </trkpt>
      <trkpt lat="49.7201" lon="1.89469">
        <ele>167.36</ele>
        <time>2013-06-08T08:36:22Z</time>
      </trkpt>
      <trkpt lat="49.71987" lon="1.89509">
        <ele>166.96</ele>
        <time>2013-06-08T08:36:36Z</time>
      </trkpt>
      <trkpt lat="49.71965" lon="1.89541">
        <ele>166.41</ele>
        <time>2013-06-08T08:36:48Z</time>
      </trkpt>
      <trkpt lat="49.71946" lon="1.89573">
        <ele>165.86</ele>
        <time>2013-06-08T08:37:02Z</time>
      </trkpt>
      <trkpt lat="49.71925" lon="1.89601">
        <ele>164.05</ele>
        <time>2013-06-08T08:37:15Z</time>
      </trkpt>
      <trkpt lat="49.71904" lon="1.89634">
        <ele>163.56</ele>
        <time>2013-06-08T08:37:26Z</time>
      </trkpt>
      <trkpt lat="49.7189" lon="1.89666">
        <ele>162.84</ele>
        <time>2013-06-08T08:37:36Z</time>
      </trkpt>
      <trkpt lat="49.71872" lon="1.89696">
        <ele>161.97</ele>
        <time>2013-06-08T08:37:47Z</time>
      </trkpt>
      <trkpt lat="49.7187" lon="1.89698">
        <ele>161.81</ele>
        <time>2013-06-08T08:37:48Z</time>
      </trkpt>
      <trkpt lat="49.71855" lon="1.89733">
        <ele>161.68</ele>
        <time>2013-06-08T08:38:00Z</time>
      </trkpt>
      <trkpt lat="49.71853" lon="1.89769">
        <ele>164.08</ele>
        <time>2013-06-08T08:38:10Z</time>
      </trkpt>
      <trkpt lat="49.71853" lon="1.89785">
        <ele>166.45</ele>
        <time>2013-06-08T08:38:16Z</time>
      </trkpt>
      <trkpt lat="49.71854" lon="1.8981">
        <ele>169.68</ele>
        <time>2013-06-08T08:38:26Z</time>
      </trkpt>
      <trkpt lat="49.71855" lon="1.89824">
        <ele>171.42</ele>
        <time>2013-06-08T08:38:31Z</time>
      </trkpt>
      <trkpt lat="49.71853" lon="1.89831">
        <ele>172.14</ele>
        <time>2013-06-08T08:38:34Z</time>
      </trkpt>
      <trkpt lat="49.7185" lon="1.89845">
        <ele>173.45</ele>
        <time>2013-06-08T08:38:38Z</time>
      </trkpt>
      <trkpt lat="49.71846" lon="1.89881">
        <ele>173.75</ele>
        <time>2013-06-08T08:38:50Z</time>
      </trkpt>
      <trkpt lat="49.71846" lon="1.89891">
        <ele>174.53</ele>
        <time>2013-06-08T08:38:54Z</time>
      </trkpt>
      <trkpt lat="49.71857" lon="1.89929">
        <ele>177.08</ele>
        <time>2013-06-08T08:39:08Z</time>
      </trkpt>
      <trkpt lat="49.71865" lon="1.89954">
        <ele>177.82</ele>
        <time>2013-06-08T08:39:13Z</time>
      </trkpt>
      <trkpt lat="49.71884" lon="1.90011">
        <ele>179.81</ele>
        <time>2013-06-08T08:39:28Z</time>
      </trkpt>
      <trkpt lat="49.71892" lon="1.90062">
        <ele>181.21</ele>
        <time>2013-06-08T08:39:41Z</time>
      </trkpt>
      <trkpt lat="49.71902" lon="1.90109">
        <ele>181.72</ele>
        <time>2013-06-08T08:39:53Z</time>
      </trkpt>
      <trkpt lat="49.71901" lon="1.90157">
        <ele>181.15</ele>
        <time>2013-06-08T08:40:05Z</time>
      </trkpt>
      <trkpt lat="49.71913" lon="1.90191">
        <ele>181.16</ele>
        <time>2013-06-08T08:40:18Z</time>
      </trkpt>
      <trkpt lat="49.71936" lon="1.90195">
        <ele>182.25</ele>
        <time>2013-06-08T08:40:30Z</time>
      </trkpt>
      <trkpt lat="49.71966" lon="1.90203">
        <ele>182.7</ele>
        <time>2013-06-08T08:40:42Z</time>
      </trkpt>
      <trkpt lat="49.71996" lon="1.90216">
        <ele>183.24</ele>
        <time>2013-06-08T08:40:55Z</time>
      </trkpt>
      <trkpt lat="49.72026" lon="1.90227">
        <ele>181.63</ele>
        <time>2013-06-08T08:41:09Z</time>
      </trkpt>
      <trkpt lat="49.72057" lon="1.90247">
        <ele>180.67</ele>
        <time>2013-06-08T08:41:22Z</time>
      </trkpt>
      <trkpt lat="49.72084" lon="1.90266">
        <ele>181.19</ele>
        <time>2013-06-08T08:41:34Z</time>
      </trkpt>
      <trkpt lat="49.72109" lon="1.90286">
        <ele>182.83</ele>
        <time>2013-06-08T08:41:47Z</time>
      </trkpt>
      <trkpt lat="49.72113" lon="1.90289">
        <ele>183.13</ele>
        <time>2013-06-08T08:41:49Z</time>
      </trkpt>
      <trkpt lat="49.72142" lon="1.90316">
        <ele>184.66</ele>
        <time>2013-06-08T08:42:03Z</time>
      </trkpt>
      <trkpt lat="49.72164" lon="1.9035">
        <ele>185.25</ele>
        <time>2013-06-08T08:42:16Z</time>
      </trkpt>
      <trkpt lat="49.72188" lon="1.90367">
        <ele>185.92</ele>
        <time>2013-06-08T08:42:28Z</time>
      </trkpt>
      <trkpt lat="49.72218" lon="1.9039">
        <ele>186.55</ele>
        <time>2013-06-08T08:42:41Z</time>
      </trkpt>
      <trkpt lat="49.72245" lon="1.90407">
        <ele>187.28</ele>
        <time>2013-06-08T08:42:54Z</time>
      </trkpt>
      <trkpt lat="49.72274" lon="1.90421">
        <ele>188.44</ele>
        <time>2013-06-08T08:43:06Z</time>
      </trkpt>
      <trkpt lat="49.72299" lon="1.90439">
        <ele>188.7</ele>
        <time>2013-06-08T08:43:17Z</time>
      </trkpt>
      <trkpt lat="49.72319" lon="1.90456">
        <ele>190.36</ele>
        <time>2013-06-08T08:43:25Z</time>
      </trkpt>
      <trkpt lat="49.72345" lon="1.90472">
        <ele>189.58</ele>
        <time>2013-06-08T08:43:37Z</time>
      </trkpt>
      <trkpt lat="49.7238" lon="1.90491">
        <ele>189.78</ele>
        <time>2013-06-08T08:43:51Z</time>
      </trkpt>
      <trkpt lat="49.72391" lon="1.90528">
        <ele>190.12</ele>
        <time>2013-06-08T08:44:01Z</time>
      </trkpt>
      <trkpt lat="49.72393" lon="1.90541">
        <ele>190.47</ele>
        <time>2013-06-08T08:44:04Z</time>
      </trkpt>
      <trkpt lat="49.72399" lon="1.90586">
        <ele>189.68</ele>
        <time>2013-06-08T08:44:15Z</time>
      </trkpt>
      <trkpt lat="49.72404" lon="1.90651">
        <ele>189.21</ele>
        <time>2013-06-08T08:44:31Z</time>
      </trkpt>
      <trkpt lat="49.72406" lon="1.90695">
        <ele>189.17</ele>
        <time>2013-06-08T08:44:42Z</time>
      </trkpt>
      <trkpt lat="49.7241" lon="1.90746">
        <ele>188.64</ele>
        <time>2013-06-08T08:44:55Z</time>
      </trkpt>
      <trkpt lat="49.72415" lon="1.90814">
        <ele>188.47</ele>
        <time>2013-06-08T08:45:12Z</time>
      </trkpt>
      <trkpt lat="49.7242" lon="1.90871">
        <ele>188.08</ele>
        <time>2013-06-08T08:45:26Z</time>
      </trkpt>
      <trkpt lat="49.72423" lon="1.90927">
        <ele>187.88</ele>
        <time>2013-06-08T08:45:40Z</time>
      </trkpt>
      <trkpt lat="49.72428" lon="1.90977">
        <ele>187.85</ele>
        <time>2013-06-08T08:45:53Z</time>
      </trkpt>
      <trkpt lat="49.72429" lon="1.91033">
        <ele>187.71</ele>
        <time>2013-06-08T08:46:07Z</time>
      </trkpt>
      <trkpt lat="49.72435" lon="1.91088">
        <ele>187.54</ele>
        <time>2013-06-08T08:46:21Z</time>
      </trkpt>
      <trkpt lat="49.72437" lon="1.9114">
        <ele>187.13</ele>
        <time>2013-06-08T08:46:34Z</time>
      </trkpt>
      <trkpt lat="49.72442" lon="1.91192">
        <ele>187.13</ele>
        <time>2013-06-08T08:46:47Z</time>
      </trkpt>
      <trkpt lat="49.72446" lon="1.91245">
        <ele>186.59</ele>
        <time>2013-06-08T08:47:00Z</time>
      </trkpt>
      <trkpt lat="49.7245" lon="1.91301">
        <ele>186.07</ele>
        <time>2013-06-08T08:47:14Z</time>
      </trkpt>
      <trkpt lat="49.72454" lon="1.91355">
        <ele>185.78</ele>
        <time>2013-06-08T08:47:27Z</time>
      </trkpt>
      <trkpt lat="49.72458" lon="1.91408">
        <ele>185.64</ele>
        <time>2013-06-08T08:47:40Z</time>
      </trkpt>
      <trkpt lat="49.72461" lon="1.91452">
        <ele>185.6</ele>
        <time>2013-06-08T08:47:51Z</time>
      </trkpt>
      <trkpt lat="49.72464" lon="1.91505">
        <ele>185.84</ele>
        <time>2013-06-08T08:48:04Z</time>
      </trkpt>
      <trkpt lat="49.72465" lon="1.91536">
        <ele>185.52</ele>
        <time>2013-06-08T08:48:15Z</time>
      </trkpt>
      <trkpt lat="49.72452" lon="1.91545">
        <ele>184.84</ele>
        <time>2013-06-08T08:48:24Z</time>
      </trkpt>
      <trkpt lat="49.72443" lon="1.91546">
        <ele>184.29</ele>
        <time>2013-06-08T08:48:29Z</time>
      </trkpt>
      <trkpt lat="49.7242" lon="1.91549">
        <ele>183.66</ele>
        <time>2013-06-08T08:48:46Z</time>
      </trkpt>
      <trkpt lat="49.724" lon="1.91552">
        <ele>183.47</ele>
        <time>2013-06-08T08:49:00Z</time>
      </trkpt>
      <trkpt lat="49.72371" lon="1.91562">
        <ele>182.44</ele>
        <time>2013-06-08T08:49:12Z</time>
      </trkpt>
      <trkpt lat="49.72336" lon="1.91574">
        <ele>181.02</ele>
        <time>2013-06-08T08:49:25Z</time>
      </trkpt>
      <trkpt lat="49.72296" lon="1.91583">
        <ele>178.37</ele>
        <time>2013-06-08T08:49:40Z</time>
      </trkpt>
      <trkpt lat="49.72252" lon="1.91587">
        <ele>175.17</ele>
        <time>2013-06-08T08:49:57Z</time>
      </trkpt>
      <trkpt lat="49.72221" lon="1.91599">
        <ele>172.48</ele>
        <time>2013-06-08T08:50:09Z</time>
      </trkpt>
      <trkpt lat="49.72186" lon="1.91607">
        <ele>170.01</ele>
        <time>2013-06-08T08:50:23Z</time>
      </trkpt>
      <trkpt lat="49.72161" lon="1.91614">
        <ele>166.94</ele>
        <time>2013-06-08T08:50:33Z</time>
      </trkpt>
      <trkpt lat="49.7213" lon="1.91622">
        <ele>163.87</ele>
        <time>2013-06-08T08:50:45Z</time>
      </trkpt>
      <trkpt lat="49.72097" lon="1.91624">
        <ele>161.78</ele>
        <time>2013-06-08T08:50:58Z</time>
      </trkpt>
      <trkpt lat="49.72068" lon="1.91639">
        <ele>160.08</ele>
        <time>2013-06-08T08:51:10Z</time>
      </trkpt>
      <trkpt lat="49.72036" lon="1.91642">
        <ele>157.35</ele>
        <time>2013-06-08T08:51:22Z</time>
      </trkpt>
      <trkpt lat="49.72008" lon="1.91653">
        <ele>154.48</ele>
        <time>2013-06-08T08:51:33Z</time>
      </trkpt>
      <trkpt lat="49.71986" lon="1.91676">
        <ele>151.24</ele>
        <time>2013-06-08T08:51:44Z</time>
      </trkpt>
      <trkpt lat="49.71987" lon="1.91703">
        <ele>149.02</ele>
        <time>2013-06-08T08:51:54Z</time>
      </trkpt>
      <trkpt lat="49.71984" lon="1.91715">
        <ele>147.95</ele>
        <time>2013-06-08T08:51:59Z</time>
      </trkpt>
      <trkpt lat="49.71998" lon="1.91748">
        <ele>146.73</ele>
        <time>2013-06-08T08:52:11Z</time>
      </trkpt>
      <trkpt lat="49.72014" lon="1.91796">
        <ele>145.85</ele>
        <time>2013-06-08T08:52:26Z</time>
      </trkpt>
      <trkpt lat="49.72026" lon="1.91834">
        <ele>144.7</ele>
        <time>2013-06-08T08:52:38Z</time>
      </trkpt>
      <trkpt lat="49.72039" lon="1.91863">
        <ele>143.22</ele>
        <time>2013-06-08T08:52:49Z</time>
      </trkpt>
      <trkpt lat="49.72062" lon="1.91897">
        <ele>141.85</ele>
        <time>2013-06-08T08:53:03Z</time>
      </trkpt>
      <trkpt lat="49.72088" lon="1.91943">
        <ele>140.3</ele>
        <time>2013-06-08T08:53:16Z</time>
      </trkpt>
      <trkpt lat="49.72103" lon="1.91973">
        <ele>138.31</ele>
        <time>2013-06-08T08:53:25Z</time>
      </trkpt>
      <trkpt lat="49.72118" lon="1.91994">
        <ele>136.24</ele>
        <time>2013-06-08T08:53:32Z</time>
      </trkpt>
      <trkpt lat="49.72144" lon="1.92033">
        <ele>134.74</ele>
        <time>2013-06-08T08:53:45Z</time>
      </trkpt>
      <trkpt lat="49.72146" lon="1.92091">
        <ele>134.51</ele>
        <time>2013-06-08T08:53:59Z</time>
      </trkpt>
      <trkpt lat="49.72146" lon="1.92127">
        <ele>134.38</ele>
        <time>2013-06-08T08:54:09Z</time>
      </trkpt>
      <trkpt lat="49.72159" lon="1.92157">
        <ele>135.07</ele>
        <time>2013-06-08T08:54:20Z</time>
      </trkpt>
      <trkpt lat="49.72164" lon="1.92166">
        <ele>136.86</ele>
        <time>2013-06-08T08:54:24Z</time>
      </trkpt>
      <trkpt lat="49.72181" lon="1.92192">
        <ele>139.05</ele>
        <time>2013-06-08T08:54:35Z</time>
      </trkpt>
      <trkpt lat="49.72194" lon="1.92225">
        <ele>140.21</ele>
        <time>2013-06-08T08:54:46Z</time>
      </trkpt>
      <trkpt lat="49.72204" lon="1.92265">
        <ele>142.64</ele>
        <time>2013-06-08T08:54:59Z</time>
      </trkpt>
      <trkpt lat="49.72199" lon="1.92302">
        <ele>144.82</ele>
        <time>2013-06-08T08:55:10Z</time>
      </trkpt>
      <trkpt lat="49.72192" lon="1.92334">
        <ele>147.83</ele>
        <time>2013-06-08T08:55:20Z</time>
      </trkpt>
      <trkpt lat="49.72179" lon="1.92377">
        <ele>151.18</ele>
        <time>2013-06-08T08:55:35Z</time>
      </trkpt>
      <trkpt lat="49.72168" lon="1.9242">
        <ele>153.06</ele>
        <time>2013-06-08T08:55:50Z</time>
      </trkpt>
      <trkpt lat="49.72162" lon="1.92462">
        <ele>154.44</ele>
        <time>2013-06-08T08:56:03Z</time>
      </trkpt>
      <trkpt lat="49.72164" lon="1.92506">
        <ele>157.2</ele>
        <time>2013-06-08T08:56:17Z</time>
      </trkpt>
      <trkpt lat="49.72159" lon="1.92526">
        <ele>159.15</ele>
        <time>2013-06-08T08:56:29Z</time>
      </trkpt>
      <trkpt lat="49.72158" lon="1.92537">
        <ele>160.92</ele>
        <time>2013-06-08T08:56:36Z</time>
      </trkpt>
      <trkpt lat="49.72156" lon="1.9255">
        <ele>162.34</ele>
        <time>2013-06-08T08:56:44Z</time>
      </trkpt>
      <trkpt lat="49.72155" lon="1.92561">
        <ele>164.76</ele>
        <time>2013-06-08T08:56:53Z</time>
      </trkpt>
      <trkpt lat="49.72152" lon="1.92588">
        <ele>168.02</ele>
        <time>2013-06-08T08:57:08Z</time>
      </trkpt>
      <trkpt lat="49.72149" lon="1.92612">
        <ele>170.88</ele>
        <time>2013-06-08T08:57:21Z</time>
      </trkpt>
      <trkpt lat="49.72147" lon="1.92619">
        <ele>171.82</ele>
        <time>2013-06-08T08:57:25Z</time>
      </trkpt>
      <trkpt lat="49.7214" lon="1.92644">
        <ele>174.94</ele>
        <time>2013-06-08T08:57:39Z</time>
      </trkpt>
      <trkpt lat="49.72134" lon="1.92667">
        <ele>178.04</ele>
        <time>2013-06-08T08:57:49Z</time>
      </trkpt>
      <trkpt lat="49.72124" lon="1.9269">
        <ele>181.14</ele>
        <time>2013-06-08T08:58:04Z</time>
      </trkpt>
      <trkpt lat="49.72104" lon="1.92709">
        <ele>183.28</ele>
        <time>2013-06-08T08:58:18Z</time>
      </trkpt>
      <trkpt lat="49.72094" lon="1.92719">
        <ele>184.37</ele>
        <time>2013-06-08T08:58:30Z</time>
      </trkpt>
      <trkpt lat="49.72068" lon="1.92752">
        <ele>185.69</ele>
        <time>2013-06-08T08:58:45Z</time>
      </trkpt>
      <trkpt lat="49.72038" lon="1.92782">
        <ele>185.6</ele>
        <time>2013-06-08T08:59:00Z</time>
      </trkpt>
      <trkpt lat="49.72005" lon="1.92814">
        <ele>186.36</ele>
        <time>2013-06-08T08:59:15Z</time>
      </trkpt>
      <trkpt lat="49.72004" lon="1.92814">
        <ele>186.24</ele>
        <time>2013-06-08T08:59:16Z</time>
      </trkpt>
      <trkpt lat="49.72004" lon="1.92819">
        <ele>186.37</ele>
        <time>2013-06-08T08:59:20Z</time>
      </trkpt>
      <trkpt lat="49.72011" lon="1.92832">
        <ele>186.44</ele>
        <time>2013-06-08T08:59:30Z</time>
      </trkpt>
      <trkpt lat="49.72017" lon="1.92842">
        <ele>185.25</ele>
        <time>2013-06-08T08:59:43Z</time>
      </trkpt>
      <trkpt lat="49.72017" lon="1.92846">
        <ele>185.26</ele>
        <time>2013-06-08T09:00:02Z</time>
      </trkpt>
      <trkpt lat="49.72033" lon="1.92886">
        <ele>186.89</ele>
        <time>2013-06-08T09:00:14Z</time>
      </trkpt>
      <trkpt lat="49.72051" lon="1.92928">
        <ele>186.18</ele>
        <time>2013-06-08T09:00:27Z</time>
      </trkpt>
      <trkpt lat="49.72067" lon="1.92966">
        <ele>185.76</ele>
        <time>2013-06-08T09:00:38Z</time>
      </trkpt>
      <trkpt lat="49.72088" lon="1.93015">
        <ele>186.18</ele>
        <time>2013-06-08T09:00:52Z</time>
      </trkpt>
      <trkpt lat="49.7211" lon="1.93064">
        <ele>185.73</ele>
        <time>2013-06-08T09:01:06Z</time>
      </trkpt>
      <trkpt lat="49.72131" lon="1.9311">
        <ele>186.04</ele>
        <time>2013-06-08T09:01:19Z</time>
      </trkpt>
      <trkpt lat="49.72153" lon="1.93163">
        <ele>185.62</ele>
        <time>2013-06-08T09:01:34Z</time>
      </trkpt>
      <trkpt lat="49.72153" lon="1.93207">
        <ele>185.78</ele>
        <time>2013-06-08T09:01:45Z</time>
      </trkpt>
      <trkpt lat="49.72123" lon="1.93242">
        <ele>185.61</ele>
        <time>2013-06-08T09:01:57Z</time>
      </trkpt>
      <trkpt lat="49.72089" lon="1.93279">
        <ele>185.37</ele>
        <time>2013-06-08T09:02:11Z</time>
      </trkpt>
      <trkpt lat="49.72059" lon="1.93308">
        <ele>184.47</ele>
        <time>2013-06-08T09:02:24Z</time>
      </trkpt>
      <trkpt lat="49.72028" lon="1.93345">
        <ele>183.46</ele>
        <time>2013-06-08T09:02:38Z</time>
      </trkpt>
      <trkpt lat="49.72025" lon="1.93383">
        <ele>182.44</ele>
        <time>2013-06-08T09:02:50Z</time>
      </trkpt>
      <trkpt lat="49.72024" lon="1.93436">
        <ele>181.73</ele>
        <time>2013-06-08T09:03:04Z</time>
      </trkpt>
      <trkpt lat="49.72025" lon="1.9349">
        <ele>181.59</ele>
        <time>2013-06-08T09:03:18Z</time>
      </trkpt>
      <trkpt lat="49.72022" lon="1.93542">
        <ele>181.72</ele>
        <time>2013-06-08T09:03:32Z</time>
      </trkpt>
      <trkpt lat="49.72039" lon="1.93537">
        <ele>183.09</ele>
        <time>2013-06-08T09:03:42Z</time>
      </trkpt>
      <trkpt lat="49.72053" lon="1.93551">
        <ele>183.82</ele>
        <time>2013-06-08T09:03:50Z</time>
      </trkpt>
      <trkpt lat="49.72057" lon="1.93553">
        <ele>183.87</ele>
        <time>2013-06-08T09:03:52Z</time>
      </trkpt>
      <trkpt lat="49.72061" lon="1.93561">
        <ele>183.96</ele>
        <time>2013-06-08T09:03:58Z</time>
      </trkpt>
      <trkpt lat="49.72065" lon="1.93561">
        <ele>184.07</ele>
        <time>2013-06-08T09:04:00Z</time>
      </trkpt>
      <trkpt lat="49.72091" lon="1.93563">
        <ele>184.06</ele>
        <time>2013-06-08T09:04:11Z</time>
      </trkpt>
      <trkpt lat="49.72124" lon="1.93561">
        <ele>184.33</ele>
        <time>2013-06-08T09:04:25Z</time>
      </trkpt>
      <trkpt lat="49.72162" lon="1.93561">
        <ele>184.92</ele>
        <time>2013-06-08T09:04:40Z</time>
      </trkpt>
      <trkpt lat="49.72192" lon="1.93556">
        <ele>184.51</ele>
        <time>2013-06-08T09:04:52Z</time>
      </trkpt>
      <trkpt lat="49.72211" lon="1.93568">
        <ele>183.99</ele>
        <time>2013-06-08T09:05:04Z</time>
      </trkpt>
      <trkpt lat="49.72229" lon="1.93615">
        <ele>184.01</ele>
        <time>2013-06-08T09:05:18Z</time>
      </trkpt>
      <trkpt lat="49.72248" lon="1.93649">
        <ele>184.07</ele>
        <time>2013-06-08T09:05:32Z</time>
      </trkpt>
      <trkpt lat="49.72279" lon="1.93657">
        <ele>183.76</ele>
        <time>2013-06-08T09:05:43Z</time>
      </trkpt>
      <trkpt lat="49.7232" lon="1.93676">
        <ele>183.23</ele>
        <time>2013-06-08T09:05:57Z</time>
      </trkpt>
      <trkpt lat="49.72351" lon="1.93688">
        <ele>182.97</ele>
        <time>2013-06-08T09:06:09Z</time>
      </trkpt>
      <trkpt lat="49.72386" lon="1.93688">
        <ele>182.42</ele>
        <time>2013-06-08T09:06:22Z</time>
      </trkpt>
      <trkpt lat="49.72415" lon="1.93674">
        <ele>180.73</ele>
        <time>2013-06-08T09:06:36Z</time>
      </trkpt>
      <trkpt lat="49.72446" lon="1.93657">
        <ele>179.8</ele>
        <time>2013-06-08T09:06:49Z</time>
      </trkpt>
      <trkpt lat="49.72476" lon="1.93632">
        <ele>176.74</ele>
        <time>2013-06-08T09:07:02Z</time>
      </trkpt>
      <trkpt lat="49.725" lon="1.9362">
        <ele>173.74</ele>
        <time>2013-06-08T09:07:12Z</time>
      </trkpt>
      <trkpt lat="49.72523" lon="1.93621">
        <ele>170.82</ele>
        <time>2013-06-08T09:07:20Z</time>
      </trkpt>
      <trkpt lat="49.72533" lon="1.93624">
        <ele>168.06</ele>
        <time>2013-06-08T09:07:25Z</time>
      </trkpt>
      <trkpt lat="49.72553" lon="1.93626">
        <ele>164.79</ele>
        <time>2013-06-08T09:07:36Z</time>
      </trkpt>
      <trkpt lat="49.72556" lon="1.93623">
        <ele>164.22</ele>
        <time>2013-06-08T09:07:38Z</time>
      </trkpt>
      <trkpt lat="49.7257" lon="1.93626">
        <ele>160.34</ele>
        <time>2013-06-08T09:07:45Z</time>
      </trkpt>
      <trkpt lat="49.72582" lon="1.9363">
        <ele>156.62</ele>
        <time>2013-06-08T09:07:50Z</time>
      </trkpt>
      <trkpt lat="49.72591" lon="1.93634">
        <ele>153.52</ele>
        <time>2013-06-08T09:07:55Z</time>
      </trkpt>
      <trkpt lat="49.72609" lon="1.93639">
        <ele>150.42</ele>
        <time>2013-06-08T09:08:01Z</time>
      </trkpt>
      <trkpt lat="49.72621" lon="1.93641">
        <ele>147.03</ele>
        <time>2013-06-08T09:08:06Z</time>
      </trkpt>
      <trkpt lat="49.72625" lon="1.93644">
        <ele>146.31</ele>
        <time>2013-06-08T09:08:08Z</time>
      </trkpt>
      <trkpt lat="49.72634" lon="1.93661">
        <ele>145.2</ele>
        <time>2013-06-08T09:08:17Z</time>
      </trkpt>
      <trkpt lat="49.72664" lon="1.93649">
        <ele>142.95</ele>
        <time>2013-06-08T09:08:28Z</time>
      </trkpt>
      <trkpt lat="49.72677" lon="1.93648">
        <ele>141.37</ele>
        <time>2013-06-08T09:08:39Z</time>
      </trkpt>
      <trkpt lat="49.72686" lon="1.93649">
        <ele>138.26</ele>
        <time>2013-06-08T09:08:51Z</time>
      </trkpt>
      <trkpt lat="49.72695" lon="1.93649">
        <ele>137.72</ele>
        <time>2013-06-08T09:09:04Z</time>
      </trkpt>
      <trkpt lat="49.72699" lon="1.93651">
        <ele>136.87</ele>
        <time>2013-06-08T09:09:19Z</time>
      </trkpt>
      <trkpt lat="49.72701" lon="1.93648">
        <ele>136.77</ele>
        <time>2013-06-08T09:09:36Z</time>
      </trkpt>
      <trkpt lat="49.72707" lon="1.93653">
        <ele>136.8</ele>
        <time>2013-06-08T09:09:51Z</time>
      </trkpt>
      <trkpt lat="49.72705" lon="1.93656">
        <ele>137.06</ele>
        <time>2013-06-08T09:10:09Z</time>
      </trkpt>
      <trkpt lat="49.72704" lon="1.93656">
        <ele>136.59</ele>
        <time>2013-06-08T09:10:28Z</time>
      </trkpt>
      <trkpt lat="49.72704" lon="1.93657">
        <ele>136.81</ele>
        <time>2013-06-08T09:11:02Z</time>
      </trkpt>
      <trkpt lat="49.72705" lon="1.93656">
        <ele>136.65</ele>
        <time>2013-06-08T09:11:33Z</time>
      </trkpt>
      <trkpt lat="49.72707" lon="1.93658">
        <ele>136.18</ele>
        <time>2013-06-08T09:12:03Z</time>
      </trkpt>
      <trkpt lat="49.72706" lon="1.93654">
        <ele>136.27</ele>
        <time>2013-06-08T09:12:36Z</time>
      </trkpt>
      <trkpt lat="49.72715" lon="1.93651">
        <ele>135.23</ele>
        <time>2013-06-08T09:13:06Z</time>
      </trkpt>
      <trkpt lat="49.72717" lon="1.9365">
        <ele>134.38</ele>
        <time>2013-06-08T09:13:08Z</time>
      </trkpt>
      <trkpt lat="49.72726" lon="1.93652">
        <ele>131.59</ele>
        <time>2013-06-08T09:13:13Z</time>
      </trkpt>
      <trkpt lat="49.72731" lon="1.93648">
        <ele>130.33</ele>
        <time>2013-06-08T09:13:16Z</time>
      </trkpt>
      <trkpt lat="49.72745" lon="1.93638">
        <ele>127.33</ele>
        <time>2013-06-08T09:13:25Z</time>
      </trkpt>
      <trkpt lat="49.72758" lon="1.93639">
        <ele>125.84</ele>
        <time>2013-06-08T09:13:40Z</time>
      </trkpt>
      <trkpt lat="49.72759" lon="1.93641">
        <ele>126.13</ele>
        <time>2013-06-08T09:13:56Z</time>
      </trkpt>
      <trkpt lat="49.72761" lon="1.93641">
        <ele>125.91</ele>
        <time>2013-06-08T09:14:22Z</time>
      </trkpt>
      <trkpt lat="49.72766" lon="1.93646">
        <ele>125.53</ele>
        <time>2013-06-08T09:14:54Z</time>
      </trkpt>
      <trkpt lat="49.7278" lon="1.93652">
        <ele>125.79</ele>
        <time>2013-06-08T09:15:09Z</time>
      </trkpt>
      <trkpt lat="49.72803" lon="1.93666">
        <ele>125.87</ele>
        <time>2013-06-08T09:15:24Z</time>
      </trkpt>
      <trkpt lat="49.72823" lon="1.93683">
        <ele>125.91</ele>
        <time>2013-06-08T09:15:38Z</time>
      </trkpt>
      <trkpt lat="49.7283" lon="1.93687">
        <ele>126.2</ele>
        <time>2013-06-08T09:15:45Z</time>
      </trkpt>
      <trkpt lat="49.72846" lon="1.93697">
        <ele>126.67</ele>
        <time>2013-06-08T09:15:58Z</time>
      </trkpt>
      <trkpt lat="49.7285" lon="1.93705">
        <ele>126.51</ele>
        <time>2013-06-08T09:16:01Z</time>
      </trkpt>
      <trkpt lat="49.72857" lon="1.93721">
        <ele>126.44</ele>
        <time>2013-06-08T09:16:11Z</time>
      </trkpt>
      <trkpt lat="49.72858" lon="1.93723">
        <ele>126.37</ele>
        <time>2013-06-08T09:16:13Z</time>
      </trkpt>
      <trkpt lat="49.72859" lon="1.93727">
        <ele>126.61</ele>
        <time>2013-06-08T09:16:15Z</time>
      </trkpt>
      <trkpt lat="49.72868" lon="1.93737">
        <ele>127.96</ele>
        <time>2013-06-08T09:16:29Z</time>
      </trkpt>
      <trkpt lat="49.72876" lon="1.93744">
        <ele>127.61</ele>
        <time>2013-06-08T09:16:51Z</time>
      </trkpt>
      <trkpt lat="49.72883" lon="1.93733">
        <ele>128.73</ele>
        <time>2013-06-08T09:17:02Z</time>
      </trkpt>
      <trkpt lat="49.72888" lon="1.93714">
        <ele>130.44</ele>
        <time>2013-06-08T09:17:09Z</time>
      </trkpt>
      <trkpt lat="49.729" lon="1.93674">
        <ele>132.67</ele>
        <time>2013-06-08T09:17:22Z</time>
      </trkpt>
      <trkpt lat="49.72905" lon="1.93665">
        <ele>133.93</ele>
        <time>2013-06-08T09:17:25Z</time>
      </trkpt>
      <trkpt lat="49.72911" lon="1.93644">
        <ele>135.92</ele>
        <time>2013-06-08T09:17:36Z</time>
      </trkpt>
      <trkpt lat="49.72911" lon="1.93642">
        <ele>136.13</ele>
        <time>2013-06-08T09:17:37Z</time>
      </trkpt>
      <trkpt lat="49.72909" lon="1.93624">
        <ele>136.79</ele>
        <time>2013-06-08T09:17:46Z</time>
      </trkpt>
      <trkpt lat="49.72903" lon="1.93613">
        <ele>137.03</ele>
        <time>2013-06-08T09:17:57Z</time>
      </trkpt>
      <trkpt lat="49.72908" lon="1.93615">
        <ele>137.16</ele>
        <time>2013-06-08T09:18:09Z</time>
      </trkpt>
      <trkpt lat="49.72912" lon="1.93621">
        <ele>137.53</ele>
        <time>2013-06-08T09:18:14Z</time>
      </trkpt>
      <trkpt lat="49.72904" lon="1.93662">
        <ele>135.36</ele>
        <time>2013-06-08T09:18:36Z</time>
      </trkpt>
      <trkpt lat="49.72894" lon="1.93699">
        <ele>132.34</ele>
        <time>2013-06-08T09:18:46Z</time>
      </trkpt>
      <trkpt lat="49.72883" lon="1.93738">
        <ele>128.91</ele>
        <time>2013-06-08T09:18:56Z</time>
      </trkpt>
      <trkpt lat="49.72881" lon="1.93744">
        <ele>128.26</ele>
        <time>2013-06-08T09:18:58Z</time>
      </trkpt>
      <trkpt lat="49.72866" lon="1.93791">
        <ele>127.17</ele>
        <time>2013-06-08T09:19:10Z</time>
      </trkpt>
      <trkpt lat="49.72857" lon="1.93823">
        <ele>126.51</ele>
        <time>2013-06-08T09:19:20Z</time>
      </trkpt>
      <trkpt lat="49.72833" lon="1.9382">
        <ele>126.7</ele>
        <time>2013-06-08T09:19:31Z</time>
      </trkpt>
      <trkpt lat="49.72802" lon="1.93816">
        <ele>126.82</ele>
        <time>2013-06-08T09:19:44Z</time>
      </trkpt>
      <trkpt lat="49.7278" lon="1.93816">
        <ele>127.15</ele>
        <time>2013-06-08T09:19:54Z</time>
      </trkpt>
      <trkpt lat="49.7276" lon="1.93821">
        <ele>127.55</ele>
        <time>2013-06-08T09:20:06Z</time>
      </trkpt>
      <trkpt lat="49.72738" lon="1.9383">
        <ele>130.62</ele>
        <time>2013-06-08T09:20:18Z</time>
      </trkpt>
      <trkpt lat="49.72717" lon="1.93834">
        <ele>133.8</ele>
        <time>2013-06-08T09:20:31Z</time>
      </trkpt>
      <trkpt lat="49.72696" lon="1.93839">
        <ele>136.87</ele>
        <time>2013-06-08T09:20:44Z</time>
      </trkpt>
      <trkpt lat="49.72669" lon="1.93843">
        <ele>139.9</ele>
        <time>2013-06-08T09:21:00Z</time>
      </trkpt>
      <trkpt lat="49.72667" lon="1.93842">
        <ele>139.93</ele>
        <time>2013-06-08T09:21:01Z</time>
      </trkpt>
      <trkpt lat="49.72641" lon="1.93846">
        <ele>142.52</ele>
        <time>2013-06-08T09:21:16Z</time>
      </trkpt>
      <trkpt lat="49.72627" lon="1.93846">
        <ele>144</ele>
        <time>2013-06-08T09:21:24Z</time>
      </trkpt>
      <trkpt lat="49.72625" lon="1.93847">
        <ele>144.45</ele>
        <time>2013-06-08T09:21:26Z</time>
      </trkpt>
      <trkpt lat="49.72597" lon="1.93849">
        <ele>147.82</ele>
        <time>2013-06-08T09:21:40Z</time>
      </trkpt>
      <trkpt lat="49.72585" lon="1.93849">
        <ele>149.1</ele>
        <time>2013-06-08T09:21:45Z</time>
      </trkpt>
      <trkpt lat="49.72567" lon="1.93846">
        <ele>153</ele>
        <time>2013-06-08T09:21:56Z</time>
      </trkpt>
      <trkpt lat="49.72553" lon="1.93844">
        <ele>156.02</ele>
        <time>2013-06-08T09:22:04Z</time>
      </trkpt>
      <trkpt lat="49.72541" lon="1.93845">
        <ele>159.06</ele>
        <time>2013-06-08T09:22:13Z</time>
      </trkpt>
      <trkpt lat="49.72533" lon="1.93846">
        <ele>161.32</ele>
        <time>2013-06-08T09:22:18Z</time>
      </trkpt>
      <trkpt lat="49.72517" lon="1.93851">
        <ele>165.1</ele>
        <time>2013-06-08T09:22:28Z</time>
      </trkpt>
      <trkpt lat="49.72515" lon="1.93853">
        <ele>166.15</ele>
        <time>2013-06-08T09:22:30Z</time>
      </trkpt>
      <trkpt lat="49.72505" lon="1.93851">
        <ele>169.62</ele>
        <time>2013-06-08T09:22:38Z</time>
      </trkpt>
      <trkpt lat="49.72487" lon="1.93856">
        <ele>172.61</ele>
        <time>2013-06-08T09:22:50Z</time>
      </trkpt>
      <trkpt lat="49.72467" lon="1.93856">
        <ele>175.61</ele>
        <time>2013-06-08T09:23:10Z</time>
      </trkpt>
      <trkpt lat="49.72442" lon="1.93857">
        <ele>178.71</ele>
        <time>2013-06-08T09:23:31Z</time>
      </trkpt>
      <trkpt lat="49.72421" lon="1.9385">
        <ele>179.87</ele>
        <time>2013-06-08T09:23:56Z</time>
      </trkpt>
      <trkpt lat="49.72422" lon="1.93848">
        <ele>180.09</ele>
        <time>2013-06-08T09:24:23Z</time>
      </trkpt>
      <trkpt lat="49.72422" lon="1.93848">
        <ele>180.18</ele>
        <time>2013-06-08T09:24:52Z</time>
      </trkpt>
      <trkpt lat="49.72411" lon="1.93847">
        <ele>181.16</ele>
        <time>2013-06-08T09:25:04Z</time>
      </trkpt>
      <trkpt lat="49.72409" lon="1.93847">
        <ele>180.98</ele>
        <time>2013-06-08T09:25:05Z</time>
      </trkpt>
      <trkpt lat="49.72388" lon="1.93855">
        <ele>182.06</ele>
        <time>2013-06-08T09:25:19Z</time>
      </trkpt>
      <trkpt lat="49.72357" lon="1.93844">
        <ele>182.42</ele>
        <time>2013-06-08T09:25:31Z</time>
      </trkpt>
      <trkpt lat="49.7233" lon="1.93842">
        <ele>183.32</ele>
        <time>2013-06-08T09:25:42Z</time>
      </trkpt>
      <trkpt lat="49.72318" lon="1.93836">
        <ele>183.89</ele>
        <time>2013-06-08T09:25:49Z</time>
      </trkpt>
      <trkpt lat="49.72296" lon="1.93829">
        <ele>184.12</ele>
        <time>2013-06-08T09:26:00Z</time>
      </trkpt>
      <trkpt lat="49.72285" lon="1.9382">
        <ele>184.38</ele>
        <time>2013-06-08T09:26:06Z</time>
      </trkpt>
      <trkpt lat="49.72272" lon="1.93821">
        <ele>184.45</ele>
        <time>2013-06-08T09:26:12Z</time>
      </trkpt>
      <trkpt lat="49.72266" lon="1.9382">
        <ele>184.68</ele>
        <time>2013-06-08T09:26:14Z</time>
      </trkpt>
      <trkpt lat="49.72245" lon="1.93812">
        <ele>184.51</ele>
        <time>2013-06-08T09:26:22Z</time>
      </trkpt>
      <trkpt lat="49.72215" lon="1.93812">
        <ele>184.97</ele>
        <time>2013-06-08T09:26:36Z</time>
      </trkpt>
      <trkpt lat="49.72179" lon="1.938">
        <ele>184.6</ele>
        <time>2013-06-08T09:26:49Z</time>
      </trkpt>
      <trkpt lat="49.72148" lon="1.93794">
        <ele>184.51</ele>
        <time>2013-06-08T09:27:02Z</time>
      </trkpt>
      <trkpt lat="49.7211" lon="1.93782">
        <ele>184.42</ele>
        <time>2013-06-08T09:27:15Z</time>
      </trkpt>
      <trkpt lat="49.72074" lon="1.93778">
        <ele>183.81</ele>
        <time>2013-06-08T09:27:27Z</time>
      </trkpt>
      <trkpt lat="49.72053" lon="1.9378">
        <ele>183.8</ele>
        <time>2013-06-08T09:27:35Z</time>
      </trkpt>
      <trkpt lat="49.72048" lon="1.93764">
        <ele>183.23</ele>
        <time>2013-06-08T09:27:40Z</time>
      </trkpt>
      <trkpt lat="49.72043" lon="1.9372">
        <ele>183.34</ele>
        <time>2013-06-08T09:27:52Z</time>
      </trkpt>
      <trkpt lat="49.7203" lon="1.93668">
        <ele>183.65</ele>
        <time>2013-06-08T09:28:05Z</time>
      </trkpt>
      <trkpt lat="49.72015" lon="1.93616">
        <ele>182.57</ele>
        <time>2013-06-08T09:28:18Z</time>
      </trkpt>
      <trkpt lat="49.7201" lon="1.93575">
        <ele>182.11</ele>
        <time>2013-06-08T09:28:31Z</time>
      </trkpt>
      <trkpt lat="49.72011" lon="1.93567">
        <ele>182</ele>
        <time>2013-06-08T09:28:33Z</time>
      </trkpt>
      <trkpt lat="49.72001" lon="1.9356">
        <ele>181.53</ele>
        <time>2013-06-08T09:28:38Z</time>
      </trkpt>
      <trkpt lat="49.71976" lon="1.9356">
        <ele>178.37</ele>
        <time>2013-06-08T09:28:52Z</time>
      </trkpt>
      <trkpt lat="49.71959" lon="1.93562">
        <ele>175.35</ele>
        <time>2013-06-08T09:28:58Z</time>
      </trkpt>
      <trkpt lat="49.71944" lon="1.93559">
        <ele>171.97</ele>
        <time>2013-06-08T09:29:03Z</time>
      </trkpt>
      <trkpt lat="49.71929" lon="1.93552">
        <ele>168.34</ele>
        <time>2013-06-08T09:29:09Z</time>
      </trkpt>
      <trkpt lat="49.7192" lon="1.93547">
        <ele>165.14</ele>
        <time>2013-06-08T09:29:15Z</time>
      </trkpt>
      <trkpt lat="49.71909" lon="1.93546">
        <ele>161.96</ele>
        <time>2013-06-08T09:29:21Z</time>
      </trkpt>
      <trkpt lat="49.71901" lon="1.93546">
        <ele>158.75</ele>
        <time>2013-06-08T09:29:24Z</time>
      </trkpt>
      <trkpt lat="49.71892" lon="1.93543">
        <ele>155.3</ele>
        <time>2013-06-08T09:29:29Z</time>
      </trkpt>
      <trkpt lat="49.71884" lon="1.93542">
        <ele>151.45</ele>
        <time>2013-06-08T09:29:33Z</time>
      </trkpt>
      <trkpt lat="49.71871" lon="1.93545">
        <ele>147.72</ele>
        <time>2013-06-08T09:29:39Z</time>
      </trkpt>
      <trkpt lat="49.71868" lon="1.93547">
        <ele>145.73</ele>
        <time>2013-06-08T09:29:41Z</time>
      </trkpt>
      <trkpt lat="49.71861" lon="1.93552">
        <ele>142.17</ele>
        <time>2013-06-08T09:29:47Z</time>
      </trkpt>
      <trkpt lat="49.71859" lon="1.93552">
        <ele>141.17</ele>
        <time>2013-06-08T09:29:49Z</time>
      </trkpt>
      <trkpt lat="49.71852" lon="1.93549">
        <ele>139.22</ele>
        <time>2013-06-08T09:29:53Z</time>
      </trkpt>
      <trkpt lat="49.71843" lon="1.93562">
        <ele>134.89</ele>
        <time>2013-06-08T09:29:58Z</time>
      </trkpt>
      <trkpt lat="49.71844" lon="1.9357">
        <ele>134.17</ele>
        <time>2013-06-08T09:30:00Z</time>
      </trkpt>
      <trkpt lat="49.71845" lon="1.93577">
        <ele>133.31</ele>
        <time>2013-06-08T09:30:02Z</time>
      </trkpt>
      <trkpt lat="49.71845" lon="1.93587">
        <ele>133.2</ele>
        <time>2013-06-08T09:30:05Z</time>
      </trkpt>
      <trkpt lat="49.71847" lon="1.93594">
        <ele>133.42</ele>
        <time>2013-06-08T09:30:09Z</time>
      </trkpt>
      <trkpt lat="49.71848" lon="1.93602">
        <ele>133.47</ele>
        <time>2013-06-08T09:30:14Z</time>
      </trkpt>
      <trkpt lat="49.71845" lon="1.93615">
        <ele>133.59</ele>
        <time>2013-06-08T09:30:20Z</time>
      </trkpt>
      <trkpt lat="49.71845" lon="1.93618">
        <ele>133.56</ele>
        <time>2013-06-08T09:30:22Z</time>
      </trkpt>
      <trkpt lat="49.71837" lon="1.93642">
        <ele>133.34</ele>
        <time>2013-06-08T09:30:34Z</time>
      </trkpt>
      <trkpt lat="49.71823" lon="1.93679">
        <ele>133.39</ele>
        <time>2013-06-08T09:30:45Z</time>
      </trkpt>
      <trkpt lat="49.71812" lon="1.9372">
        <ele>133.57</ele>
        <time>2013-06-08T09:30:56Z</time>
      </trkpt>
      <trkpt lat="49.71797" lon="1.93754">
        <ele>132.86</ele>
        <time>2013-06-08T09:31:08Z</time>
      </trkpt>
      <trkpt lat="49.71785" lon="1.93787">
        <ele>133</ele>
        <time>2013-06-08T09:31:19Z</time>
      </trkpt>
      <trkpt lat="49.71771" lon="1.9383">
        <ele>132.59</ele>
        <time>2013-06-08T09:31:32Z</time>
      </trkpt>
      <trkpt lat="49.71761" lon="1.93878">
        <ele>132.16</ele>
        <time>2013-06-08T09:31:45Z</time>
      </trkpt>
      <trkpt lat="49.71766" lon="1.93925">
        <ele>131.92</ele>
        <time>2013-06-08T09:31:58Z</time>
      </trkpt>
      <trkpt lat="49.71778" lon="1.93977">
        <ele>130.39</ele>
        <time>2013-06-08T09:32:12Z</time>
      </trkpt>
      <trkpt lat="49.71781" lon="1.93983">
        <ele>130.76</ele>
        <time>2013-06-08T09:32:14Z</time>
      </trkpt>
      <trkpt lat="49.71788" lon="1.94007">
        <ele>130.62</ele>
        <time>2013-06-08T09:32:20Z</time>
      </trkpt>
      <trkpt lat="49.71788" lon="1.94024">
        <ele>130.54</ele>
        <time>2013-06-08T09:32:24Z</time>
      </trkpt>
      <trkpt lat="49.71792" lon="1.94036">
        <ele>130.5</ele>
        <time>2013-06-08T09:32:28Z</time>
      </trkpt>
      <trkpt lat="49.71795" lon="1.94046">
        <ele>130.46</ele>
        <time>2013-06-08T09:32:31Z</time>
      </trkpt>
      <trkpt lat="49.718" lon="1.9406">
        <ele>130.28</ele>
        <time>2013-06-08T09:32:36Z</time>
      </trkpt>
      <trkpt lat="49.71804" lon="1.94075">
        <ele>130.55</ele>
        <time>2013-06-08T09:32:40Z</time>
      </trkpt>
      <trkpt lat="49.71808" lon="1.94086">
        <ele>130.72</ele>
        <time>2013-06-08T09:32:43Z</time>
      </trkpt>
      <trkpt lat="49.71822" lon="1.94129">
        <ele>130.05</ele>
        <time>2013-06-08T09:32:56Z</time>
      </trkpt>
      <trkpt lat="49.71832" lon="1.94165">
        <ele>130</ele>
        <time>2013-06-08T09:33:06Z</time>
      </trkpt>
      <trkpt lat="49.71855" lon="1.94202">
        <ele>129.33</ele>
        <time>2013-06-08T09:33:17Z</time>
      </trkpt>
      <trkpt lat="49.71874" lon="1.94243">
        <ele>129.54</ele>
        <time>2013-06-08T09:33:30Z</time>
      </trkpt>
      <trkpt lat="49.7189" lon="1.94287">
        <ele>129.72</ele>
        <time>2013-06-08T09:33:43Z</time>
      </trkpt>
      <trkpt lat="49.71909" lon="1.94325">
        <ele>129.16</ele>
        <time>2013-06-08T09:33:54Z</time>
      </trkpt>
      <trkpt lat="49.71923" lon="1.94335">
        <ele>129.24</ele>
        <time>2013-06-08T09:34:02Z</time>
      </trkpt>
      <trkpt lat="49.71936" lon="1.9433">
        <ele>132.64</ele>
        <time>2013-06-08T09:34:16Z</time>
      </trkpt>
      <trkpt lat="49.71941" lon="1.94328">
        <ele>135.66</ele>
        <time>2013-06-08T09:34:24Z</time>
      </trkpt>
      <trkpt lat="49.71943" lon="1.94327">
        <ele>136.38</ele>
        <time>2013-06-08T09:34:26Z</time>
      </trkpt>
      <trkpt lat="49.71949" lon="1.94323">
        <ele>139.72</ele>
        <time>2013-06-08T09:34:35Z</time>
      </trkpt>
      <trkpt lat="49.71956" lon="1.9432">
        <ele>142.72</ele>
        <time>2013-06-08T09:34:43Z</time>
      </trkpt>
      <trkpt lat="49.71963" lon="1.94318">
        <ele>145.77</ele>
        <time>2013-06-08T09:34:52Z</time>
      </trkpt>
      <trkpt lat="49.71972" lon="1.94316">
        <ele>148.94</ele>
        <time>2013-06-08T09:35:02Z</time>
      </trkpt>
      <trkpt lat="49.71978" lon="1.94311">
        <ele>152.06</ele>
        <time>2013-06-08T09:35:12Z</time>
      </trkpt>
      <trkpt lat="49.71984" lon="1.94306">
        <ele>155.16</ele>
        <time>2013-06-08T09:35:22Z</time>
      </trkpt>
      <trkpt lat="49.71989" lon="1.94304">
        <ele>158.35</ele>
        <time>2013-06-08T09:35:32Z</time>
      </trkpt>
      <trkpt lat="49.7199" lon="1.94304">
        <ele>161.67</ele>
        <time>2013-06-08T09:35:43Z</time>
      </trkpt>
      <trkpt lat="49.72002" lon="1.94314">
        <ele>165.04</ele>
        <time>2013-06-08T09:35:59Z</time>
      </trkpt>
      <trkpt lat="49.7201" lon="1.943">
        <ele>167.4</ele>
        <time>2013-06-08T09:36:16Z</time>
      </trkpt>
      <trkpt lat="49.7202" lon="1.94316">
        <ele>168.82</ele>
        <time>2013-06-08T09:36:33Z</time>
      </trkpt>
      <trkpt lat="49.72029" lon="1.94312">
        <ele>171.82</ele>
        <time>2013-06-08T09:36:45Z</time>
      </trkpt>
      <trkpt lat="49.72033" lon="1.94309">
        <ele>172.51</ele>
        <time>2013-06-08T09:36:48Z</time>
      </trkpt>
      <trkpt lat="49.72045" lon="1.94297">
        <ele>175.81</ele>
        <time>2013-06-08T09:37:03Z</time>
      </trkpt>
      <trkpt lat="49.72064" lon="1.94294">
        <ele>178.86</ele>
        <time>2013-06-08T09:37:23Z</time>
      </trkpt>
      <trkpt lat="49.72073" lon="1.94298">
        <ele>179.66</ele>
        <time>2013-06-08T09:37:30Z</time>
      </trkpt>
      <trkpt lat="49.72084" lon="1.943">
        <ele>180.75</ele>
        <time>2013-06-08T09:37:37Z</time>
      </trkpt>
      <trkpt lat="49.721" lon="1.94298">
        <ele>182.14</ele>
        <time>2013-06-08T09:37:46Z</time>
      </trkpt>
      <trkpt lat="49.72129" lon="1.94299">
        <ele>183.14</ele>
        <time>2013-06-08T09:38:00Z</time>
      </trkpt>
      <trkpt lat="49.72159" lon="1.94288">
        <ele>184.09</ele>
        <time>2013-06-08T09:38:14Z</time>
      </trkpt>
      <trkpt lat="49.72187" lon="1.94286">
        <ele>184.62</ele>
        <time>2013-06-08T09:38:25Z</time>
      </trkpt>
      <trkpt lat="49.72203" lon="1.94284">
        <ele>184.68</ele>
        <time>2013-06-08T09:38:32Z</time>
      </trkpt>
      <trkpt lat="49.7223" lon="1.94287">
        <ele>184.26</ele>
        <time>2013-06-08T09:38:43Z</time>
      </trkpt>
      <trkpt lat="49.72253" lon="1.94286">
        <ele>184.35</ele>
        <time>2013-06-08T09:38:53Z</time>
      </trkpt>
      <trkpt lat="49.72284" lon="1.94285">
        <ele>184.25</ele>
        <time>2013-06-08T09:39:07Z</time>
      </trkpt>
      <trkpt lat="49.72314" lon="1.94285">
        <ele>183.86</ele>
        <time>2013-06-08T09:39:20Z</time>
      </trkpt>
      <trkpt lat="49.72344" lon="1.94279">
        <ele>182.63</ele>
        <time>2013-06-08T09:39:33Z</time>
      </trkpt>
      <trkpt lat="49.72368" lon="1.94289">
        <ele>181.96</ele>
        <time>2013-06-08T09:39:44Z</time>
      </trkpt>
      <trkpt lat="49.72401" lon="1.94292">
        <ele>180.32</ele>
        <time>2013-06-08T09:39:58Z</time>
      </trkpt>
      <trkpt lat="49.7242" lon="1.94293">
        <ele>179.21</ele>
        <time>2013-06-08T09:40:06Z</time>
      </trkpt>
      <trkpt lat="49.7243" lon="1.94296">
        <ele>177.72</ele>
        <time>2013-06-08T09:40:10Z</time>
      </trkpt>
      <trkpt lat="49.7246" lon="1.94295">
        <ele>175.05</ele>
        <time>2013-06-08T09:40:23Z</time>
      </trkpt>
      <trkpt lat="49.72474" lon="1.94296">
        <ele>171.59</ele>
        <time>2013-06-08T09:40:32Z</time>
      </trkpt>
      <trkpt lat="49.72487" lon="1.94301">
        <ele>168.4</ele>
        <time>2013-06-08T09:40:41Z</time>
      </trkpt>
      <trkpt lat="49.72494" lon="1.94299">
        <ele>165.15</ele>
        <time>2013-06-08T09:40:46Z</time>
      </trkpt>
      <trkpt lat="49.72499" lon="1.943">
        <ele>163.45</ele>
        <time>2013-06-08T09:40:49Z</time>
      </trkpt>
      <trkpt lat="49.72505" lon="1.943">
        <ele>162.05</ele>
        <time>2013-06-08T09:40:53Z</time>
      </trkpt>
      <trkpt lat="49.72512" lon="1.94302">
        <ele>158.09</ele>
        <time>2013-06-08T09:40:57Z</time>
      </trkpt>
      <trkpt lat="49.72525" lon="1.94304">
        <ele>154.89</ele>
        <time>2013-06-08T09:41:03Z</time>
      </trkpt>
      <trkpt lat="49.72539" lon="1.94307">
        <ele>151.45</ele>
        <time>2013-06-08T09:41:09Z</time>
      </trkpt>
      <trkpt lat="49.72548" lon="1.9431">
        <ele>148.4</ele>
        <time>2013-06-08T09:41:16Z</time>
      </trkpt>
      <trkpt lat="49.72554" lon="1.9431">
        <ele>147.12</ele>
        <time>2013-06-08T09:41:19Z</time>
      </trkpt>
      <trkpt lat="49.72562" lon="1.94305">
        <ele>145.5</ele>
        <time>2013-06-08T09:41:29Z</time>
      </trkpt>
      <trkpt lat="49.72569" lon="1.94303">
        <ele>144</ele>
        <time>2013-06-08T09:41:37Z</time>
      </trkpt>
      <trkpt lat="49.72583" lon="1.94302">
        <ele>142.53</ele>
        <time>2013-06-08T09:41:46Z</time>
      </trkpt>
      <trkpt lat="49.72587" lon="1.94307">
        <ele>141.97</ele>
        <time>2013-06-08T09:41:50Z</time>
      </trkpt>
      <trkpt lat="49.72604" lon="1.94338">
        <ele>142.82</ele>
        <time>2013-06-08T09:42:02Z</time>
      </trkpt>
      <trkpt lat="49.72612" lon="1.94368">
        <ele>142.59</ele>
        <time>2013-06-08T09:42:16Z</time>
      </trkpt>
      <trkpt lat="49.72619" lon="1.94408">
        <ele>142.13</ele>
        <time>2013-06-08T09:42:29Z</time>
      </trkpt>
      <trkpt lat="49.72614" lon="1.94446">
        <ele>144.53</ele>
        <time>2013-06-08T09:42:41Z</time>
      </trkpt>
      <trkpt lat="49.7261" lon="1.94479">
        <ele>146.66</ele>
        <time>2013-06-08T09:42:53Z</time>
      </trkpt>
      <trkpt lat="49.7261" lon="1.94504">
        <ele>146.84</ele>
        <time>2013-06-08T09:43:05Z</time>
      </trkpt>
      <trkpt lat="49.7262" lon="1.94547">
        <ele>146.48</ele>
        <time>2013-06-08T09:43:20Z</time>
      </trkpt>
      <trkpt lat="49.72626" lon="1.94579">
        <ele>146.57</ele>
        <time>2013-06-08T09:43:30Z</time>
      </trkpt>
      <trkpt lat="49.72617" lon="1.9463">
        <ele>146.5</ele>
        <time>2013-06-08T09:43:43Z</time>
      </trkpt>
      <trkpt lat="49.72617" lon="1.94641">
        <ele>146.62</ele>
        <time>2013-06-08T09:43:47Z</time>
      </trkpt>
      <trkpt lat="49.72617" lon="1.94654">
        <ele>145.93</ele>
        <time>2013-06-08T09:43:52Z</time>
      </trkpt>
      <trkpt lat="49.72615" lon="1.94669">
        <ele>145.22</ele>
        <time>2013-06-08T09:44:06Z</time>
      </trkpt>
      <trkpt lat="49.72613" lon="1.94671">
        <ele>145.59</ele>
        <time>2013-06-08T09:44:09Z</time>
      </trkpt>
      <trkpt lat="49.72607" lon="1.94677">
        <ele>146.04</ele>
        <time>2013-06-08T09:44:13Z</time>
      </trkpt>
      <trkpt lat="49.72596" lon="1.94697">
        <ele>147.97</ele>
        <time>2013-06-08T09:44:30Z</time>
      </trkpt>
      <trkpt lat="49.7259" lon="1.94704">
        <ele>148.58</ele>
        <time>2013-06-08T09:44:36Z</time>
      </trkpt>
      <trkpt lat="49.72586" lon="1.94713">
        <ele>149.8</ele>
        <time>2013-06-08T09:44:46Z</time>
      </trkpt>
      <trkpt lat="49.72586" lon="1.94717">
        <ele>149.65</ele>
        <time>2013-06-08T09:44:49Z</time>
      </trkpt>
      <trkpt lat="49.72574" lon="1.9473">
        <ele>151.25</ele>
        <time>2013-06-08T09:45:05Z</time>
      </trkpt>
      <trkpt lat="49.72573" lon="1.94731">
        <ele>151.35</ele>
        <time>2013-06-08T09:45:23Z</time>
      </trkpt>
      <trkpt lat="49.72568" lon="1.94747">
        <ele>150.72</ele>
        <time>2013-06-08T09:45:47Z</time>
      </trkpt>
      <trkpt lat="49.7257" lon="1.94753">
        <ele>149.64</ele>
        <time>2013-06-08T09:45:50Z</time>
      </trkpt>
      <trkpt lat="49.72575" lon="1.94769">
        <ele>148.84</ele>
        <time>2013-06-08T09:45:58Z</time>
      </trkpt>
      <trkpt lat="49.72572" lon="1.94789">
        <ele>149.03</ele>
        <time>2013-06-08T09:46:09Z</time>
      </trkpt>
      <trkpt lat="49.72572" lon="1.94804">
        <ele>148.1</ele>
        <time>2013-06-08T09:46:22Z</time>
      </trkpt>
      <trkpt lat="49.72567" lon="1.94826">
        <ele>148.13</ele>
        <time>2013-06-08T09:46:35Z</time>
      </trkpt>
      <trkpt lat="49.72573" lon="1.94843">
        <ele>147.93</ele>
        <time>2013-06-08T09:46:46Z</time>
      </trkpt>
      <trkpt lat="49.72572" lon="1.9485">
        <ele>148.07</ele>
        <time>2013-06-08T09:46:50Z</time>
      </trkpt>
      <trkpt lat="49.72571" lon="1.94856">
        <ele>149.4</ele>
        <time>2013-06-08T09:46:53Z</time>
      </trkpt>
      <trkpt lat="49.7257" lon="1.94858">
        <ele>149.42</ele>
        <time>2013-06-08T09:46:54Z</time>
      </trkpt>
      <trkpt lat="49.72566" lon="1.94859">
        <ele>150.68</ele>
        <time>2013-06-08T09:46:58Z</time>
      </trkpt>
      <trkpt lat="49.72558" lon="1.94857">
        <ele>154.16</ele>
        <time>2013-06-08T09:47:09Z</time>
      </trkpt>
      <trkpt lat="49.72547" lon="1.94854">
        <ele>156.08</ele>
        <time>2013-06-08T09:47:17Z</time>
      </trkpt>
      <trkpt lat="49.72526" lon="1.94852">
        <ele>157.82</ele>
        <time>2013-06-08T09:47:31Z</time>
      </trkpt>
      <trkpt lat="49.72518" lon="1.94849">
        <ele>160.57</ele>
        <time>2013-06-08T09:47:44Z</time>
      </trkpt>
      <trkpt lat="49.72516" lon="1.94848">
        <ele>161.04</ele>
        <time>2013-06-08T09:47:47Z</time>
      </trkpt>
      <trkpt lat="49.72511" lon="1.94847">
        <ele>162.4</ele>
        <time>2013-06-08T09:47:53Z</time>
      </trkpt>
      <trkpt lat="49.72503" lon="1.94842">
        <ele>163.73</ele>
        <time>2013-06-08T09:47:59Z</time>
      </trkpt>
      <trkpt lat="49.72493" lon="1.94837">
        <ele>165.43</ele>
        <time>2013-06-08T09:48:07Z</time>
      </trkpt>
      <trkpt lat="49.72491" lon="1.94837">
        <ele>166.11</ele>
        <time>2013-06-08T09:48:09Z</time>
      </trkpt>
      <trkpt lat="49.72476" lon="1.94829">
        <ele>168.04</ele>
        <time>2013-06-08T09:48:22Z</time>
      </trkpt>
      <trkpt lat="49.72463" lon="1.94827">
        <ele>169.96</ele>
        <time>2013-06-08T09:48:35Z</time>
      </trkpt>
      <trkpt lat="49.72432" lon="1.94823">
        <ele>172.81</ele>
        <time>2013-06-08T09:48:50Z</time>
      </trkpt>
      <trkpt lat="49.7241" lon="1.94833">
        <ele>175.14</ele>
        <time>2013-06-08T09:49:03Z</time>
      </trkpt>
      <trkpt lat="49.72388" lon="1.9484">
        <ele>177.16</ele>
        <time>2013-06-08T09:49:18Z</time>
      </trkpt>
      <trkpt lat="49.7238" lon="1.94839">
        <ele>177.99</ele>
        <time>2013-06-08T09:49:24Z</time>
      </trkpt>
      <trkpt lat="49.7235" lon="1.94835">
        <ele>179.55</ele>
        <time>2013-06-08T09:49:37Z</time>
      </trkpt>
      <trkpt lat="49.72329" lon="1.94837">
        <ele>179.73</ele>
        <time>2013-06-08T09:49:45Z</time>
      </trkpt>
      <trkpt lat="49.72321" lon="1.94835">
        <ele>180.29</ele>
        <time>2013-06-08T09:49:49Z</time>
      </trkpt>
      <trkpt lat="49.72294" lon="1.94835">
        <ele>181.25</ele>
        <time>2013-06-08T09:50:03Z</time>
      </trkpt>
      <trkpt lat="49.72285" lon="1.94837">
        <ele>181.54</ele>
        <time>2013-06-08T09:50:08Z</time>
      </trkpt>
      <trkpt lat="49.72269" lon="1.94846">
        <ele>181.91</ele>
        <time>2013-06-08T09:50:16Z</time>
      </trkpt>
      <trkpt lat="49.72255" lon="1.9485">
        <ele>181.93</ele>
        <time>2013-06-08T09:50:22Z</time>
      </trkpt>
      <trkpt lat="49.72219" lon="1.94858">
        <ele>181.24</ele>
        <time>2013-06-08T09:50:37Z</time>
      </trkpt>
      <trkpt lat="49.72191" lon="1.94858">
        <ele>180.26</ele>
        <time>2013-06-08T09:50:47Z</time>
      </trkpt>
      <trkpt lat="49.7216" lon="1.94853">
        <ele>177.61</ele>
        <time>2013-06-08T09:51:00Z</time>
      </trkpt>
      <trkpt lat="49.72151" lon="1.94855">
        <ele>176.32</ele>
        <time>2013-06-08T09:51:04Z</time>
      </trkpt>
      <trkpt lat="49.72138" lon="1.94859">
        <ele>174.6</ele>
        <time>2013-06-08T09:51:08Z</time>
      </trkpt>
      <trkpt lat="49.72123" lon="1.94859">
        <ele>172.61</ele>
        <time>2013-06-08T09:51:13Z</time>
      </trkpt>
      <trkpt lat="49.72108" lon="1.94853">
        <ele>169.15</ele>
        <time>2013-06-08T09:51:19Z</time>
      </trkpt>
      <trkpt lat="49.72105" lon="1.94853">
        <ele>167.91</ele>
        <time>2013-06-08T09:51:20Z</time>
      </trkpt>
      <trkpt lat="49.72091" lon="1.94862">
        <ele>164.16</ele>
        <time>2013-06-08T09:51:26Z</time>
      </trkpt>
      <trkpt lat="49.72087" lon="1.94865">
        <ele>163.16</ele>
        <time>2013-06-08T09:51:28Z</time>
      </trkpt>
      <trkpt lat="49.72073" lon="1.94868">
        <ele>159.22</ele>
        <time>2013-06-08T09:51:32Z</time>
      </trkpt>
      <trkpt lat="49.72062" lon="1.94866">
        <ele>155.6</ele>
        <time>2013-06-08T09:51:36Z</time>
      </trkpt>
      <trkpt lat="49.72056" lon="1.94866">
        <ele>153.37</ele>
        <time>2013-06-08T09:51:39Z</time>
      </trkpt>
      <trkpt lat="49.72045" lon="1.94868">
        <ele>149.54</ele>
        <time>2013-06-08T09:51:45Z</time>
      </trkpt>
      <trkpt lat="49.72035" lon="1.9487">
        <ele>146.38</ele>
        <time>2013-06-08T09:51:49Z</time>
      </trkpt>
      <trkpt lat="49.72025" lon="1.9487">
        <ele>143.23</ele>
        <time>2013-06-08T09:51:54Z</time>
      </trkpt>
      <trkpt lat="49.72011" lon="1.94875">
        <ele>140.2</ele>
        <time>2013-06-08T09:51:59Z</time>
      </trkpt>
      <trkpt lat="49.71993" lon="1.94881">
        <ele>136.71</ele>
        <time>2013-06-08T09:52:06Z</time>
      </trkpt>
      <trkpt lat="49.71979" lon="1.94888">
        <ele>133.66</ele>
        <time>2013-06-08T09:52:12Z</time>
      </trkpt>
      <trkpt lat="49.71976" lon="1.9489">
        <ele>133.36</ele>
        <time>2013-06-08T09:52:13Z</time>
      </trkpt>
      <trkpt lat="49.7196" lon="1.94899">
        <ele>130.14</ele>
        <time>2013-06-08T09:52:20Z</time>
      </trkpt>
      <trkpt lat="49.71957" lon="1.94914">
        <ele>129.27</ele>
        <time>2013-06-08T09:52:25Z</time>
      </trkpt>
      <trkpt lat="49.71964" lon="1.94955">
        <ele>128.61</ele>
        <time>2013-06-08T09:52:37Z</time>
      </trkpt>
      <trkpt lat="49.7197" lon="1.94997">
        <ele>128.66</ele>
        <time>2013-06-08T09:52:49Z</time>
      </trkpt>
      <trkpt lat="49.7198" lon="1.9504">
        <ele>128.57</ele>
        <time>2013-06-08T09:53:02Z</time>
      </trkpt>
      <trkpt lat="49.71993" lon="1.95087">
        <ele>128.96</ele>
        <time>2013-06-08T09:53:16Z</time>
      </trkpt>
      <trkpt lat="49.72002" lon="1.95132">
        <ele>129.45</ele>
        <time>2013-06-08T09:53:29Z</time>
      </trkpt>
      <trkpt lat="49.71997" lon="1.95176">
        <ele>128.96</ele>
        <time>2013-06-08T09:53:41Z</time>
      </trkpt>
      <trkpt lat="49.72" lon="1.95224">
        <ele>129.26</ele>
        <time>2013-06-08T09:53:54Z</time>
      </trkpt>
      <trkpt lat="49.71995" lon="1.95265">
        <ele>128.91</ele>
        <time>2013-06-08T09:54:05Z</time>
      </trkpt>
      <trkpt lat="49.71996" lon="1.95305">
        <ele>128.94</ele>
        <time>2013-06-08T09:54:16Z</time>
      </trkpt>
      <trkpt lat="49.72" lon="1.95347">
        <ele>129.34</ele>
        <time>2013-06-08T09:54:28Z</time>
      </trkpt>
      <trkpt lat="49.72002" lon="1.9538">
        <ele>130.63</ele>
        <time>2013-06-08T09:54:40Z</time>
      </trkpt>
      <trkpt lat="49.72007" lon="1.95375">
        <ele>132.78</ele>
        <time>2013-06-08T09:54:55Z</time>
      </trkpt>
      <trkpt lat="49.72009" lon="1.95369">
        <ele>135.93</ele>
        <time>2013-06-08T09:55:12Z</time>
      </trkpt>
      <trkpt lat="49.72011" lon="1.95367">
        <ele>138.97</ele>
        <time>2013-06-08T09:55:27Z</time>
      </trkpt>
      <trkpt lat="49.72015" lon="1.95367">
        <ele>142.36</ele>
        <time>2013-06-08T09:55:41Z</time>
      </trkpt>
      <trkpt lat="49.72022" lon="1.95364">
        <ele>145.52</ele>
        <time>2013-06-08T09:55:57Z</time>
      </trkpt>
      <trkpt lat="49.72029" lon="1.95373">
        <ele>147.27</ele>
        <time>2013-06-08T09:56:19Z</time>
      </trkpt>
      <trkpt lat="49.72032" lon="1.95374">
        <ele>147.39</ele>
        <time>2013-06-08T09:56:21Z</time>
      </trkpt>
      <trkpt lat="49.72045" lon="1.9538">
        <ele>148.54</ele>
        <time>2013-06-08T09:56:45Z</time>
      </trkpt>
      <trkpt lat="49.72062" lon="1.95376">
        <ele>151.41</ele>
        <time>2013-06-08T09:57:09Z</time>
      </trkpt>
      <trkpt lat="49.72071" lon="1.95379">
        <ele>152.19</ele>
        <time>2013-06-08T09:57:18Z</time>
      </trkpt>
      <trkpt lat="49.72098" lon="1.95377">
        <ele>155.48</ele>
        <time>2013-06-08T09:57:43Z</time>
      </trkpt>
      <trkpt lat="49.72132" lon="1.95373">
        <ele>157.73</ele>
        <time>2013-06-08T09:58:09Z</time>
      </trkpt>
      <trkpt lat="49.72161" lon="1.9537">
        <ele>159.73</ele>
        <time>2013-06-08T09:58:33Z</time>
      </trkpt>
      <trkpt lat="49.72175" lon="1.95365">
        <ele>162.33</ele>
        <time>2013-06-08T09:58:47Z</time>
      </trkpt>
      <trkpt lat="49.72188" lon="1.95362">
        <ele>164.01</ele>
        <time>2013-06-08T09:59:00Z</time>
      </trkpt>
      <trkpt lat="49.72202" lon="1.95357">
        <ele>165.78</ele>
        <time>2013-06-08T09:59:13Z</time>
      </trkpt>
      <trkpt lat="49.72207" lon="1.95356">
        <ele>165.92</ele>
        <time>2013-06-08T09:59:17Z</time>
      </trkpt>
      <trkpt lat="49.72219" lon="1.95353">
        <ele>166.78</ele>
        <time>2013-06-08T09:59:27Z</time>
      </trkpt>
      <trkpt lat="49.72228" lon="1.95353">
        <ele>166.42</ele>
        <time>2013-06-08T09:59:40Z</time>
      </trkpt>
      <trkpt lat="49.72237" lon="1.95353">
        <ele>166.22</ele>
        <time>2013-06-08T10:00:03Z</time>
      </trkpt>
      <trkpt lat="49.72239" lon="1.95352">
        <ele>166.41</ele>
        <time>2013-06-08T10:00:29Z</time>
      </trkpt>
      <trkpt lat="49.72242" lon="1.95358">
        <ele>166.52</ele>
        <time>2013-06-08T10:00:53Z</time>
      </trkpt>
      <trkpt lat="49.72258" lon="1.95375">
        <ele>165.87</ele>
        <time>2013-06-08T10:01:12Z</time>
      </trkpt>
      <trkpt lat="49.72271" lon="1.9538">
        <ele>165.82</ele>
        <time>2013-06-08T10:01:23Z</time>
      </trkpt>
      <trkpt lat="49.72274" lon="1.95381">
        <ele>165.68</ele>
        <time>2013-06-08T10:01:26Z</time>
      </trkpt>
      <trkpt lat="49.72291" lon="1.95384">
        <ele>164.34</ele>
        <time>2013-06-08T10:01:40Z</time>
      </trkpt>
      <trkpt lat="49.7232" lon="1.95393">
        <ele>162.52</ele>
        <time>2013-06-08T10:01:55Z</time>
      </trkpt>
      <trkpt lat="49.72352" lon="1.954">
        <ele>159.38</ele>
        <time>2013-06-08T10:02:09Z</time>
      </trkpt>
      <trkpt lat="49.72357" lon="1.954">
        <ele>158.5</ele>
        <time>2013-06-08T10:02:11Z</time>
      </trkpt>
      <trkpt lat="49.72372" lon="1.95402">
        <ele>156.17</ele>
        <time>2013-06-08T10:02:18Z</time>
      </trkpt>
      <trkpt lat="49.72388" lon="1.9541">
        <ele>153.06</ele>
        <time>2013-06-08T10:02:25Z</time>
      </trkpt>
      <trkpt lat="49.7239" lon="1.95411">
        <ele>152.78</ele>
        <time>2013-06-08T10:02:26Z</time>
      </trkpt>
      <trkpt lat="49.72398" lon="1.95417">
        <ele>151.41</ele>
        <time>2013-06-08T10:02:29Z</time>
      </trkpt>
      <trkpt lat="49.72417" lon="1.95424">
        <ele>147.91</ele>
        <time>2013-06-08T10:02:36Z</time>
      </trkpt>
      <trkpt lat="49.72437" lon="1.95436">
        <ele>144.28</ele>
        <time>2013-06-08T10:02:45Z</time>
      </trkpt>
      <trkpt lat="49.72457" lon="1.95455">
        <ele>141.24</ele>
        <time>2013-06-08T10:02:55Z</time>
      </trkpt>
      <trkpt lat="49.72459" lon="1.95457">
        <ele>141.04</ele>
        <time>2013-06-08T10:02:56Z</time>
      </trkpt>
      <trkpt lat="49.72489" lon="1.9548">
        <ele>138.42</ele>
        <time>2013-06-08T10:03:08Z</time>
      </trkpt>
      <trkpt lat="49.72516" lon="1.95502">
        <ele>135.46</ele>
        <time>2013-06-08T10:03:21Z</time>
      </trkpt>
      <trkpt lat="49.72542" lon="1.9551">
        <ele>133.45</ele>
        <time>2013-06-08T10:03:31Z</time>
      </trkpt>
      <trkpt lat="49.72561" lon="1.95518">
        <ele>130.84</ele>
        <time>2013-06-08T10:03:39Z</time>
      </trkpt>
      <trkpt lat="49.72586" lon="1.95534">
        <ele>129.09</ele>
        <time>2013-06-08T10:03:49Z</time>
      </trkpt>
      <trkpt lat="49.72612" lon="1.9555">
        <ele>125.87</ele>
        <time>2013-06-08T10:04:00Z</time>
      </trkpt>
      <trkpt lat="49.72644" lon="1.95561">
        <ele>123.91</ele>
        <time>2013-06-08T10:04:13Z</time>
      </trkpt>
      <trkpt lat="49.72674" lon="1.95569">
        <ele>123.62</ele>
        <time>2013-06-08T10:04:25Z</time>
      </trkpt>
      <trkpt lat="49.72699" lon="1.9558">
        <ele>123.84</ele>
        <time>2013-06-08T10:04:38Z</time>
      </trkpt>
      <trkpt lat="49.72723" lon="1.95587">
        <ele>125.35</ele>
        <time>2013-06-08T10:04:51Z</time>
      </trkpt>
      <trkpt lat="49.72751" lon="1.95604">
        <ele>127.94</ele>
        <time>2013-06-08T10:05:04Z</time>
      </trkpt>
      <trkpt lat="49.72756" lon="1.95645">
        <ele>129.53</ele>
        <time>2013-06-08T10:05:15Z</time>
      </trkpt>
      <trkpt lat="49.72749" lon="1.95696">
        <ele>130.23</ele>
        <time>2013-06-08T10:05:30Z</time>
      </trkpt>
      <trkpt lat="49.72744" lon="1.95739">
        <ele>130.1</ele>
        <time>2013-06-08T10:05:41Z</time>
      </trkpt>
      <trkpt lat="49.72745" lon="1.95753">
        <ele>130.04</ele>
        <time>2013-06-08T10:05:47Z</time>
      </trkpt>
      <trkpt lat="49.72752" lon="1.95745">
        <ele>131.8</ele>
        <time>2013-06-08T10:05:54Z</time>
      </trkpt>
      <trkpt lat="49.72753" lon="1.95743">
        <ele>131.86</ele>
        <time>2013-06-08T10:05:55Z</time>
      </trkpt>
      <trkpt lat="49.72765" lon="1.95712">
        <ele>134.34</ele>
        <time>2013-06-08T10:06:07Z</time>
      </trkpt>
      <trkpt lat="49.72774" lon="1.95692">
        <ele>137.01</ele>
        <time>2013-06-08T10:06:18Z</time>
      </trkpt>
      <trkpt lat="49.72787" lon="1.95666">
        <ele>138.89</ele>
        <time>2013-06-08T10:06:30Z</time>
      </trkpt>
      <trkpt lat="49.7281" lon="1.9564">
        <ele>141.79</ele>
        <time>2013-06-08T10:06:46Z</time>
      </trkpt>
      <trkpt lat="49.7283" lon="1.9563">
        <ele>144.75</ele>
        <time>2013-06-08T10:06:59Z</time>
      </trkpt>
      <trkpt lat="49.72837" lon="1.95629">
        <ele>146.47</ele>
        <time>2013-06-08T10:07:03Z</time>
      </trkpt>
      <trkpt lat="49.72859" lon="1.95624">
        <ele>149</ele>
        <time>2013-06-08T10:07:15Z</time>
      </trkpt>
      <trkpt lat="49.72882" lon="1.95621">
        <ele>152.16</ele>
        <time>2013-06-08T10:07:29Z</time>
      </trkpt>
      <trkpt lat="49.72899" lon="1.95616">
        <ele>154.74</ele>
        <time>2013-06-08T10:07:41Z</time>
      </trkpt>
      <trkpt lat="49.72916" lon="1.95614">
        <ele>158.02</ele>
        <time>2013-06-08T10:07:52Z</time>
      </trkpt>
      <trkpt lat="49.72935" lon="1.95607">
        <ele>161.04</ele>
        <time>2013-06-08T10:08:04Z</time>
      </trkpt>
      <trkpt lat="49.72941" lon="1.95603">
        <ele>162.81</ele>
        <time>2013-06-08T10:08:08Z</time>
      </trkpt>
      <trkpt lat="49.72958" lon="1.95597">
        <ele>165.85</ele>
        <time>2013-06-08T10:08:20Z</time>
      </trkpt>
      <trkpt lat="49.72973" lon="1.95595">
        <ele>169.06</ele>
        <time>2013-06-08T10:08:32Z</time>
      </trkpt>
      <trkpt lat="49.72974" lon="1.95596">
        <ele>169.28</ele>
        <time>2013-06-08T10:08:33Z</time>
      </trkpt>
      <trkpt lat="49.72986" lon="1.95591">
        <ele>172.7</ele>
        <time>2013-06-08T10:08:45Z</time>
      </trkpt>
      <trkpt lat="49.7299" lon="1.95588">
        <ele>173.5</ele>
        <time>2013-06-08T10:08:48Z</time>
      </trkpt>
      <trkpt lat="49.7302" lon="1.95579">
        <ele>177.29</ele>
        <time>2013-06-08T10:09:03Z</time>
      </trkpt>
      <trkpt lat="49.73038" lon="1.95575">
        <ele>180.34</ele>
        <time>2013-06-08T10:09:12Z</time>
      </trkpt>
      <trkpt lat="49.73058" lon="1.95587">
        <ele>183.55</ele>
        <time>2013-06-08T10:09:25Z</time>
      </trkpt>
      <trkpt lat="49.73067" lon="1.956">
        <ele>185.66</ele>
        <time>2013-06-08T10:09:30Z</time>
      </trkpt>
      <trkpt lat="49.73079" lon="1.95612">
        <ele>186.9</ele>
        <time>2013-06-08T10:09:35Z</time>
      </trkpt>
      <trkpt lat="49.73096" lon="1.95628">
        <ele>189.1</ele>
        <time>2013-06-08T10:09:45Z</time>
      </trkpt>
      <trkpt lat="49.73097" lon="1.95629">
        <ele>189.21</ele>
        <time>2013-06-08T10:09:47Z</time>
      </trkpt>
      <trkpt lat="49.73107" lon="1.95636">
        <ele>189.96</ele>
        <time>2013-06-08T10:10:06Z</time>
      </trkpt>
      <trkpt lat="49.73117" lon="1.9565">
        <ele>190.23</ele>
        <time>2013-06-08T10:10:26Z</time>
      </trkpt>
      <trkpt lat="49.73129" lon="1.9567">
        <ele>190.64</ele>
        <time>2013-06-08T10:10:43Z</time>
      </trkpt>
      <trkpt lat="49.7314" lon="1.95691">
        <ele>192.56</ele>
        <time>2013-06-08T10:11:02Z</time>
      </trkpt>
      <trkpt lat="49.73153" lon="1.95713">
        <ele>192.22</ele>
        <time>2013-06-08T10:11:24Z</time>
      </trkpt>
      <trkpt lat="49.73169" lon="1.95733">
        <ele>192.25</ele>
        <time>2013-06-08T10:11:43Z</time>
      </trkpt>
      <trkpt lat="49.73168" lon="1.9574">
        <ele>191.56</ele>
        <time>2013-06-08T10:11:48Z</time>
      </trkpt>
      <trkpt lat="49.7316" lon="1.95748">
        <ele>191.66</ele>
        <time>2013-06-08T10:12:05Z</time>
      </trkpt>
      <trkpt lat="49.7316" lon="1.95743">
        <ele>191.74</ele>
        <time>2013-06-08T10:12:27Z</time>
      </trkpt>
      <trkpt lat="49.73164" lon="1.95745">
        <ele>191.95</ele>
        <time>2013-06-08T10:12:50Z</time>
      </trkpt>
      <trkpt lat="49.73176" lon="1.95753">
        <ele>193.5</ele>
        <time>2013-06-08T10:12:57Z</time>
      </trkpt>
      <trkpt lat="49.73206" lon="1.95787">
        <ele>192.87</ele>
        <time>2013-06-08T10:13:09Z</time>
      </trkpt>
      <trkpt lat="49.7322" lon="1.95816">
        <ele>193.03</ele>
        <time>2013-06-08T10:13:18Z</time>
      </trkpt>
      <trkpt lat="49.73235" lon="1.95851">
        <ele>193.11</ele>
        <time>2013-06-08T10:13:28Z</time>
      </trkpt>
      <trkpt lat="49.73254" lon="1.95887">
        <ele>193</ele>
        <time>2013-06-08T10:13:40Z</time>
      </trkpt>
      <trkpt lat="49.73248" lon="1.95916">
        <ele>193.65</ele>
        <time>2013-06-08T10:13:47Z</time>
      </trkpt>
      <trkpt lat="49.73237" lon="1.95929">
        <ele>192.32</ele>
        <time>2013-06-08T10:13:51Z</time>
      </trkpt>
      <trkpt lat="49.73205" lon="1.95956">
        <ele>190.41</ele>
        <time>2013-06-08T10:14:04Z</time>
      </trkpt>
      <trkpt lat="49.73175" lon="1.95985">
        <ele>190.63</ele>
        <time>2013-06-08T10:14:17Z</time>
      </trkpt>
      <trkpt lat="49.73152" lon="1.96012">
        <ele>190.46</ele>
        <time>2013-06-08T10:14:28Z</time>
      </trkpt>
      <trkpt lat="49.73128" lon="1.96037">
        <ele>189.7</ele>
        <time>2013-06-08T10:14:41Z</time>
      </trkpt>
      <trkpt lat="49.73118" lon="1.96077">
        <ele>190.03</ele>
        <time>2013-06-08T10:14:52Z</time>
      </trkpt>
      <trkpt lat="49.73127" lon="1.96119">
        <ele>188.62</ele>
        <time>2013-06-08T10:15:05Z</time>
      </trkpt>
      <trkpt lat="49.73112" lon="1.96167">
        <ele>189.2</ele>
        <time>2013-06-08T10:15:17Z</time>
      </trkpt>
      <trkpt lat="49.73108" lon="1.96222">
        <ele>187.93</ele>
        <time>2013-06-08T10:15:30Z</time>
      </trkpt>
      <trkpt lat="49.7311" lon="1.96272">
        <ele>187.26</ele>
        <time>2013-06-08T10:15:43Z</time>
      </trkpt>
      <trkpt lat="49.73103" lon="1.9632">
        <ele>187</ele>
        <time>2013-06-08T10:15:55Z</time>
      </trkpt>
      <trkpt lat="49.731" lon="1.96364">
        <ele>185.99</ele>
        <time>2013-06-08T10:16:07Z</time>
      </trkpt>
      <trkpt lat="49.73089" lon="1.96409">
        <ele>184.53</ele>
        <time>2013-06-08T10:16:20Z</time>
      </trkpt>
      <trkpt lat="49.73079" lon="1.96459">
        <ele>184.56</ele>
        <time>2013-06-08T10:16:34Z</time>
      </trkpt>
      <trkpt lat="49.73075" lon="1.96509">
        <ele>183.8</ele>
        <time>2013-06-08T10:16:47Z</time>
      </trkpt>
      <trkpt lat="49.7307" lon="1.96553">
        <ele>183.46</ele>
        <time>2013-06-08T10:16:58Z</time>
      </trkpt>
      <trkpt lat="49.7306" lon="1.96605">
        <ele>182.66</ele>
        <time>2013-06-08T10:17:11Z</time>
      </trkpt>
      <trkpt lat="49.73054" lon="1.96649">
        <ele>182.05</ele>
        <time>2013-06-08T10:17:22Z</time>
      </trkpt>
      <trkpt lat="49.7305" lon="1.96665">
        <ele>181.81</ele>
        <time>2013-06-08T10:17:26Z</time>
      </trkpt>
      <trkpt lat="49.73032" lon="1.96715">
        <ele>180.29</ele>
        <time>2013-06-08T10:17:38Z</time>
      </trkpt>
      <trkpt lat="49.73021" lon="1.96757">
        <ele>179.66</ele>
        <time>2013-06-08T10:17:49Z</time>
      </trkpt>
      <trkpt lat="49.73014" lon="1.9681">
        <ele>177.94</ele>
        <time>2013-06-08T10:18:03Z</time>
      </trkpt>
      <trkpt lat="49.73018" lon="1.96863">
        <ele>175.97</ele>
        <time>2013-06-08T10:18:17Z</time>
      </trkpt>
      <trkpt lat="49.73014" lon="1.96909">
        <ele>173.77</ele>
        <time>2013-06-08T10:18:30Z</time>
      </trkpt>
      <trkpt lat="49.73016" lon="1.96948">
        <ele>171.07</ele>
        <time>2013-06-08T10:18:41Z</time>
      </trkpt>
      <trkpt lat="49.7301" lon="1.97001">
        <ele>169.78</ele>
        <time>2013-06-08T10:18:54Z</time>
      </trkpt>
      <trkpt lat="49.73015" lon="1.97047">
        <ele>167.75</ele>
        <time>2013-06-08T10:19:04Z</time>
      </trkpt>
      <trkpt lat="49.73015" lon="1.97086">
        <ele>166.28</ele>
        <time>2013-06-08T10:19:14Z</time>
      </trkpt>
      <trkpt lat="49.73012" lon="1.97107">
        <ele>165.65</ele>
        <time>2013-06-08T10:19:19Z</time>
      </trkpt>
      <trkpt lat="49.73011" lon="1.97169">
        <ele>164.32</ele>
        <time>2013-06-08T10:19:32Z</time>
      </trkpt>
      <trkpt lat="49.73007" lon="1.97183">
        <ele>163.98</ele>
        <time>2013-06-08T10:19:35Z</time>
      </trkpt>
      <trkpt lat="49.73009" lon="1.97202">
        <ele>162.88</ele>
        <time>2013-06-08T10:19:40Z</time>
      </trkpt>
      <trkpt lat="49.73011" lon="1.97256">
        <ele>162.08</ele>
        <time>2013-06-08T10:19:52Z</time>
      </trkpt>
      <trkpt lat="49.73011" lon="1.97308">
        <ele>160.27</ele>
        <time>2013-06-08T10:20:04Z</time>
      </trkpt>
      <trkpt lat="49.73006" lon="1.97352">
        <ele>158.24</ele>
        <time>2013-06-08T10:20:15Z</time>
      </trkpt>
      <trkpt lat="49.72999" lon="1.9739">
        <ele>156.36</ele>
        <time>2013-06-08T10:20:25Z</time>
      </trkpt>
      <trkpt lat="49.73001" lon="1.97444">
        <ele>153.77</ele>
        <time>2013-06-08T10:20:39Z</time>
      </trkpt>
      <trkpt lat="49.72996" lon="1.97498">
        <ele>151.39</ele>
        <time>2013-06-08T10:20:51Z</time>
      </trkpt>
      <trkpt lat="49.7299" lon="1.97544">
        <ele>149.93</ele>
        <time>2013-06-08T10:21:02Z</time>
      </trkpt>
      <trkpt lat="49.72981" lon="1.97595">
        <ele>148.26</ele>
        <time>2013-06-08T10:21:14Z</time>
      </trkpt>
      <trkpt lat="49.72982" lon="1.97609">
        <ele>147.72</ele>
        <time>2013-06-08T10:21:18Z</time>
      </trkpt>
      <trkpt lat="49.72981" lon="1.9762">
        <ele>147.16</ele>
        <time>2013-06-08T10:21:21Z</time>
      </trkpt>
      <trkpt lat="49.72985" lon="1.97671">
        <ele>145.89</ele>
        <time>2013-06-08T10:21:35Z</time>
      </trkpt>
      <trkpt lat="49.72984" lon="1.97716">
        <ele>142.97</ele>
        <time>2013-06-08T10:21:45Z</time>
      </trkpt>
      <trkpt lat="49.72981" lon="1.9775">
        <ele>142.06</ele>
        <time>2013-06-08T10:21:53Z</time>
      </trkpt>
      <trkpt lat="49.72971" lon="1.978">
        <ele>140.47</ele>
        <time>2013-06-08T10:22:05Z</time>
      </trkpt>
      <trkpt lat="49.72941" lon="1.97828">
        <ele>138.53</ele>
        <time>2013-06-08T10:22:18Z</time>
      </trkpt>
      <trkpt lat="49.72905" lon="1.97875">
        <ele>136.36</ele>
        <time>2013-06-08T10:22:32Z</time>
      </trkpt>
      <trkpt lat="49.7288" lon="1.97915">
        <ele>134.95</ele>
        <time>2013-06-08T10:22:44Z</time>
      </trkpt>
      <trkpt lat="49.72876" lon="1.97921">
        <ele>134.44</ele>
        <time>2013-06-08T10:22:46Z</time>
      </trkpt>
      <trkpt lat="49.72854" lon="1.97972">
        <ele>132.52</ele>
        <time>2013-06-08T10:23:00Z</time>
      </trkpt>
      <trkpt lat="49.72825" lon="1.98018">
        <ele>130.76</ele>
        <time>2013-06-08T10:23:13Z</time>
      </trkpt>
      <trkpt lat="49.72804" lon="1.98065">
        <ele>129.51</ele>
        <time>2013-06-08T10:23:26Z</time>
      </trkpt>
      <trkpt lat="49.72789" lon="1.98113">
        <ele>127.55</ele>
        <time>2013-06-08T10:23:38Z</time>
      </trkpt>
      <trkpt lat="49.72772" lon="1.98157">
        <ele>125.19</ele>
        <time>2013-06-08T10:23:51Z</time>
      </trkpt>
      <trkpt lat="49.72766" lon="1.98178">
        <ele>124.27</ele>
        <time>2013-06-08T10:23:56Z</time>
      </trkpt>
      <trkpt lat="49.72751" lon="1.9822">
        <ele>122.65</ele>
        <time>2013-06-08T10:24:08Z</time>
      </trkpt>
      <trkpt lat="49.72738" lon="1.98265">
        <ele>120.73</ele>
        <time>2013-06-08T10:24:22Z</time>
      </trkpt>
      <trkpt lat="49.72732" lon="1.98311">
        <ele>119.66</ele>
        <time>2013-06-08T10:24:34Z</time>
      </trkpt>
      <trkpt lat="49.72727" lon="1.98328">
        <ele>118.58</ele>
        <time>2013-06-08T10:24:39Z</time>
      </trkpt>
      <trkpt lat="49.72694" lon="1.9837">
        <ele>116.06</ele>
        <time>2013-06-08T10:24:53Z</time>
      </trkpt>
      <trkpt lat="49.72672" lon="1.98401">
        <ele>114.98</ele>
        <time>2013-06-08T10:25:04Z</time>
      </trkpt>
      <trkpt lat="49.7264" lon="1.98421">
        <ele>114.69</ele>
        <time>2013-06-08T10:25:18Z</time>
      </trkpt>
      <trkpt lat="49.72606" lon="1.9843">
        <ele>115.66</ele>
        <time>2013-06-08T10:25:31Z</time>
      </trkpt>
      <trkpt lat="49.72575" lon="1.9844">
        <ele>116.18</ele>
        <time>2013-06-08T10:25:44Z</time>
      </trkpt>
      <trkpt lat="49.72557" lon="1.98455">
        <ele>117.69</ele>
        <time>2013-06-08T10:25:55Z</time>
      </trkpt>
      <trkpt lat="49.72556" lon="1.98457">
        <ele>117.97</ele>
        <time>2013-06-08T10:25:56Z</time>
      </trkpt>
      <trkpt lat="49.72552" lon="1.9846">
        <ele>118.59</ele>
        <time>2013-06-08T10:26:00Z</time>
      </trkpt>
      <trkpt lat="49.72532" lon="1.98486">
        <ele>121.09</ele>
        <time>2013-06-08T10:26:15Z</time>
      </trkpt>
      <trkpt lat="49.72513" lon="1.98503">
        <ele>122.75</ele>
        <time>2013-06-08T10:26:26Z</time>
      </trkpt>
      <trkpt lat="49.72492" lon="1.98521">
        <ele>125.8</ele>
        <time>2013-06-08T10:26:38Z</time>
      </trkpt>
      <trkpt lat="49.72484" lon="1.98531">
        <ele>127.63</ele>
        <time>2013-06-08T10:26:44Z</time>
      </trkpt>
      <trkpt lat="49.72466" lon="1.98542">
        <ele>130.65</ele>
        <time>2013-06-08T10:26:55Z</time>
      </trkpt>
      <trkpt lat="49.7246" lon="1.98546">
        <ele>132.2</ele>
        <time>2013-06-08T10:27:00Z</time>
      </trkpt>
      <trkpt lat="49.72438" lon="1.98553">
        <ele>135.49</ele>
        <time>2013-06-08T10:27:13Z</time>
      </trkpt>
      <trkpt lat="49.72414" lon="1.98558">
        <ele>138.9</ele>
        <time>2013-06-08T10:27:25Z</time>
      </trkpt>
      <trkpt lat="49.72393" lon="1.98562">
        <ele>142.11</ele>
        <time>2013-06-08T10:27:36Z</time>
      </trkpt>
      <trkpt lat="49.72378" lon="1.98568">
        <ele>144.59</ele>
        <time>2013-06-08T10:27:44Z</time>
      </trkpt>
      <trkpt lat="49.72351" lon="1.98574">
        <ele>148.11</ele>
        <time>2013-06-08T10:27:56Z</time>
      </trkpt>
      <trkpt lat="49.72334" lon="1.98573">
        <ele>151.19</ele>
        <time>2013-06-08T10:28:07Z</time>
      </trkpt>
      <trkpt lat="49.72311" lon="1.98568">
        <ele>154.3</ele>
        <time>2013-06-08T10:28:18Z</time>
      </trkpt>
      <trkpt lat="49.72287" lon="1.98556">
        <ele>157.5</ele>
        <time>2013-06-08T10:28:29Z</time>
      </trkpt>
      <trkpt lat="49.72262" lon="1.98543">
        <ele>160.57</ele>
        <time>2013-06-08T10:28:41Z</time>
      </trkpt>
      <trkpt lat="49.72236" lon="1.98531">
        <ele>163.73</ele>
        <time>2013-06-08T10:28:52Z</time>
      </trkpt>
      <trkpt lat="49.72233" lon="1.98529">
        <ele>163.96</ele>
        <time>2013-06-08T10:28:53Z</time>
      </trkpt>
      <trkpt lat="49.72204" lon="1.98516">
        <ele>167.18</ele>
        <time>2013-06-08T10:29:05Z</time>
      </trkpt>
      <trkpt lat="49.72202" lon="1.98515">
        <ele>167.39</ele>
        <time>2013-06-08T10:29:06Z</time>
      </trkpt>
      <trkpt lat="49.72195" lon="1.98512">
        <ele>168.04</ele>
        <time>2013-06-08T10:29:09Z</time>
      </trkpt>
      <trkpt lat="49.72172" lon="1.98499">
        <ele>169.86</ele>
        <time>2013-06-08T10:29:19Z</time>
      </trkpt>
      <trkpt lat="49.72148" lon="1.98479">
        <ele>172.72</ele>
        <time>2013-06-08T10:29:31Z</time>
      </trkpt>
      <trkpt lat="49.72114" lon="1.98473">
        <ele>175.82</ele>
        <time>2013-06-08T10:29:44Z</time>
      </trkpt>
      <trkpt lat="49.72087" lon="1.98468">
        <ele>178.92</ele>
        <time>2013-06-08T10:29:56Z</time>
      </trkpt>
      <trkpt lat="49.72072" lon="1.98467">
        <ele>181.97</ele>
        <time>2013-06-08T10:30:01Z</time>
      </trkpt>
      <trkpt lat="49.72051" lon="1.98475">
        <ele>185</ele>
        <time>2013-06-08T10:30:13Z</time>
      </trkpt>
      <trkpt lat="49.72051" lon="1.98481">
        <ele>185.51</ele>
        <time>2013-06-08T10:30:28Z</time>
      </trkpt>
      <trkpt lat="49.72061" lon="1.98483">
        <ele>184.61</ele>
        <time>2013-06-08T10:30:51Z</time>
      </trkpt>
      <trkpt lat="49.72084" lon="1.98489">
        <ele>182.1</ele>
        <time>2013-06-08T10:31:23Z</time>
      </trkpt>
      <trkpt lat="49.72113" lon="1.98495">
        <ele>180.88</ele>
        <time>2013-06-08T10:31:54Z</time>
      </trkpt>
      <trkpt lat="49.72125" lon="1.98501">
        <ele>180.32</ele>
        <time>2013-06-08T10:32:04Z</time>
      </trkpt>
      <trkpt lat="49.72144" lon="1.98516">
        <ele>179.5</ele>
        <time>2013-06-08T10:32:29Z</time>
      </trkpt>
      <trkpt lat="49.72155" lon="1.98525">
        <ele>178.57</ele>
        <time>2013-06-08T10:32:58Z</time>
      </trkpt>
      <trkpt lat="49.72164" lon="1.98545">
        <ele>179.43</ele>
        <time>2013-06-08T10:33:20Z</time>
      </trkpt>
      <trkpt lat="49.72167" lon="1.98577">
        <ele>181.13</ele>
        <time>2013-06-08T10:33:43Z</time>
      </trkpt>
      <trkpt lat="49.72173" lon="1.98604">
        <ele>182.53</ele>
        <time>2013-06-08T10:33:59Z</time>
      </trkpt>
      <trkpt lat="49.72187" lon="1.98645">
        <ele>184.19</ele>
        <time>2013-06-08T10:34:22Z</time>
      </trkpt>
      <trkpt lat="49.72197" lon="1.98671">
        <ele>185.37</ele>
        <time>2013-06-08T10:34:47Z</time>
      </trkpt>
      <trkpt lat="49.7221" lon="1.98688">
        <ele>184.74</ele>
        <time>2013-06-08T10:35:02Z</time>
      </trkpt>
      <trkpt lat="49.72239" lon="1.98717">
        <ele>184.46</ele>
        <time>2013-06-08T10:35:27Z</time>
      </trkpt>
      <trkpt lat="49.72262" lon="1.98745">
        <ele>184.13</ele>
        <time>2013-06-08T10:35:55Z</time>
      </trkpt>
      <trkpt lat="49.72284" lon="1.98766">
        <ele>183.2</ele>
        <time>2013-06-08T10:36:22Z</time>
      </trkpt>
      <trkpt lat="49.72309" lon="1.98796">
        <ele>183.52</ele>
        <time>2013-06-08T10:36:48Z</time>
      </trkpt>
      <trkpt lat="49.7233" lon="1.9883">
        <ele>184.21</ele>
        <time>2013-06-08T10:37:10Z</time>
      </trkpt>
      <trkpt lat="49.72369" lon="1.98872">
        <ele>184.79</ele>
        <time>2013-06-08T10:37:36Z</time>
      </trkpt>
      <trkpt lat="49.7238" lon="1.98887">
        <ele>184.57</ele>
        <time>2013-06-08T10:37:49Z</time>
      </trkpt>
      <trkpt lat="49.7238" lon="1.98888">
        <ele>184.52</ele>
        <time>2013-06-08T10:37:50Z</time>
      </trkpt>
      <trkpt lat="49.72382" lon="1.98896">
        <ele>184.39</ele>
        <time>2013-06-08T10:37:56Z</time>
      </trkpt>
      <trkpt lat="49.72389" lon="1.98908">
        <ele>185.13</ele>
        <time>2013-06-08T10:38:05Z</time>
      </trkpt>
      <trkpt lat="49.7239" lon="1.98912">
        <ele>185.32</ele>
        <time>2013-06-08T10:38:09Z</time>
      </trkpt>
      <trkpt lat="49.7241" lon="1.98947">
        <ele>186.18</ele>
        <time>2013-06-08T10:38:23Z</time>
      </trkpt>
      <trkpt lat="49.72432" lon="1.98981">
        <ele>186.64</ele>
        <time>2013-06-08T10:38:37Z</time>
      </trkpt>
      <trkpt lat="49.72466" lon="1.99019">
        <ele>186.67</ele>
        <time>2013-06-08T10:38:49Z</time>
      </trkpt>
      <trkpt lat="49.72487" lon="1.99062">
        <ele>186.97</ele>
        <time>2013-06-08T10:39:01Z</time>
      </trkpt>
      <trkpt lat="49.72508" lon="1.99106">
        <ele>187.11</ele>
        <time>2013-06-08T10:39:14Z</time>
      </trkpt>
      <trkpt lat="49.72529" lon="1.99143">
        <ele>187.98</ele>
        <time>2013-06-08T10:39:27Z</time>
      </trkpt>
      <trkpt lat="49.72557" lon="1.99196">
        <ele>188.82</ele>
        <time>2013-06-08T10:39:42Z</time>
      </trkpt>
      <trkpt lat="49.72566" lon="1.99238">
        <ele>189.88</ele>
        <time>2013-06-08T10:39:53Z</time>
      </trkpt>
      <trkpt lat="49.72576" lon="1.99287">
        <ele>189.54</ele>
        <time>2013-06-08T10:40:04Z</time>
      </trkpt>
      <trkpt lat="49.72587" lon="1.99327">
        <ele>189.58</ele>
        <time>2013-06-08T10:40:15Z</time>
      </trkpt>
      <trkpt lat="49.72591" lon="1.99336">
        <ele>189.54</ele>
        <time>2013-06-08T10:40:19Z</time>
      </trkpt>
      <trkpt lat="49.72613" lon="1.99339">
        <ele>188.83</ele>
        <time>2013-06-08T10:40:33Z</time>
      </trkpt>
      <trkpt lat="49.72641" lon="1.99332">
        <ele>187.17</ele>
        <time>2013-06-08T10:40:48Z</time>
      </trkpt>
      <trkpt lat="49.72662" lon="1.99317">
        <ele>184.57</ele>
        <time>2013-06-08T10:41:01Z</time>
      </trkpt>
      <trkpt lat="49.72684" lon="1.99302">
        <ele>181.89</ele>
        <time>2013-06-08T10:41:13Z</time>
      </trkpt>
      <trkpt lat="49.72709" lon="1.99291">
        <ele>178.72</ele>
        <time>2013-06-08T10:41:23Z</time>
      </trkpt>
      <trkpt lat="49.72718" lon="1.9929">
        <ele>177.82</ele>
        <time>2013-06-08T10:41:27Z</time>
      </trkpt>
      <trkpt lat="49.72733" lon="1.99297">
        <ele>176.38</ele>
        <time>2013-06-08T10:41:34Z</time>
      </trkpt>
      <trkpt lat="49.72755" lon="1.99324">
        <ele>175.4</ele>
        <time>2013-06-08T10:41:49Z</time>
      </trkpt>
      <trkpt lat="49.72773" lon="1.99348">
        <ele>174.75</ele>
        <time>2013-06-08T10:41:59Z</time>
      </trkpt>
      <trkpt lat="49.72799" lon="1.99381">
        <ele>173.46</ele>
        <time>2013-06-08T10:42:13Z</time>
      </trkpt>
      <trkpt lat="49.7283" lon="1.99422">
        <ele>171.71</ele>
        <time>2013-06-08T10:42:29Z</time>
      </trkpt>
      <trkpt lat="49.72833" lon="1.99426">
        <ele>171.03</ele>
        <time>2013-06-08T10:42:31Z</time>
      </trkpt>
      <trkpt lat="49.7285" lon="1.99434">
        <ele>169.43</ele>
        <time>2013-06-08T10:42:38Z</time>
      </trkpt>
      <trkpt lat="49.7288" lon="1.99427">
        <ele>165.83</ele>
        <time>2013-06-08T10:42:48Z</time>
      </trkpt>
      <trkpt lat="49.72896" lon="1.99421">
        <ele>163.48</ele>
        <time>2013-06-08T10:42:53Z</time>
      </trkpt>
      <trkpt lat="49.72924" lon="1.99406">
        <ele>160.15</ele>
        <time>2013-06-08T10:43:01Z</time>
      </trkpt>
      <trkpt lat="49.72927" lon="1.99404">
        <ele>159.85</ele>
        <time>2013-06-08T10:43:02Z</time>
      </trkpt>
      <trkpt lat="49.72951" lon="1.99394">
        <ele>156.53</ele>
        <time>2013-06-08T10:43:10Z</time>
      </trkpt>
      <trkpt lat="49.72982" lon="1.99395">
        <ele>153.28</ele>
        <time>2013-06-08T10:43:22Z</time>
      </trkpt>
      <trkpt lat="49.73012" lon="1.99406">
        <ele>150.53</ele>
        <time>2013-06-08T10:43:33Z</time>
      </trkpt>
      <trkpt lat="49.73044" lon="1.99422">
        <ele>147.8</ele>
        <time>2013-06-08T10:43:45Z</time>
      </trkpt>
      <trkpt lat="49.73069" lon="1.99437">
        <ele>145.8</ele>
        <time>2013-06-08T10:43:56Z</time>
      </trkpt>
      <trkpt lat="49.73111" lon="1.99428">
        <ele>143.58</ele>
        <time>2013-06-08T10:44:10Z</time>
      </trkpt>
      <trkpt lat="49.73152" lon="1.99417">
        <ele>140.96</ele>
        <time>2013-06-08T10:44:24Z</time>
      </trkpt>
      <trkpt lat="49.73192" lon="1.99409">
        <ele>138.69</ele>
        <time>2013-06-08T10:44:38Z</time>
      </trkpt>
      <trkpt lat="49.73224" lon="1.99403">
        <ele>135.86</ele>
        <time>2013-06-08T10:44:49Z</time>
      </trkpt>
      <trkpt lat="49.73252" lon="1.99399">
        <ele>132.37</ele>
        <time>2013-06-08T10:44:58Z</time>
      </trkpt>
      <trkpt lat="49.73274" lon="1.99372">
        <ele>128.84</ele>
        <time>2013-06-08T10:45:10Z</time>
      </trkpt>
      <trkpt lat="49.73269" lon="1.99327">
        <ele>125.82</ele>
        <time>2013-06-08T10:45:22Z</time>
      </trkpt>
      <trkpt lat="49.73292" lon="1.99323">
        <ele>122.96</ele>
        <time>2013-06-08T10:45:28Z</time>
      </trkpt>
      <trkpt lat="49.73297" lon="1.99322">
        <ele>122.07</ele>
        <time>2013-06-08T10:45:30Z</time>
      </trkpt>
      <trkpt lat="49.733" lon="1.99321">
        <ele>121.77</ele>
        <time>2013-06-08T10:45:31Z</time>
      </trkpt>
      <trkpt lat="49.73322" lon="1.9932">
        <ele>119.2</ele>
        <time>2013-06-08T10:45:38Z</time>
      </trkpt>
      <trkpt lat="49.7333" lon="1.9932">
        <ele>117.96</ele>
        <time>2013-06-08T10:45:41Z</time>
      </trkpt>
      <trkpt lat="49.73363" lon="1.99306">
        <ele>114.87</ele>
        <time>2013-06-08T10:45:52Z</time>
      </trkpt>
      <trkpt lat="49.73402" lon="1.99309">
        <ele>112.29</ele>
        <time>2013-06-08T10:46:06Z</time>
      </trkpt>
      <trkpt lat="49.73441" lon="1.99333">
        <ele>110.87</ele>
        <time>2013-06-08T10:46:19Z</time>
      </trkpt>
      <trkpt lat="49.73469" lon="1.99377">
        <ele>111.27</ele>
        <time>2013-06-08T10:46:30Z</time>
      </trkpt>
      <trkpt lat="49.73489" lon="1.99413">
        <ele>110.74</ele>
        <time>2013-06-08T10:46:41Z</time>
      </trkpt>
      <trkpt lat="49.73509" lon="1.99448">
        <ele>111.32</ele>
        <time>2013-06-08T10:46:52Z</time>
      </trkpt>
      <trkpt lat="49.73525" lon="1.99479">
        <ele>111.48</ele>
        <time>2013-06-08T10:47:01Z</time>
      </trkpt>
      <trkpt lat="49.73544" lon="1.99496">
        <ele>111.94</ele>
        <time>2013-06-08T10:47:11Z</time>
      </trkpt>
      <trkpt lat="49.73572" lon="1.99471">
        <ele>111.22</ele>
        <time>2013-06-08T10:47:23Z</time>
      </trkpt>
      <trkpt lat="49.73606" lon="1.99434">
        <ele>109.64</ele>
        <time>2013-06-08T10:47:38Z</time>
      </trkpt>
      <trkpt lat="49.73629" lon="1.99403">
        <ele>108.78</ele>
        <time>2013-06-08T10:47:49Z</time>
      </trkpt>
      <trkpt lat="49.73656" lon="1.99372">
        <ele>108.31</ele>
        <time>2013-06-08T10:48:02Z</time>
      </trkpt>
      <trkpt lat="49.73677" lon="1.99342">
        <ele>107.88</ele>
        <time>2013-06-08T10:48:14Z</time>
      </trkpt>
      <trkpt lat="49.737" lon="1.99309">
        <ele>107.97</ele>
        <time>2013-06-08T10:48:27Z</time>
      </trkpt>
      <trkpt lat="49.73721" lon="1.9928">
        <ele>107.96</ele>
        <time>2013-06-08T10:48:38Z</time>
      </trkpt>
      <trkpt lat="49.73734" lon="1.99265">
        <ele>108.15</ele>
        <time>2013-06-08T10:48:45Z</time>
      </trkpt>
      <trkpt lat="49.73754" lon="1.99242">
        <ele>107.95</ele>
        <time>2013-06-08T10:48:57Z</time>
      </trkpt>
      <trkpt lat="49.7376" lon="1.99227">
        <ele>111.02</ele>
        <time>2013-06-08T10:49:11Z</time>
      </trkpt>
      <trkpt lat="49.73767" lon="1.99208">
        <ele>113.89</ele>
        <time>2013-06-08T10:49:22Z</time>
      </trkpt>
      <trkpt lat="49.73763" lon="1.99201">
        <ele>114.3</ele>
        <time>2013-06-08T10:49:26Z</time>
      </trkpt>
      <trkpt lat="49.7376" lon="1.99197">
        <ele>114.52</ele>
        <time>2013-06-08T10:49:29Z</time>
      </trkpt>
      <trkpt lat="49.73746" lon="1.99186">
        <ele>114.45</ele>
        <time>2013-06-08T10:49:43Z</time>
      </trkpt>
      <trkpt lat="49.7373" lon="1.99164">
        <ele>115.99</ele>
        <time>2013-06-08T10:50:00Z</time>
      </trkpt>
      <trkpt lat="49.73727" lon="1.99142">
        <ele>119.02</ele>
        <time>2013-06-08T10:50:15Z</time>
      </trkpt>
      <trkpt lat="49.73723" lon="1.99121">
        <ele>122.3</ele>
        <time>2013-06-08T10:50:27Z</time>
      </trkpt>
      <trkpt lat="49.73726" lon="1.99112">
        <ele>123.98</ele>
        <time>2013-06-08T10:50:33Z</time>
      </trkpt>
      <trkpt lat="49.73732" lon="1.99105">
        <ele>125.27</ele>
        <time>2013-06-08T10:50:37Z</time>
      </trkpt>
      <trkpt lat="49.73741" lon="1.99103">
        <ele>126.86</ele>
        <time>2013-06-08T10:50:45Z</time>
      </trkpt>
      <trkpt lat="49.73747" lon="1.99107">
        <ele>127.48</ele>
        <time>2013-06-08T10:50:49Z</time>
      </trkpt>
      <trkpt lat="49.7376" lon="1.99122">
        <ele>130.06</ele>
        <time>2013-06-08T10:51:05Z</time>
      </trkpt>
      <trkpt lat="49.73777" lon="1.99139">
        <ele>132.66</ele>
        <time>2013-06-08T10:51:17Z</time>
      </trkpt>
      <trkpt lat="49.73794" lon="1.99158">
        <ele>135.99</ele>
        <time>2013-06-08T10:51:30Z</time>
      </trkpt>
      <trkpt lat="49.738" lon="1.99162">
        <ele>137.4</ele>
        <time>2013-06-08T10:51:33Z</time>
      </trkpt>
      <trkpt lat="49.73816" lon="1.99177">
        <ele>141.13</ele>
        <time>2013-06-08T10:51:43Z</time>
      </trkpt>
      <trkpt lat="49.73818" lon="1.99179">
        <ele>141.34</ele>
        <time>2013-06-08T10:51:44Z</time>
      </trkpt>
      <trkpt lat="49.73827" lon="1.99188">
        <ele>143.15</ele>
        <time>2013-06-08T10:51:50Z</time>
      </trkpt>
      <trkpt lat="49.73837" lon="1.99197">
        <ele>144.9</ele>
        <time>2013-06-08T10:51:56Z</time>
      </trkpt>
      <trkpt lat="49.73845" lon="1.99207">
        <ele>146.95</ele>
        <time>2013-06-08T10:52:02Z</time>
      </trkpt>
      <trkpt lat="49.73853" lon="1.99216">
        <ele>148.68</ele>
        <time>2013-06-08T10:52:07Z</time>
      </trkpt>
      <trkpt lat="49.73861" lon="1.99227">
        <ele>150.35</ele>
        <time>2013-06-08T10:52:13Z</time>
      </trkpt>
      <trkpt lat="49.73867" lon="1.99234">
        <ele>151.04</ele>
        <time>2013-06-08T10:52:17Z</time>
      </trkpt>
      <trkpt lat="49.73872" lon="1.9924">
        <ele>152.81</ele>
        <time>2013-06-08T10:52:21Z</time>
      </trkpt>
      <trkpt lat="49.73882" lon="1.99259">
        <ele>156.27</ele>
        <time>2013-06-08T10:52:31Z</time>
      </trkpt>
      <trkpt lat="49.73883" lon="1.9926">
        <ele>156.52</ele>
        <time>2013-06-08T10:52:32Z</time>
      </trkpt>
      <trkpt lat="49.73892" lon="1.99273">
        <ele>158.63</ele>
        <time>2013-06-08T10:52:39Z</time>
      </trkpt>
      <trkpt lat="49.73895" lon="1.9928">
        <ele>159.72</ele>
        <time>2013-06-08T10:52:42Z</time>
      </trkpt>
      <trkpt lat="49.73897" lon="1.99286">
        <ele>161.57</ele>
        <time>2013-06-08T10:52:46Z</time>
      </trkpt>
      <trkpt lat="49.73896" lon="1.9929">
        <ele>161.98</ele>
        <time>2013-06-08T10:53:01Z</time>
      </trkpt>
      <trkpt lat="49.73898" lon="1.99303">
        <ele>161.54</ele>
        <time>2013-06-08T10:53:22Z</time>
      </trkpt>
      <trkpt lat="49.73901" lon="1.99305">
        <ele>161.94</ele>
        <time>2013-06-08T10:53:54Z</time>
      </trkpt>
      <trkpt lat="49.73901" lon="1.99325">
        <ele>161.01</ele>
        <time>2013-06-08T10:54:18Z</time>
      </trkpt>
      <trkpt lat="49.73911" lon="1.99346">
        <ele>160.67</ele>
        <time>2013-06-08T10:54:41Z</time>
      </trkpt>
      <trkpt lat="49.73911" lon="1.99342">
        <ele>161.09</ele>
        <time>2013-06-08T10:54:44Z</time>
      </trkpt>
      <trkpt lat="49.73904" lon="1.99293">
        <ele>163.96</ele>
        <time>2013-06-08T10:55:06Z</time>
      </trkpt>
      <trkpt lat="49.73908" lon="1.99248">
        <ele>166.62</ele>
        <time>2013-06-08T10:55:19Z</time>
      </trkpt>
      <trkpt lat="49.73914" lon="1.99221">
        <ele>168.72</ele>
        <time>2013-06-08T10:55:28Z</time>
      </trkpt>
      <trkpt lat="49.73925" lon="1.99233">
        <ele>168.47</ele>
        <time>2013-06-08T10:55:34Z</time>
      </trkpt>
      <trkpt lat="49.73935" lon="1.99264">
        <ele>167.54</ele>
        <time>2013-06-08T10:55:47Z</time>
      </trkpt>
      <trkpt lat="49.73933" lon="1.99262">
        <ele>167.44</ele>
        <time>2013-06-08T10:55:54Z</time>
      </trkpt>
    </trkseg>
  </trk>
</gpx>